Time,TemperatureF,DewpointF,PressureIn,WindDirection,WindDirectionDegrees,WindSpeedMPH,WindSpeedGustMPH,Humidity,HourlyPrecipIn,Conditions,Clouds,dailyrainin,SoftwareType,DateUTC
2013-03-11 00:09:00,35.2,25.0,29.82,West,270,10.5,10.5,66,0.00,,---,0.00,VWS V14.01,2013-03-11 06:09:00,
2013-03-11 00:10:00,35.1,24.9,29.82,West,280,8.7,12.3,66,0.00,,---,0.00,VWS V14.01,2013-03-11 06:10:00,
2013-03-11 00:11:00,35.1,24.9,29.82,West,274,10.5,10.5,66,0.00,,---,0.00,VWS V14.01,2013-03-11 06:11:00,
2013-03-11 00:12:00,35.1,25.2,29.82,West,262,10.5,15.4,67,0.00,,---,0.00,VWS V14.01,2013-03-11 06:12:00,
2013-03-11 00:13:00,35.1,25.2,29.82,WNW,291,15.0,15.0,67,0.00,,---,0.00,VWS V14.01,2013-03-11 06:13:00,
2013-03-11 00:14:00,35.1,25.2,29.82,NW,307,12.3,12.3,67,0.00,,---,0.00,VWS V14.01,2013-03-11 06:14:00,
2013-03-11 00:15:00,35.1,25.2,29.82,West,279,8.3,12.3,67,0.00,,---,0.00,VWS V14.01,2013-03-11 06:15:00,
2013-03-11 00:16:00,35.1,25.2,29.82,SW,219,8.3,9.6,67,0.00,,---,0.00,VWS V14.01,2013-03-11 06:16:00,
2013-03-11 00:17:00,35.1,25.6,29.82,NW,314,8.3,11.0,68,0.00,,---,0.00,VWS V14.01,2013-03-11 06:17:00,
2013-03-11 00:18:00,35.1,25.6,29.82,NW,305,7.6,11.0,68,0.00,,---,0.00,VWS V14.01,2013-03-11 06:18:00,
2013-03-11 00:19:00,35.1,25.6,29.82,WNW,299,11.0,11.0,68,0.00,,---,0.00,VWS V14.01,2013-03-11 06:19:00,
2013-03-11 00:20:00,34.9,25.4,29.82,NNW,331,10.5,11.0,68,0.00,,---,0.00,VWS V14.01,2013-03-11 06:20:00,
2013-03-11 00:21:00,34.9,25.4,29.82,West,272,8.1,13.2,68,0.00,,---,0.00,VWS V14.01,2013-03-11 06:21:00,
2013-03-11 00:22:00,34.9,25.4,29.82,NW,316,10.5,12.8,68,0.00,,---,0.00,VWS V14.01,2013-03-11 06:22:00,
2013-03-11 00:23:00,34.9,25.4,29.82,West,260,8.3,10.5,68,0.00,,---,0.00,VWS V14.01,2013-03-11 06:23:00,
2013-03-11 00:24:00,34.9,25.4,29.82,NW,306,10.5,10.5,68,0.00,,---,0.00,VWS V14.01,2013-03-11 06:24:00,
2013-03-11 00:25:00,34.9,25.4,29.82,WNW,292,10.1,12.3,68,0.00,,---,0.00,VWS V14.01,2013-03-11 06:25:00,
2013-03-11 00:26:00,34.9,25.4,29.82,West,275,8.3,11.0,68,0.00,,---,0.00,VWS V14.01,2013-03-11 06:26:00,
2013-03-11 00:27:00,34.9,25.4,29.82,NNW,333,8.3,11.0,68,0.00,,---,0.00,VWS V14.01,2013-03-11 06:27:00,
2013-03-11 00:28:00,34.9,25.4,29.82,West,264,8.1,11.0,68,0.00,,---,0.00,VWS V14.01,2013-03-11 06:28:00,
2013-03-11 00:29:00,34.9,25.4,29.82,WSW,250,12.3,12.3,68,0.00,,---,0.00,VWS V14.01,2013-03-11 06:29:00,
2013-03-11 00:30:00,34.9,25.0,29.82,West,272,10.5,13.2,67,0.00,,---,0.00,VWS V14.01,2013-03-11 06:30:00,
2013-03-11 00:31:00,34.9,25.0,29.82,WNW,301,12.8,12.8,67,0.00,,---,0.00,VWS V14.01,2013-03-11 06:31:00,
2013-03-11 00:32:00,34.9,25.0,29.82,WNW,301,11.0,12.8,67,0.00,,---,0.00,VWS V14.01,2013-03-11 06:32:00,
2013-03-11 00:33:00,35.1,24.9,29.82,WSW,240,10.1,15.4,66,0.00,,---,0.00,VWS V14.01,2013-03-11 06:33:00,
2013-03-11 00:34:00,35.1,24.9,29.82,WSW,246,12.3,12.3,66,0.00,,---,0.00,VWS V14.01,2013-03-11 06:34:00,
2013-03-11 00:35:00,35.1,24.9,29.82,WSW,250,14.5,15.0,66,0.00,,---,0.00,VWS V14.01,2013-03-11 06:35:00,
2013-03-11 00:36:00,35.1,24.5,29.82,NW,311,9.2,14.5,65,0.00,,---,0.00,VWS V14.01,2013-03-11 06:36:00,
2013-03-11 00:37:00,35.1,24.5,29.82,West,274,10.5,10.5,65,0.00,,---,0.00,VWS V14.01,2013-03-11 06:37:00,
2013-03-11 00:38:00,35.1,24.5,29.82,WNW,287,8.7,14.1,65,0.00,,---,0.00,VWS V14.01,2013-03-11 06:38:00,
2013-03-11 00:39:00,35.1,24.5,29.82,WNW,296,8.1,9.6,65,0.00,,---,0.00,VWS V14.01,2013-03-11 06:39:00,
2013-03-11 00:40:00,35.1,24.5,29.82,NW,310,8.3,12.3,65,0.00,,---,0.00,VWS V14.01,2013-03-11 06:40:00,
2013-03-11 00:41:00,35.1,24.1,29.82,West,277,11.0,13.2,64,0.00,,---,0.00,VWS V14.01,2013-03-11 06:41:00,
2013-03-11 00:42:00,35.1,24.1,29.82,WNW,292,10.5,15.0,64,0.00,,---,0.00,VWS V14.01,2013-03-11 06:42:00,
2013-03-11 00:43:00,35.2,24.3,29.82,NW,312,11.0,12.8,64,0.00,,---,0.00,VWS V14.01,2013-03-11 06:43:00,
2013-03-11 00:44:00,35.2,24.3,29.82,WNW,283,8.7,12.3,64,0.00,,---,0.00,VWS V14.01,2013-03-11 06:44:00,
2013-03-11 00:45:00,35.2,23.9,29.82,WNW,288,11.0,15.0,63,0.00,,---,0.00,VWS V14.01,2013-03-11 06:45:00,
2013-03-11 00:46:00,35.2,23.9,29.82,WNW,301,14.5,14.5,63,0.00,,---,0.00,VWS V14.01,2013-03-11 06:46:00,
2013-03-11 00:47:00,35.2,23.9,29.82,West,277,8.3,14.5,63,0.00,,---,0.00,VWS V14.01,2013-03-11 06:47:00,
2013-03-11 00:48:00,35.2,23.9,29.82,West,271,9.6,10.5,63,0.00,,---,0.00,VWS V14.01,2013-03-11 06:48:00,
2013-03-11 00:49:00,35.1,23.8,29.79,WNW,283,10.1,11.0,63,0.00,,---,0.00,VWS V14.01,2013-03-11 06:49:00,
2013-03-11 00:50:00,35.2,23.5,29.79,NW,317,8.3,15.0,62,0.00,,---,0.00,VWS V14.01,2013-03-11 06:50:00,
2013-03-11 00:51:00,35.2,23.5,29.79,WSW,257,11.0,11.0,62,0.00,,---,0.00,VWS V14.01,2013-03-11 06:51:00,
2013-03-11 00:52:00,35.2,23.5,29.79,NW,313,8.3,13.2,62,0.00,,---,0.00,VWS V14.01,2013-03-11 06:52:00,
2013-03-11 00:53:00,35.2,23.1,29.79,West,278,10.5,12.8,61,0.00,,---,0.00,VWS V14.01,2013-03-11 06:53:00,
2013-03-11 00:54:00,35.2,23.1,29.79,NW,306,12.8,16.3,61,0.00,,---,0.00,VWS V14.01,2013-03-11 06:54:00,
2013-03-11 00:55:00,35.4,22.9,29.79,WNW,293,11.0,15.4,60,0.00,,---,0.00,VWS V14.01,2013-03-11 06:55:00,
2013-03-11 00:56:00,35.4,22.5,29.79,NW,312,8.1,12.8,59,0.00,,---,0.00,VWS V14.01,2013-03-11 06:56:00,
2013-03-11 00:57:00,35.4,22.5,29.79,SW,233,8.7,13.2,59,0.00,,---,0.00,VWS V14.01,2013-03-11 06:57:00,
2013-03-11 00:58:00,35.4,22.5,29.79,WNW,300,7.6,10.5,59,0.00,,---,0.00,VWS V14.01,2013-03-11 06:58:00,
2013-03-11 00:59:00,35.4,22.5,29.79,NW,309,9.2,13.2,59,0.00,,---,0.00,VWS V14.01,2013-03-11 06:59:00,
2013-03-11 01:00:00,35.4,22.5,29.79,WNW,292,15.0,15.0,59,0.00,,---,0.00,VWS V14.01,2013-03-11 07:00:00,
2013-03-11 01:01:00,35.4,22.1,29.79,NW,320,8.1,15.0,58,0.00,,---,0.00,VWS V14.01,2013-03-11 07:01:00,
2013-03-11 01:02:00,35.4,22.1,29.79,NW,310,5.4,11.0,58,0.00,,---,0.00,VWS V14.01,2013-03-11 07:02:00,
2013-03-11 01:03:00,35.4,22.1,29.79,WNW,299,8.7,12.8,58,0.00,,---,0.00,VWS V14.01,2013-03-11 07:03:00,
2013-03-11 01:04:00,35.4,22.1,29.79,WNW,286,12.3,15.4,58,0.00,,---,0.00,VWS V14.01,2013-03-11 07:04:00,
2013-03-11 01:05:00,35.4,22.1,29.82,West,275,8.7,13.2,58,0.00,,---,0.00,VWS V14.01,2013-03-11 07:05:00,
2013-03-11 01:06:00,35.4,22.1,29.82,NW,312,10.5,13.2,58,0.00,,---,0.00,VWS V14.01,2013-03-11 07:06:00,
2013-03-11 01:07:00,35.4,22.1,29.82,NW,308,10.5,12.3,58,0.00,,---,0.00,VWS V14.01,2013-03-11 07:07:00,
2013-03-11 01:08:00,35.4,22.1,29.82,West,261,10.1,14.1,58,0.00,,---,0.00,VWS V14.01,2013-03-11 07:08:00,
2013-03-11 01:09:00,35.4,22.1,29.82,NW,324,7.6,12.8,58,0.00,,---,0.00,VWS V14.01,2013-03-11 07:09:00,
2013-03-11 01:10:00,35.4,22.1,29.82,West,276,8.1,8.7,58,0.00,,---,0.00,VWS V14.01,2013-03-11 07:10:00,
2013-03-11 01:11:00,35.4,22.1,29.82,NW,304,8.1,14.5,58,0.00,,---,0.00,VWS V14.01,2013-03-11 07:11:00,
2013-03-11 01:12:00,35.4,22.1,29.82,WSW,251,12.3,14.5,58,0.00,,---,0.00,VWS V14.01,2013-03-11 07:12:00,
2013-03-11 01:13:00,35.4,22.1,29.82,NW,306,11.0,17.4,58,0.00,,---,0.00,VWS V14.01,2013-03-11 07:13:00,
2013-03-11 01:14:00,35.4,21.7,29.82,WNW,293,13.2,15.4,57,0.00,,---,0.00,VWS V14.01,2013-03-11 07:14:00,
2013-03-11 01:15:00,35.4,21.7,29.82,West,266,7.2,13.2,57,0.00,,---,0.00,VWS V14.01,2013-03-11 07:15:00,
2013-03-11 01:16:00,35.4,21.7,29.82,WNW,295,8.3,12.3,57,0.00,,---,0.00,VWS V14.01,2013-03-11 07:16:00,
2013-03-11 01:17:00,35.4,21.7,29.82,WSW,246,8.3,12.8,57,0.00,,---,0.00,VWS V14.01,2013-03-11 07:17:00,
2013-03-11 01:18:00,35.6,21.5,29.82,West,263,8.7,14.1,56,0.00,,---,0.00,VWS V14.01,2013-03-11 07:18:00,
2013-03-11 01:19:00,35.6,21.5,29.82,NW,314,8.7,19.7,56,0.00,,---,0.00,VWS V14.01,2013-03-11 07:19:00,
2013-03-11 01:20:00,35.6,21.0,29.82,WSW,257,15.4,15.9,55,0.00,,---,0.00,VWS V14.01,2013-03-11 07:20:00,
2013-03-11 01:21:00,35.6,21.0,29.82,NW,319,10.1,15.4,55,0.00,,---,0.00,VWS V14.01,2013-03-11 07:21:00,
2013-03-11 01:22:00,35.8,21.2,29.82,West,266,11.0,14.5,55,0.00,,---,0.00,VWS V14.01,2013-03-11 07:22:00,
2013-03-11 01:23:00,35.8,21.2,29.82,West,270,14.5,14.5,55,0.00,,---,0.00,VWS V14.01,2013-03-11 07:23:00,
2013-03-11 01:24:00,35.8,21.2,29.82,WNW,287,9.6,20.6,55,0.00,,---,0.00,VWS V14.01,2013-03-11 07:24:00,
2013-03-11 01:25:00,36.0,21.0,29.82,NW,319,8.7,14.1,54,0.00,,---,0.00,VWS V14.01,2013-03-11 07:25:00,
2013-03-11 01:26:00,36.0,21.0,29.82,WNW,295,10.1,11.4,54,0.00,,---,0.00,VWS V14.01,2013-03-11 07:26:00,
2013-03-11 01:27:00,36.0,21.0,29.82,West,263,10.5,11.0,54,0.00,,---,0.00,VWS V14.01,2013-03-11 07:27:00,
2013-03-11 01:28:00,36.0,21.0,29.82,WSW,241,8.3,10.5,54,0.00,,---,0.00,VWS V14.01,2013-03-11 07:28:00,
2013-03-11 01:29:00,35.8,20.8,29.82,West,279,13.2,15.9,54,0.00,,---,0.00,VWS V14.01,2013-03-11 07:29:00,
2013-03-11 01:30:00,35.8,20.8,29.82,West,263,10.5,13.2,54,0.00,,---,0.00,VWS V14.01,2013-03-11 07:30:00,
2013-03-11 01:31:00,35.8,20.8,29.82,WNW,282,10.1,12.8,54,0.00,,---,0.00,VWS V14.01,2013-03-11 07:31:00,
2013-03-11 01:32:00,35.8,20.8,29.82,WNW,286,10.1,10.5,54,0.00,,---,0.00,VWS V14.01,2013-03-11 07:32:00,
2013-03-11 01:33:00,35.8,20.8,29.82,NW,314,11.0,13.2,54,0.00,,---,0.00,VWS V14.01,2013-03-11 07:33:00,
2013-03-11 01:34:00,35.8,20.8,29.79,NW,318,12.8,14.1,54,0.00,,---,0.00,VWS V14.01,2013-03-11 07:34:00,
2013-03-11 01:35:00,35.8,20.8,29.79,WNW,294,8.7,13.2,54,0.00,,---,0.00,VWS V14.01,2013-03-11 07:35:00,
2013-03-11 01:36:00,35.8,20.8,29.79,WNW,297,8.3,10.5,54,0.00,,---,0.00,VWS V14.01,2013-03-11 07:36:00,
2013-03-11 01:37:00,35.8,20.8,29.79,NW,319,9.2,12.8,54,0.00,,---,0.00,VWS V14.01,2013-03-11 07:37:00,
2013-03-11 01:38:00,35.8,20.8,29.79,NW,316,8.1,9.2,54,0.00,,---,0.00,VWS V14.01,2013-03-11 07:38:00,
2013-03-11 01:39:00,35.8,20.8,29.79,West,263,8.1,8.1,54,0.00,,---,0.00,VWS V14.01,2013-03-11 07:39:00,
2013-03-11 01:40:00,35.8,21.2,29.79,NNW,330,5.8,11.0,55,0.00,,---,0.00,VWS V14.01,2013-03-11 07:40:00,
2013-03-11 01:41:00,35.8,21.2,29.79,WNW,303,8.7,12.3,55,0.00,,---,0.00,VWS V14.01,2013-03-11 07:41:00,
2013-03-11 01:42:00,35.6,21.0,29.79,WNW,301,5.8,12.3,55,0.00,,---,0.00,VWS V14.01,2013-03-11 07:42:00,
2013-03-11 01:43:00,35.6,21.0,29.79,SW,232,7.6,12.3,55,0.00,,---,0.00,VWS V14.01,2013-03-11 07:43:00,
2013-03-11 01:44:00,35.6,21.0,29.79,West,264,10.5,12.3,55,0.00,,---,0.00,VWS V14.01,2013-03-11 07:44:00,
2013-03-11 01:45:00,35.6,21.0,29.79,WNW,288,10.5,10.5,55,0.00,,---,0.00,VWS V14.01,2013-03-11 07:45:00,
2013-03-11 01:46:00,35.6,21.0,29.79,WNW,291,7.2,10.5,55,0.00,,---,0.00,VWS V14.01,2013-03-11 07:46:00,
2013-03-11 01:47:00,35.4,21.3,29.79,WNW,291,9.6,9.6,56,0.00,,---,0.00,VWS V14.01,2013-03-11 07:47:00,
2013-03-11 01:48:00,35.4,21.3,29.79,NW,304,9.2,11.0,56,0.00,,---,0.00,VWS V14.01,2013-03-11 07:48:00,
2013-03-11 01:49:00,35.4,21.3,29.79,WSW,257,8.3,9.2,56,0.00,,---,0.00,VWS V14.01,2013-03-11 07:49:00,
2013-03-11 01:50:00,35.4,21.3,29.82,WSW,254,7.6,10.1,56,0.00,,---,0.00,VWS V14.01,2013-03-11 07:50:00,
2013-03-11 01:51:00,35.4,21.3,29.82,WSW,251,10.1,10.1,56,0.00,,---,0.00,VWS V14.01,2013-03-11 07:51:00,
2013-03-11 01:52:00,35.4,21.3,29.82,SW,221,10.5,12.8,56,0.00,,---,0.00,VWS V14.01,2013-03-11 07:52:00,
2013-03-11 01:53:00,35.4,21.3,29.82,WNW,302,8.1,12.8,56,0.00,,---,0.00,VWS V14.01,2013-03-11 07:53:00,
2013-03-11 01:54:00,35.4,21.3,29.82,WNW,296,8.1,8.3,56,0.00,,---,0.00,VWS V14.01,2013-03-11 07:54:00,
2013-03-11 01:55:00,35.4,21.3,29.82,NW,313,8.3,12.3,56,0.00,,---,0.00,VWS V14.01,2013-03-11 07:55:00,
2013-03-11 01:56:00,35.4,21.3,29.82,WNW,293,10.5,10.5,56,0.00,,---,0.00,VWS V14.01,2013-03-11 07:56:00,
2013-03-11 01:57:00,35.4,21.3,29.82,WNW,299,8.1,11.0,56,0.00,,---,0.00,VWS V14.01,2013-03-11 07:57:00,
2013-03-11 01:58:00,35.4,21.3,29.82,WNW,296,10.5,13.2,56,0.00,,---,0.00,VWS V14.01,2013-03-11 07:58:00,
2013-03-11 01:59:00,35.6,21.0,29.82,WSW,247,9.6,12.8,55,0.00,,---,0.00,VWS V14.01,2013-03-11 07:59:00,
2013-03-11 02:00:00,35.6,21.0,29.82,West,277,8.1,12.3,55,0.00,,---,0.00,VWS V14.01,2013-03-11 08:00:00,
2013-03-11 02:01:00,35.6,21.0,29.82,WSW,246,8.7,8.7,55,0.00,,---,0.00,VWS V14.01,2013-03-11 08:01:00,
2013-03-11 02:02:00,35.6,21.0,29.82,WSW,237,10.5,15.0,55,0.00,,---,0.00,VWS V14.01,2013-03-11 08:02:00,
2013-03-11 02:03:00,35.6,21.0,29.82,WNW,292,10.1,11.0,55,0.00,,---,0.00,VWS V14.01,2013-03-11 08:03:00,
2013-03-11 02:04:00,35.6,21.0,29.82,WSW,244,6.3,13.2,55,0.00,,---,0.00,VWS V14.01,2013-03-11 08:04:00,
2013-03-11 02:05:00,35.6,21.0,29.82,WSW,253,11.0,11.0,55,0.00,,---,0.00,VWS V14.01,2013-03-11 08:05:00,
2013-03-11 02:06:00,35.6,21.0,29.82,West,280,8.1,11.0,55,0.00,,---,0.00,VWS V14.01,2013-03-11 08:06:00,
2013-03-11 02:07:00,35.6,21.0,29.82,WSW,253,10.5,10.5,55,0.00,,---,0.00,VWS V14.01,2013-03-11 08:07:00,
2013-03-11 02:08:00,35.6,21.0,29.82,SW,232,8.3,10.5,55,0.00,,---,0.00,VWS V14.01,2013-03-11 08:08:00,
2013-03-11 02:09:00,35.6,21.0,29.82,WSW,253,10.1,10.1,55,0.00,,---,0.00,VWS V14.01,2013-03-11 08:09:00,
2013-03-11 02:10:00,35.6,21.0,29.82,West,274,8.3,10.1,55,0.00,,---,0.00,VWS V14.01,2013-03-11 08:10:00,
2013-03-11 02:11:00,35.6,21.0,29.82,NW,305,8.7,8.7,55,0.00,,---,0.00,VWS V14.01,2013-03-11 08:11:00,
2013-03-11 02:12:00,35.4,20.9,29.82,WNW,289,7.6,10.5,55,0.00,,---,0.00,VWS V14.01,2013-03-11 08:12:00,
2013-03-11 02:13:00,35.4,20.9,29.82,NNW,330,5.8,8.7,55,0.00,,---,0.00,VWS V14.01,2013-03-11 08:13:00,
2013-03-11 02:14:00,35.4,20.9,29.82,West,271,11.0,11.0,55,0.00,,---,0.00,VWS V14.01,2013-03-11 08:14:00,
2013-03-11 02:15:00,35.4,20.9,29.82,NW,305,12.8,12.8,55,0.00,,---,0.00,VWS V14.01,2013-03-11 08:15:00,
2013-03-11 02:16:00,35.4,20.9,29.82,West,276,8.3,12.8,55,0.00,,---,0.00,VWS V14.01,2013-03-11 08:16:00,
2013-03-11 02:17:00,35.4,20.9,29.82,West,267,8.7,10.5,55,0.00,,---,0.00,VWS V14.01,2013-03-11 08:17:00,
2013-03-11 02:18:00,35.4,20.9,29.82,WSW,250,8.1,11.0,55,0.00,,---,0.00,VWS V14.01,2013-03-11 08:18:00,
2013-03-11 02:19:00,35.4,20.9,29.82,West,259,10.1,11.0,55,0.00,,---,0.00,VWS V14.01,2013-03-11 08:19:00,
2013-03-11 02:20:00,35.6,21.0,29.82,WNW,299,8.7,11.9,55,0.00,,---,0.00,VWS V14.01,2013-03-11 08:20:00,
2013-03-11 02:21:00,35.6,21.0,29.82,WSW,245,10.5,10.5,55,0.00,,---,0.00,VWS V14.01,2013-03-11 08:21:00,
2013-03-11 02:22:00,35.6,21.0,29.82,West,277,8.1,10.5,55,0.00,,---,0.00,VWS V14.01,2013-03-11 08:22:00,
2013-03-11 02:23:00,35.6,20.6,29.82,WNW,292,7.2,8.7,54,0.00,,---,0.00,VWS V14.01,2013-03-11 08:23:00,
2013-03-11 02:24:00,35.6,20.6,29.82,WNW,282,5.4,8.3,54,0.00,,---,0.00,VWS V14.01,2013-03-11 08:24:00,
2013-03-11 02:25:00,35.6,20.6,29.82,West,266,9.2,10.1,54,0.00,,---,0.00,VWS V14.01,2013-03-11 08:25:00,
2013-03-11 02:26:00,35.6,20.6,29.82,WSW,256,7.6,11.0,54,0.00,,---,0.00,VWS V14.01,2013-03-11 08:26:00,
2013-03-11 02:27:00,35.6,20.6,29.82,West,261,10.5,10.5,54,0.00,,---,0.00,VWS V14.01,2013-03-11 08:27:00,
2013-03-11 02:28:00,35.6,20.6,29.82,West,265,7.6,10.5,54,0.00,,---,0.00,VWS V14.01,2013-03-11 08:28:00,
2013-03-11 02:29:00,35.6,20.6,29.82,West,265,13.2,13.2,54,0.00,,---,0.00,VWS V14.01,2013-03-11 08:29:00,
2013-03-11 02:30:00,35.6,20.6,29.82,West,266,8.3,13.2,54,0.00,,---,0.00,VWS V14.01,2013-03-11 08:30:00,
2013-03-11 02:31:00,35.6,20.6,29.82,WNW,284,11.0,12.8,54,0.00,,---,0.00,VWS V14.01,2013-03-11 08:31:00,
2013-03-11 02:32:00,35.6,20.6,29.82,WSW,256,10.1,15.0,54,0.00,,---,0.00,VWS V14.01,2013-03-11 08:32:00,
2013-03-11 02:33:00,35.6,20.6,29.82,WSW,252,8.1,11.0,54,0.00,,---,0.00,VWS V14.01,2013-03-11 08:33:00,
2013-03-11 02:34:00,35.6,20.6,29.82,WSW,240,15.0,17.4,54,0.00,,---,0.00,VWS V14.01,2013-03-11 08:34:00,
2013-03-11 02:35:00,35.6,20.6,29.79,West,278,10.5,15.0,54,0.00,,---,0.00,VWS V14.01,2013-03-11 08:35:00,
2013-03-11 02:36:00,35.8,20.8,29.79,West,281,8.1,10.5,54,0.00,,---,0.00,VWS V14.01,2013-03-11 08:36:00,
2013-03-11 02:37:00,35.8,20.8,29.79,WNW,290,8.3,12.8,54,0.00,,---,0.00,VWS V14.01,2013-03-11 08:37:00,
2013-03-11 02:38:00,35.8,20.8,29.79,West,264,8.1,8.3,54,0.00,,---,0.00,VWS V14.01,2013-03-11 08:38:00,
2013-03-11 02:39:00,35.8,20.3,29.79,NNW,327,13.2,13.2,53,0.00,,---,0.00,VWS V14.01,2013-03-11 08:39:00,
2013-03-11 02:40:00,35.8,20.3,29.79,West,281,13.2,15.4,53,0.00,,---,0.00,VWS V14.01,2013-03-11 08:40:00,
2013-03-11 02:41:00,35.8,20.3,29.79,NW,318,8.3,13.2,53,0.00,,---,0.00,VWS V14.01,2013-03-11 08:41:00,
2013-03-11 02:42:00,35.8,20.3,29.79,West,274,11.0,17.0,53,0.00,,---,0.00,VWS V14.01,2013-03-11 08:42:00,
2013-03-11 02:43:00,35.8,20.3,29.79,West,273,13.2,13.2,53,0.00,,---,0.00,VWS V14.01,2013-03-11 08:43:00,
2013-03-11 02:44:00,35.8,20.3,29.79,WNW,284,8.3,13.2,53,0.00,,---,0.00,VWS V14.01,2013-03-11 08:44:00,
2013-03-11 02:45:00,35.8,20.3,29.79,West,279,11.0,11.4,53,0.00,,---,0.00,VWS V14.01,2013-03-11 08:45:00,
2013-03-11 02:46:00,35.8,20.3,29.79,NW,315,8.1,13.2,53,0.00,,---,0.00,VWS V14.01,2013-03-11 08:46:00,
2013-03-11 02:47:00,35.8,19.9,29.79,WSW,248,7.6,12.3,52,0.00,,---,0.00,VWS V14.01,2013-03-11 08:47:00,
2013-03-11 02:48:00,35.8,19.9,29.79,West,268,8.7,8.7,52,0.00,,---,0.00,VWS V14.01,2013-03-11 08:48:00,
2013-03-11 02:49:00,35.8,19.9,29.82,West,281,7.6,13.2,52,0.00,,---,0.00,VWS V14.01,2013-03-11 08:49:00,
2013-03-11 02:50:00,35.8,19.9,29.82,WSW,245,10.5,10.5,52,0.00,,---,0.00,VWS V14.01,2013-03-11 08:50:00,
2013-03-11 02:51:00,35.8,19.9,29.82,West,278,11.9,11.9,52,0.00,,---,0.00,VWS V14.01,2013-03-11 08:51:00,
2013-03-11 02:52:00,35.8,19.9,29.82,West,269,11.4,11.9,52,0.00,,---,0.00,VWS V14.01,2013-03-11 08:52:00,
2013-03-11 02:53:00,35.8,19.9,29.82,WSW,247,8.7,13.2,52,0.00,,---,0.00,VWS V14.01,2013-03-11 08:53:00,
2013-03-11 02:54:00,35.8,19.9,29.82,West,263,12.3,12.3,52,0.00,,---,0.00,VWS V14.01,2013-03-11 08:54:00,
2013-03-11 02:55:00,35.8,19.9,29.82,West,260,13.6,13.6,52,0.00,,---,0.00,VWS V14.01,2013-03-11 08:55:00,
2013-03-11 02:56:00,35.8,19.9,29.82,West,272,12.3,15.0,52,0.00,,---,0.00,VWS V14.01,2013-03-11 08:56:00,
2013-03-11 02:57:00,35.8,19.9,29.82,West,264,11.4,14.1,52,0.00,,---,0.00,VWS V14.01,2013-03-11 08:57:00,
2013-03-11 02:58:00,35.8,19.9,29.82,WNW,299,9.2,13.2,52,0.00,,---,0.00,VWS V14.01,2013-03-11 08:58:00,
2013-03-11 02:59:00,35.8,19.9,29.82,West,261,11.0,11.0,52,0.00,,---,0.00,VWS V14.01,2013-03-11 08:59:00,
2013-03-11 03:00:00,35.8,19.9,29.82,WSW,258,7.6,11.0,52,0.00,,---,0.00,VWS V14.01,2013-03-11 09:00:00,
2013-03-11 03:01:00,35.8,19.9,29.82,West,270,5.8,15.0,52,0.00,,---,0.00,VWS V14.01,2013-03-11 09:01:00,
2013-03-11 03:02:00,36.0,20.1,29.82,WNW,295,10.5,13.2,52,0.00,,---,0.00,VWS V14.01,2013-03-11 09:02:00,
2013-03-11 03:03:00,36.0,20.1,29.82,WSW,247,8.1,11.0,52,0.00,,---,0.00,VWS V14.01,2013-03-11 09:03:00,
2013-03-11 03:04:00,36.0,20.1,29.82,West,281,8.7,10.5,52,0.00,,---,0.00,VWS V14.01,2013-03-11 09:04:00,
2013-03-11 03:05:00,36.0,20.1,29.82,NW,323,5.8,12.8,52,0.00,,---,0.00,VWS V14.01,2013-03-11 09:05:00,
2013-03-11 03:06:00,36.0,20.1,29.82,WNW,283,8.3,11.0,52,0.00,,---,0.00,VWS V14.01,2013-03-11 09:06:00,
2013-03-11 03:07:00,36.0,20.1,29.82,West,278,7.6,12.8,52,0.00,,---,0.00,VWS V14.01,2013-03-11 09:07:00,
2013-03-11 03:08:00,36.0,20.1,29.82,WNW,283,5.8,12.8,52,0.00,,---,0.00,VWS V14.01,2013-03-11 09:08:00,
2013-03-11 03:09:00,36.0,20.1,29.82,West,279,8.7,12.3,52,0.00,,---,0.00,VWS V14.01,2013-03-11 09:09:00,
2013-03-11 03:10:00,36.0,20.1,29.82,West,277,6.3,11.0,52,0.00,,---,0.00,VWS V14.01,2013-03-11 09:10:00,
2013-03-11 03:11:00,35.8,19.9,29.82,NW,309,5.8,10.1,52,0.00,,---,0.00,VWS V14.01,2013-03-11 09:11:00,
2013-03-11 03:12:00,35.8,19.9,29.82,NW,318,9.6,9.6,52,0.00,,---,0.00,VWS V14.01,2013-03-11 09:12:00,
2013-03-11 03:13:00,35.8,19.9,29.82,West,268,8.3,9.6,52,0.00,,---,0.00,VWS V14.01,2013-03-11 09:13:00,
2013-03-11 03:14:00,35.8,19.9,29.82,SW,227,8.7,8.7,52,0.00,,---,0.00,VWS V14.01,2013-03-11 09:14:00,
2013-03-11 03:15:00,35.8,19.9,29.82,WSW,254,5.8,10.5,52,0.00,,---,0.00,VWS V14.01,2013-03-11 09:15:00,
2013-03-11 03:16:00,35.8,19.9,29.82,West,279,8.7,10.5,52,0.00,,---,0.00,VWS V14.01,2013-03-11 09:16:00,
2013-03-11 03:17:00,35.8,19.9,29.82,WSW,253,7.6,10.5,52,0.00,,---,0.00,VWS V14.01,2013-03-11 09:17:00,
2013-03-11 03:18:00,35.8,19.9,29.82,West,278,5.8,7.6,52,0.00,,---,0.00,VWS V14.01,2013-03-11 09:18:00,
2013-03-11 03:19:00,35.6,20.2,29.82,West,274,11.0,11.0,53,0.00,,---,0.00,VWS V14.01,2013-03-11 09:19:00,
2013-03-11 03:20:00,35.6,20.2,29.82,WSW,251,7.6,11.0,53,0.00,,---,0.00,VWS V14.01,2013-03-11 09:20:00,
2013-03-11 03:21:00,35.6,20.2,29.82,WNW,295,8.1,11.0,53,0.00,,---,0.00,VWS V14.01,2013-03-11 09:21:00,
2013-03-11 03:22:00,35.6,20.2,29.82,West,269,6.3,12.8,53,0.00,,---,0.00,VWS V14.01,2013-03-11 09:22:00,
2013-03-11 03:23:00,35.6,20.2,29.82,WSW,258,5.4,8.1,53,0.00,,---,0.00,VWS V14.01,2013-03-11 09:23:00,
2013-03-11 03:24:00,35.6,20.2,29.82,West,259,4.0,7.6,53,0.00,,---,0.00,VWS V14.01,2013-03-11 09:24:00,
2013-03-11 03:25:00,35.6,20.6,29.82,WNW,295,5.8,5.8,54,0.00,,---,0.00,VWS V14.01,2013-03-11 09:25:00,
2013-03-11 03:26:00,35.4,20.4,29.82,NW,311,8.3,8.3,54,0.00,,---,0.00,VWS V14.01,2013-03-11 09:26:00,
2013-03-11 03:27:00,35.4,20.9,29.82,West,270,4.0,8.3,55,0.00,,---,0.00,VWS V14.01,2013-03-11 09:27:00,
2013-03-11 03:28:00,35.4,20.9,29.82,WNW,282,6.3,8.7,55,0.00,,---,0.00,VWS V14.01,2013-03-11 09:28:00,
2013-03-11 03:29:00,35.2,20.7,29.82,West,265,8.1,8.1,55,0.00,,---,0.00,VWS V14.01,2013-03-11 09:29:00,
2013-03-11 03:30:00,35.1,21.0,29.82,NW,310,5.8,8.1,56,0.00,,---,0.00,VWS V14.01,2013-03-11 09:30:00,
2013-03-11 03:31:00,35.1,21.0,29.82,WNW,299,5.8,5.8,56,0.00,,---,0.00,VWS V14.01,2013-03-11 09:31:00,
2013-03-11 03:32:00,35.1,21.0,29.82,West,263,5.8,6.3,56,0.00,,---,0.00,VWS V14.01,2013-03-11 09:32:00,
2013-03-11 03:33:00,34.9,20.8,29.82,WSW,251,8.1,8.1,56,0.00,,---,0.00,VWS V14.01,2013-03-11 09:33:00,
2013-03-11 03:34:00,34.9,21.2,29.82,West,263,5.4,8.7,57,0.00,,---,0.00,VWS V14.01,2013-03-11 09:34:00,
2013-03-11 03:35:00,34.7,21.0,29.82,West,268,4.0,8.1,57,0.00,,---,0.00,VWS V14.01,2013-03-11 09:35:00,
2013-03-11 03:36:00,34.7,21.5,29.82,West,265,5.4,5.8,58,0.00,,---,0.00,VWS V14.01,2013-03-11 09:36:00,
2013-03-11 03:37:00,34.7,21.5,29.82,WNW,301,5.8,8.1,58,0.00,,---,0.00,VWS V14.01,2013-03-11 09:37:00,
2013-03-11 03:38:00,34.7,21.5,29.82,West,281,5.4,5.8,58,0.00,,---,0.00,VWS V14.01,2013-03-11 09:38:00,
2013-03-11 03:39:00,34.5,21.7,29.82,WNW,302,6.3,8.1,59,0.00,,---,0.00,VWS V14.01,2013-03-11 09:39:00,
2013-03-11 03:40:00,34.5,21.7,29.82,WNW,290,5.4,6.3,59,0.00,,---,0.00,VWS V14.01,2013-03-11 09:40:00,
2013-03-11 03:41:00,34.5,21.7,29.82,WNW,291,7.2,8.3,59,0.00,,---,0.00,VWS V14.01,2013-03-11 09:41:00,
2013-03-11 03:42:00,34.5,21.7,29.82,NW,326,6.3,7.2,59,0.00,,---,0.00,VWS V14.01,2013-03-11 09:42:00,
2013-03-11 03:43:00,34.7,21.9,29.82,WNW,298,6.3,7.6,59,0.00,,---,0.00,VWS V14.01,2013-03-11 09:43:00,
2013-03-11 03:44:00,34.7,21.9,29.82,WNW,285,7.6,8.7,59,0.00,,---,0.00,VWS V14.01,2013-03-11 09:44:00,
2013-03-11 03:45:00,34.7,21.9,29.82,WSW,249,6.3,8.3,59,0.00,,---,0.00,VWS V14.01,2013-03-11 09:45:00,
2013-03-11 03:46:00,34.9,22.0,29.82,West,267,8.3,8.3,59,0.00,,---,0.00,VWS V14.01,2013-03-11 09:46:00,
2013-03-11 03:47:00,34.9,22.0,29.82,West,262,8.3,8.3,59,0.00,,---,0.00,VWS V14.01,2013-03-11 09:47:00,
2013-03-11 03:48:00,34.9,21.6,29.82,NW,324,5.4,10.1,58,0.00,,---,0.00,VWS V14.01,2013-03-11 09:48:00,
2013-03-11 03:49:00,34.9,21.6,29.82,WNW,299,4.9,5.8,58,0.00,,---,0.00,VWS V14.01,2013-03-11 09:49:00,
2013-03-11 03:50:00,34.9,22.0,29.82,NW,314,5.8,5.8,59,0.00,,---,0.00,VWS V14.01,2013-03-11 09:50:00,
2013-03-11 03:51:00,34.9,22.0,29.82,NW,308,5.8,6.3,59,0.00,,---,0.00,VWS V14.01,2013-03-11 09:51:00,
2013-03-11 03:52:00,34.7,21.9,29.82,NW,304,8.7,8.7,59,0.00,,---,0.00,VWS V14.01,2013-03-11 09:52:00,
2013-03-11 03:53:00,34.5,22.1,29.82,WNW,302,6.3,8.7,60,0.00,,---,0.00,VWS V14.01,2013-03-11 09:53:00,
2013-03-11 03:54:00,34.5,22.1,29.82,NW,305,8.1,8.1,60,0.00,,---,0.00,VWS V14.01,2013-03-11 09:54:00,
2013-03-11 03:55:00,34.5,22.1,29.82,WNW,294,5.8,8.1,60,0.00,,---,0.00,VWS V14.01,2013-03-11 09:55:00,
2013-03-11 03:56:00,34.3,22.3,29.82,WNW,302,6.3,6.3,61,0.00,,---,0.00,VWS V14.01,2013-03-11 09:56:00,
2013-03-11 03:57:00,34.3,22.3,29.82,WNW,298,7.2,7.2,61,0.00,,---,0.00,VWS V14.01,2013-03-11 09:57:00,
2013-03-11 03:58:00,34.3,22.3,29.82,NW,318,6.3,10.1,61,0.00,,---,0.00,VWS V14.01,2013-03-11 09:58:00,
2013-03-11 03:59:00,34.2,22.5,29.82,WNW,297,5.4,6.3,62,0.00,,---,0.00,VWS V14.01,2013-03-11 09:59:00,
2013-03-11 04:00:00,34.2,22.5,29.82,WNW,297,6.3,8.1,62,0.00,,---,0.00,VWS V14.01,2013-03-11 10:00:00,
2013-03-11 04:01:00,34.0,22.4,29.82,NW,307,5.8,8.3,62,0.00,,---,0.00,VWS V14.01,2013-03-11 10:01:00,
2013-03-11 04:02:00,34.0,22.4,29.82,WNW,298,5.8,5.8,62,0.00,,---,0.00,VWS V14.01,2013-03-11 10:02:00,
2013-03-11 04:03:00,34.0,22.4,29.82,WNW,295,5.4,5.8,62,0.00,,---,0.00,VWS V14.01,2013-03-11 10:03:00,
2013-03-11 04:04:00,34.0,22.7,29.82,NW,309,3.1,8.1,63,0.00,,---,0.00,VWS V14.01,2013-03-11 10:04:00,
2013-03-11 04:05:00,34.0,22.7,29.79,WNW,293,5.8,6.3,63,0.00,,---,0.00,VWS V14.01,2013-03-11 10:05:00,
2013-03-11 04:06:00,33.8,22.6,29.79,WNW,302,6.3,8.3,63,0.00,,---,0.00,VWS V14.01,2013-03-11 10:06:00,
2013-03-11 04:07:00,33.8,22.6,29.79,NW,309,3.1,6.3,63,0.00,,---,0.00,VWS V14.01,2013-03-11 10:07:00,
2013-03-11 04:08:00,33.8,22.6,29.79,WNW,290,4.0,6.3,63,0.00,,---,0.00,VWS V14.01,2013-03-11 10:08:00,
2013-03-11 04:09:00,33.8,22.2,29.79,NW,307,4.0,5.4,62,0.00,,---,0.00,VWS V14.01,2013-03-11 10:09:00,
2013-03-11 04:10:00,33.8,22.2,29.79,NW,312,3.6,5.8,62,0.00,,---,0.00,VWS V14.01,2013-03-11 10:10:00,
2013-03-11 04:11:00,33.8,22.2,29.79,NNW,328,5.4,8.7,62,0.00,,---,0.00,VWS V14.01,2013-03-11 10:11:00,
2013-03-11 04:12:00,33.8,22.2,29.79,WNW,287,5.8,8.1,62,0.00,,---,0.00,VWS V14.01,2013-03-11 10:12:00,
2013-03-11 04:13:00,33.8,22.2,29.79,WNW,302,5.8,8.7,62,0.00,,---,0.00,VWS V14.01,2013-03-11 10:13:00,
2013-03-11 04:14:00,34.0,22.4,29.79,WNW,293,8.3,8.3,62,0.00,,---,0.00,VWS V14.01,2013-03-11 10:14:00,
2013-03-11 04:15:00,34.0,22.4,29.79,WNW,303,4.0,5.4,62,0.00,,---,0.00,VWS V14.01,2013-03-11 10:15:00,
2013-03-11 04:16:00,34.0,22.4,29.79,WNW,285,3.1,4.0,62,0.00,,---,0.00,VWS V14.01,2013-03-11 10:16:00,
2013-03-11 04:17:00,34.0,22.4,29.79,NW,305,6.3,6.3,62,0.00,,---,0.00,VWS V14.01,2013-03-11 10:17:00,
2013-03-11 04:18:00,34.0,22.4,29.79,NW,307,5.8,6.3,62,0.00,,---,0.00,VWS V14.01,2013-03-11 10:18:00,
2013-03-11 04:19:00,34.0,22.0,29.79,WSW,254,5.4,6.3,61,0.00,,---,0.00,VWS V14.01,2013-03-11 10:19:00,
2013-03-11 04:20:00,34.0,22.0,29.79,NW,308,8.3,8.7,61,0.00,,---,0.00,VWS V14.01,2013-03-11 10:20:00,
2013-03-11 04:21:00,34.0,22.0,29.79,WNW,288,8.1,8.3,61,0.00,,---,0.00,VWS V14.01,2013-03-11 10:21:00,
2013-03-11 04:22:00,34.0,22.0,29.79,WNW,283,7.6,8.7,61,0.00,,---,0.00,VWS V14.01,2013-03-11 10:22:00,
2013-03-11 04:23:00,34.0,22.0,29.79,NW,318,8.1,8.7,61,0.00,,---,0.00,VWS V14.01,2013-03-11 10:23:00,
2013-03-11 04:24:00,34.0,22.0,29.79,WSW,242,7.2,7.2,61,0.00,,---,0.00,VWS V14.01,2013-03-11 10:24:00,
2013-03-11 04:25:00,34.2,21.7,29.79,West,281,7.6,8.3,60,0.00,,---,0.00,VWS V14.01,2013-03-11 10:25:00,
2013-03-11 04:26:00,34.2,21.7,29.79,WNW,302,6.7,8.3,60,0.00,,---,0.00,VWS V14.01,2013-03-11 10:26:00,
2013-03-11 04:27:00,34.2,21.7,29.79,NW,311,6.3,8.3,60,0.00,,---,0.00,VWS V14.01,2013-03-11 10:27:00,
2013-03-11 04:28:00,34.2,21.7,29.79,NW,308,5.4,8.7,60,0.00,,---,0.00,VWS V14.01,2013-03-11 10:28:00,
2013-03-11 04:29:00,34.2,21.7,29.79,WNW,285,5.8,6.3,60,0.00,,---,0.00,VWS V14.01,2013-03-11 10:29:00,
2013-03-11 04:30:00,34.3,21.5,29.79,WNW,282,5.8,8.3,59,0.00,,---,0.00,VWS V14.01,2013-03-11 10:30:00,
2013-03-11 04:31:00,34.3,21.5,29.79,NW,307,6.3,9.6,59,0.00,,---,0.00,VWS V14.01,2013-03-11 10:31:00,
2013-03-11 04:32:00,34.3,21.5,29.79,WNW,291,5.4,8.3,59,0.00,,---,0.00,VWS V14.01,2013-03-11 10:32:00,
2013-03-11 04:33:00,34.3,21.5,29.79,West,272,4.0,6.3,59,0.00,,---,0.00,VWS V14.01,2013-03-11 10:33:00,
2013-03-11 04:34:00,34.3,21.1,29.79,WNW,302,4.9,8.1,58,0.00,,---,0.00,VWS V14.01,2013-03-11 10:34:00,
2013-03-11 04:35:00,34.5,21.3,29.79,West,261,5.4,5.8,58,0.00,,---,0.00,VWS V14.01,2013-03-11 10:35:00,
2013-03-11 04:36:00,34.5,21.3,29.79,West,274,6.3,6.7,58,0.00,,---,0.00,VWS V14.01,2013-03-11 10:36:00,
2013-03-11 04:37:00,34.5,21.3,29.79,WNW,284,5.8,8.1,58,0.00,,---,0.00,VWS V14.01,2013-03-11 10:37:00,
2013-03-11 04:38:00,34.5,21.3,29.79,WSW,253,5.4,5.8,58,0.00,,---,0.00,VWS V14.01,2013-03-11 10:38:00,
2013-03-11 04:39:00,34.5,21.3,29.79,WNW,302,5.8,7.6,58,0.00,,---,0.00,VWS V14.01,2013-03-11 10:39:00,
2013-03-11 04:40:00,34.5,21.3,29.79,WNW,294,5.8,5.8,58,0.00,,---,0.00,VWS V14.01,2013-03-11 10:40:00,
2013-03-11 04:41:00,34.5,21.3,29.79,NW,307,7.6,8.7,58,0.00,,---,0.00,VWS V14.01,2013-03-11 10:41:00,
2013-03-11 04:42:00,34.5,21.3,29.79,WNW,297,6.3,7.6,58,0.00,,---,0.00,VWS V14.01,2013-03-11 10:42:00,
2013-03-11 04:43:00,34.5,21.3,29.79,West,274,5.4,6.3,58,0.00,,---,0.00,VWS V14.01,2013-03-11 10:43:00,
2013-03-11 04:44:00,34.5,21.3,29.79,West,271,5.8,7.6,58,0.00,,---,0.00,VWS V14.01,2013-03-11 10:44:00,
2013-03-11 04:45:00,34.5,21.3,29.79,West,281,4.0,5.8,58,0.00,,---,0.00,VWS V14.01,2013-03-11 10:45:00,
2013-03-11 04:46:00,34.5,21.3,29.79,West,267,5.8,5.8,58,0.00,,---,0.00,VWS V14.01,2013-03-11 10:46:00,
2013-03-11 04:47:00,34.5,21.3,29.79,WNW,297,4.0,7.2,58,0.00,,---,0.00,VWS V14.01,2013-03-11 10:47:00,
2013-03-11 04:48:00,34.5,21.3,29.79,West,267,3.1,6.3,58,0.00,,---,0.00,VWS V14.01,2013-03-11 10:48:00,
2013-03-11 04:49:00,34.3,21.1,29.79,West,277,3.6,3.6,58,0.00,,---,0.00,VWS V14.01,2013-03-11 10:49:00,
2013-03-11 04:50:00,34.3,21.1,29.79,NW,304,5.4,8.1,58,0.00,,---,0.00,VWS V14.01,2013-03-11 10:50:00,
2013-03-11 04:51:00,34.3,21.5,29.79,West,267,4.0,5.4,59,0.00,,---,0.00,VWS V14.01,2013-03-11 10:51:00,
2013-03-11 04:52:00,34.3,21.5,29.79,WSW,242,5.8,5.8,59,0.00,,---,0.00,VWS V14.01,2013-03-11 10:52:00,
2013-03-11 04:53:00,34.3,21.5,29.79,WSW,256,5.8,6.3,59,0.00,,---,0.00,VWS V14.01,2013-03-11 10:53:00,
2013-03-11 04:54:00,34.3,21.5,29.79,West,259,5.8,5.8,59,0.00,,---,0.00,VWS V14.01,2013-03-11 10:54:00,
2013-03-11 04:55:00,34.3,21.5,29.79,West,271,3.6,5.8,59,0.00,,---,0.00,VWS V14.01,2013-03-11 10:55:00,
2013-03-11 04:56:00,34.3,21.5,29.79,NW,308,4.9,5.4,59,0.00,,---,0.00,VWS V14.01,2013-03-11 10:56:00,
2013-03-11 04:57:00,34.3,21.5,29.79,West,264,5.4,6.3,59,0.00,,---,0.00,VWS V14.01,2013-03-11 10:57:00,
2013-03-11 04:58:00,34.3,21.5,29.79,WNW,290,4.0,5.4,59,0.00,,---,0.00,VWS V14.01,2013-03-11 10:58:00,
2013-03-11 04:59:00,34.3,21.1,29.79,WNW,300,4.0,6.3,58,0.00,,---,0.00,VWS V14.01,2013-03-11 10:59:00,
2013-03-11 05:00:00,34.5,21.3,29.79,West,265,4.0,5.8,58,0.00,,---,0.00,VWS V14.01,2013-03-11 11:00:00,
2013-03-11 05:01:00,34.5,21.3,29.79,West,276,4.9,5.4,58,0.00,,---,0.00,VWS V14.01,2013-03-11 11:01:00,
2013-03-11 05:02:00,34.5,21.3,29.79,West,281,3.1,4.9,58,0.00,,---,0.00,VWS V14.01,2013-03-11 11:02:00,
2013-03-11 05:03:00,34.5,20.9,29.79,NW,317,4.9,5.4,57,0.00,,---,0.00,VWS V14.01,2013-03-11 11:03:00,
2013-03-11 05:04:00,34.5,20.9,29.79,WNW,299,4.0,4.9,57,0.00,,---,0.00,VWS V14.01,2013-03-11 11:04:00,
2013-03-11 05:05:00,34.7,21.0,29.79,West,276,3.1,4.0,57,0.00,,---,0.00,VWS V14.01,2013-03-11 11:05:00,
2013-03-11 05:06:00,34.7,21.0,29.79,WNW,288,6.7,7.6,57,0.00,,---,0.00,VWS V14.01,2013-03-11 11:06:00,
2013-03-11 05:07:00,34.7,21.0,29.79,West,279,3.1,6.7,57,0.00,,---,0.00,VWS V14.01,2013-03-11 11:07:00,
2013-03-11 05:08:00,34.7,21.0,29.79,WNW,297,4.0,6.3,57,0.00,,---,0.00,VWS V14.01,2013-03-11 11:08:00,
2013-03-11 05:09:00,34.7,21.0,29.79,WNW,290,4.0,5.4,57,0.00,,---,0.00,VWS V14.01,2013-03-11 11:09:00,
2013-03-11 05:10:00,34.7,21.0,29.79,WSW,249,2.7,4.0,57,0.00,,---,0.00,VWS V14.01,2013-03-11 11:10:00,
2013-03-11 05:11:00,34.7,21.0,29.79,West,263,4.9,5.4,57,0.00,,---,0.00,VWS V14.01,2013-03-11 11:11:00,
2013-03-11 05:12:00,34.7,21.0,29.79,WNW,301,4.9,6.3,57,0.00,,---,0.00,VWS V14.01,2013-03-11 11:12:00,
2013-03-11 05:13:00,34.7,21.0,29.79,WNW,284,5.4,8.1,57,0.00,,---,0.00,VWS V14.01,2013-03-11 11:13:00,
2013-03-11 05:14:00,34.7,21.0,29.79,WNW,299,3.6,5.4,57,0.00,,---,0.00,VWS V14.01,2013-03-11 11:14:00,
2013-03-11 05:15:00,34.7,21.0,29.79,West,280,4.9,6.3,57,0.00,,---,0.00,VWS V14.01,2013-03-11 11:15:00,
2013-03-11 05:16:00,34.7,21.0,29.79,WNW,288,4.0,5.8,57,0.00,,---,0.00,VWS V14.01,2013-03-11 11:16:00,
2013-03-11 05:17:00,34.7,21.0,29.79,WNW,290,3.6,5.8,57,0.00,,---,0.00,VWS V14.01,2013-03-11 11:17:00,
2013-03-11 05:18:00,34.7,20.6,29.79,NW,323,5.4,5.4,56,0.00,,---,0.00,VWS V14.01,2013-03-11 11:18:00,
2013-03-11 05:19:00,34.9,20.8,29.79,NW,304,5.4,8.1,56,0.00,,---,0.00,VWS V14.01,2013-03-11 11:19:00,
2013-03-11 05:20:00,34.9,20.8,29.79,NW,307,5.8,5.8,56,0.00,,---,0.00,VWS V14.01,2013-03-11 11:20:00,
2013-03-11 05:21:00,34.9,20.8,29.79,WNW,293,5.4,6.3,56,0.00,,---,0.00,VWS V14.01,2013-03-11 11:21:00,
2013-03-11 05:22:00,34.9,20.8,29.79,WNW,298,2.2,6.3,56,0.00,,---,0.00,VWS V14.01,2013-03-11 11:22:00,
2013-03-11 05:23:00,35.1,21.0,29.79,WNW,302,4.0,4.9,56,0.00,,---,0.00,VWS V14.01,2013-03-11 11:23:00,
2013-03-11 05:24:00,35.1,21.0,29.79,WNW,301,5.4,5.4,56,0.00,,---,0.00,VWS V14.01,2013-03-11 11:24:00,
2013-03-11 05:25:00,35.1,21.0,29.79,NW,307,3.1,5.4,56,0.00,,---,0.00,VWS V14.01,2013-03-11 11:25:00,
2013-03-11 05:26:00,35.1,21.0,29.79,WSW,246,2.7,4.0,56,0.00,,---,0.00,VWS V14.01,2013-03-11 11:26:00,
2013-03-11 05:27:00,35.1,21.0,29.79,WNW,293,4.0,5.4,56,0.00,,---,0.00,VWS V14.01,2013-03-11 11:27:00,
2013-03-11 05:28:00,34.9,20.8,29.79,NW,313,5.8,6.3,56,0.00,,---,0.00,VWS V14.01,2013-03-11 11:28:00,
2013-03-11 05:29:00,34.9,20.8,29.79,WNW,301,13.2,13.2,56,0.00,,---,0.00,VWS V14.01,2013-03-11 11:29:00,
2013-03-11 05:30:00,35.1,20.1,29.79,West,274,8.3,8.7,54,0.00,,---,0.00,VWS V14.01,2013-03-11 11:30:00,
2013-03-11 05:31:00,35.2,20.3,29.79,WSW,241,11.0,11.0,54,0.00,,---,0.00,VWS V14.01,2013-03-11 11:31:00,
2013-03-11 05:32:00,35.2,20.3,29.79,WNW,285,6.3,11.0,54,0.00,,---,0.00,VWS V14.01,2013-03-11 11:32:00,
2013-03-11 05:33:00,35.4,20.0,29.79,WNW,303,6.3,10.1,53,0.00,,---,0.00,VWS V14.01,2013-03-11 11:33:00,
2013-03-11 05:34:00,35.4,20.0,29.79,WNW,283,6.3,6.3,53,0.00,,---,0.00,VWS V14.01,2013-03-11 11:34:00,
2013-03-11 05:35:00,35.4,20.0,29.79,WSW,251,6.3,8.3,53,0.00,,---,0.00,VWS V14.01,2013-03-11 11:35:00,
2013-03-11 05:36:00,35.4,20.0,29.79,WNW,289,5.4,8.7,53,0.00,,---,0.00,VWS V14.01,2013-03-11 11:36:00,
2013-03-11 05:37:00,35.4,20.0,29.79,NW,320,6.3,6.3,53,0.00,,---,0.00,VWS V14.01,2013-03-11 11:37:00,
2013-03-11 05:38:00,35.4,20.0,29.79,WNW,301,5.4,8.1,53,0.00,,---,0.00,VWS V14.01,2013-03-11 11:38:00,
2013-03-11 05:39:00,35.6,20.2,29.79,WNW,293,3.6,5.4,53,0.00,,---,0.00,VWS V14.01,2013-03-11 11:39:00,
2013-03-11 05:40:00,35.6,20.2,29.79,WNW,287,5.4,5.4,53,0.00,,---,0.00,VWS V14.01,2013-03-11 11:40:00,
2013-03-11 05:41:00,35.4,20.0,29.79,WSW,243,8.3,8.3,53,0.00,,---,0.00,VWS V14.01,2013-03-11 11:41:00,
2013-03-11 05:42:00,35.6,19.7,29.79,WNW,289,7.6,11.0,52,0.00,,---,0.00,VWS V14.01,2013-03-11 11:42:00,
2013-03-11 05:43:00,35.6,19.7,29.79,WNW,301,7.6,8.3,52,0.00,,---,0.00,VWS V14.01,2013-03-11 11:43:00,
2013-03-11 05:44:00,35.6,19.3,29.79,WNW,299,5.4,8.7,51,0.00,,---,0.00,VWS V14.01,2013-03-11 11:44:00,
2013-03-11 05:45:00,35.6,19.3,29.79,West,259,6.3,10.1,51,0.00,,---,0.00,VWS V14.01,2013-03-11 11:45:00,
2013-03-11 05:46:00,35.8,19.4,29.79,WNW,297,3.6,6.3,51,0.00,,---,0.00,VWS V14.01,2013-03-11 11:46:00,
2013-03-11 05:47:00,35.8,19.4,29.79,West,275,4.9,6.3,51,0.00,,---,0.00,VWS V14.01,2013-03-11 11:47:00,
2013-03-11 05:48:00,35.8,19.4,29.79,West,277,5.4,5.8,51,0.00,,---,0.00,VWS V14.01,2013-03-11 11:48:00,
2013-03-11 05:49:00,35.8,19.4,29.79,WNW,286,3.1,6.3,51,0.00,,---,0.00,VWS V14.01,2013-03-11 11:49:00,
2013-03-11 05:50:00,35.8,19.4,29.79,WSW,243,4.0,5.8,51,0.00,,---,0.00,VWS V14.01,2013-03-11 11:50:00,
2013-03-11 05:51:00,35.8,19.4,29.79,WSW,257,4.0,5.4,51,0.00,,---,0.00,VWS V14.01,2013-03-11 11:51:00,
2013-03-11 05:52:00,35.8,19.4,29.79,West,268,6.3,8.7,51,0.00,,---,0.00,VWS V14.01,2013-03-11 11:52:00,
2013-03-11 05:53:00,35.8,19.4,29.79,West,266,4.0,10.1,51,0.00,,---,0.00,VWS V14.01,2013-03-11 11:53:00,
2013-03-11 05:54:00,35.8,19.4,29.79,WNW,302,4.0,5.8,51,0.00,,---,0.00,VWS V14.01,2013-03-11 11:54:00,
2013-03-11 05:55:00,35.8,19.4,29.79,NW,305,5.8,5.8,51,0.00,,---,0.00,VWS V14.01,2013-03-11 11:55:00,
2013-03-11 05:56:00,35.8,19.4,29.79,WNW,288,5.4,8.1,51,0.00,,---,0.00,VWS V14.01,2013-03-11 11:56:00,
2013-03-11 05:57:00,35.8,19.4,29.79,West,275,5.4,12.3,51,0.00,,---,0.00,VWS V14.01,2013-03-11 11:57:00,
2013-03-11 05:58:00,35.8,19.4,29.79,NW,310,6.3,7.6,51,0.00,,---,0.00,VWS V14.01,2013-03-11 11:58:00,
2013-03-11 05:59:00,35.8,19.4,29.79,NW,315,4.9,6.3,51,0.00,,---,0.00,VWS V14.01,2013-03-11 11:59:00,
2013-03-11 06:00:00,35.8,19.4,29.79,WSW,253,2.7,4.9,51,0.00,,---,0.00,VWS V14.01,2013-03-11 12:00:00,
2013-03-11 06:01:00,35.8,19.4,29.79,West,274,3.1,5.8,51,0.00,,---,0.00,VWS V14.01,2013-03-11 12:01:00,
2013-03-11 06:02:00,35.8,19.4,29.79,West,279,4.9,4.9,51,0.00,,---,0.00,VWS V14.01,2013-03-11 12:02:00,
2013-03-11 06:03:00,35.8,19.4,29.79,West,265,4.0,4.9,51,0.00,,---,0.00,VWS V14.01,2013-03-11 12:03:00,
2013-03-11 06:04:00,35.8,19.4,29.79,WSW,257,2.7,4.9,51,0.00,,---,0.00,VWS V14.01,2013-03-11 12:04:00,
2013-03-11 06:05:00,35.8,19.4,29.79,NW,304,2.7,4.0,51,0.00,,---,0.00,VWS V14.01,2013-03-11 12:05:00,
2013-03-11 06:06:00,35.8,19.4,29.79,WNW,294,4.0,4.5,51,0.00,,---,0.00,VWS V14.01,2013-03-11 12:06:00,
2013-03-11 06:07:00,35.6,19.3,29.79,NW,310,7.6,8.7,51,0.00,,---,0.00,VWS V14.01,2013-03-11 12:07:00,
2013-03-11 06:08:00,35.8,19.4,29.79,WSW,243,8.1,8.1,51,0.00,,---,0.00,VWS V14.01,2013-03-11 12:08:00,
2013-03-11 06:09:00,35.8,19.4,29.79,NW,314,3.6,3.6,51,0.00,,---,0.00,VWS V14.01,2013-03-11 12:09:00,
2013-03-11 06:10:00,35.8,19.0,29.79,NW,305,7.6,8.7,50,0.00,,---,0.00,VWS V14.01,2013-03-11 12:10:00,
2013-03-11 06:11:00,35.8,19.0,29.79,SW,231,6.3,8.3,50,0.00,,---,0.00,VWS V14.01,2013-03-11 12:11:00,
2013-03-11 06:12:00,36.0,19.1,29.79,WNW,283,8.3,13.2,50,0.00,,---,0.00,VWS V14.01,2013-03-11 12:12:00,
2013-03-11 06:13:00,36.0,19.1,29.79,West,281,6.3,8.3,50,0.00,,---,0.00,VWS V14.01,2013-03-11 12:13:00,
2013-03-11 06:14:00,36.1,19.3,29.79,WNW,301,4.0,6.3,50,0.00,,---,0.00,VWS V14.01,2013-03-11 12:14:00,
2013-03-11 06:15:00,36.1,19.3,29.79,WNW,292,3.1,5.4,50,0.00,,---,0.00,VWS V14.01,2013-03-11 12:15:00,
2013-03-11 06:16:00,36.0,19.6,29.79,WSW,250,2.7,4.9,51,0.00,,---,0.00,VWS V14.01,2013-03-11 12:16:00,
2013-03-11 06:17:00,36.0,19.6,29.79,WNW,283,3.1,5.4,51,0.00,,---,0.00,VWS V14.01,2013-03-11 12:17:00,
2013-03-11 06:18:00,36.0,19.6,29.79,West,271,3.6,5.4,51,0.00,,---,0.00,VWS V14.01,2013-03-11 12:18:00,
2013-03-11 06:19:00,35.8,19.4,29.79,NW,307,4.0,4.0,51,0.00,,---,0.00,VWS V14.01,2013-03-11 12:19:00,
2013-03-11 06:20:00,35.8,19.4,29.79,NW,316,4.9,7.6,51,0.00,,---,0.00,VWS V14.01,2013-03-11 12:20:00,
2013-03-11 06:21:00,35.8,19.4,29.79,WNW,288,3.1,4.9,51,0.00,,---,0.00,VWS V14.01,2013-03-11 12:21:00,
2013-03-11 06:22:00,35.8,19.4,29.79,SW,235,5.4,8.1,51,0.00,,---,0.00,VWS V14.01,2013-03-11 12:22:00,
2013-03-11 06:23:00,35.8,19.9,29.79,WNW,297,4.9,8.3,52,0.00,,---,0.00,VWS V14.01,2013-03-11 12:23:00,
2013-03-11 06:24:00,35.8,19.9,29.79,NW,320,5.4,8.3,52,0.00,,---,0.00,VWS V14.01,2013-03-11 12:24:00,
2013-03-11 06:25:00,35.6,20.2,29.79,West,271,8.1,8.7,53,0.00,,---,0.00,VWS V14.01,2013-03-11 12:25:00,
2013-03-11 06:26:00,35.6,21.0,29.79,WNW,294,13.2,13.2,55,0.00,,---,0.00,VWS V14.01,2013-03-11 12:26:00,
2013-03-11 06:27:00,35.6,21.5,29.79,West,269,8.7,13.2,56,0.00,,---,0.00,VWS V14.01,2013-03-11 12:27:00,
2013-03-11 06:28:00,35.2,22.0,29.79,NW,304,6.3,8.7,58,0.00,,---,0.00,VWS V14.01,2013-03-11 12:28:00,
2013-03-11 06:29:00,35.1,22.2,29.79,West,276,10.1,10.1,59,0.00,,---,0.00,VWS V14.01,2013-03-11 12:29:00,
2013-03-11 06:30:00,35.1,22.6,29.79,West,263,13.2,13.2,60,0.00,,---,0.00,VWS V14.01,2013-03-11 12:30:00,
2013-03-11 06:31:00,34.9,23.6,29.79,WNW,292,6.3,13.2,63,0.00,,---,0.00,VWS V14.01,2013-03-11 12:31:00,
2013-03-11 06:32:00,34.5,24.0,29.79,WNW,302,10.5,12.8,65,0.00,,---,0.00,VWS V14.01,2013-03-11 12:32:00,
2013-03-11 06:33:00,34.5,24.0,29.79,West,265,6.3,10.5,65,0.00,,---,0.00,VWS V14.01,2013-03-11 12:33:00,
2013-03-11 06:34:00,34.3,24.2,29.79,WNW,301,7.6,8.7,66,0.00,,---,0.00,VWS V14.01,2013-03-11 12:34:00,
2013-03-11 06:35:00,34.0,24.2,29.82,WNW,299,5.8,7.6,67,0.00,,---,0.00,VWS V14.01,2013-03-11 12:35:00,
2013-03-11 06:36:00,34.0,24.2,29.82,West,262,6.3,12.3,67,0.00,,---,0.00,VWS V14.01,2013-03-11 12:36:00,
2013-03-11 06:37:00,34.0,24.2,29.82,West,275,4.9,8.3,67,0.00,,---,0.00,VWS V14.01,2013-03-11 12:37:00,
2013-03-11 06:38:00,33.8,24.0,29.82,WNW,294,8.1,8.1,67,0.00,,---,0.00,VWS V14.01,2013-03-11 12:38:00,
2013-03-11 06:39:00,33.8,24.0,29.82,NW,304,7.6,8.1,67,0.00,,---,0.00,VWS V14.01,2013-03-11 12:39:00,
2013-03-11 06:40:00,33.8,24.0,29.82,NNW,329,6.3,6.3,67,0.00,,---,0.00,VWS V14.01,2013-03-11 12:40:00,
2013-03-11 06:41:00,33.8,24.0,29.82,West,272,10.5,10.5,67,0.00,,---,0.00,VWS V14.01,2013-03-11 12:41:00,
2013-03-11 06:42:00,33.8,23.3,29.82,NW,326,10.5,11.0,65,0.00,,---,0.00,VWS V14.01,2013-03-11 12:42:00,
2013-03-11 06:43:00,33.8,22.9,29.82,NW,315,5.4,10.5,64,0.00,,---,0.00,VWS V14.01,2013-03-11 12:43:00,
2013-03-11 06:44:00,34.0,22.7,29.82,WNW,299,6.7,8.3,63,0.00,,---,0.00,VWS V14.01,2013-03-11 12:44:00,
2013-03-11 06:45:00,34.0,23.1,29.82,WSW,243,5.8,6.7,64,0.00,,---,0.00,VWS V14.01,2013-03-11 12:45:00,
2013-03-11 06:46:00,34.0,23.1,29.82,West,268,6.3,6.3,64,0.00,,---,0.00,VWS V14.01,2013-03-11 12:46:00,
2013-03-11 06:47:00,34.0,23.1,29.82,NW,305,5.4,6.3,64,0.00,,---,0.00,VWS V14.01,2013-03-11 12:47:00,
2013-03-11 06:48:00,33.8,23.3,29.82,West,268,3.1,5.4,65,0.00,,---,0.00,VWS V14.01,2013-03-11 12:48:00,
2013-03-11 06:49:00,33.8,23.3,29.79,West,272,4.0,5.4,65,0.00,,---,0.00,VWS V14.01,2013-03-11 12:49:00,
2013-03-11 06:50:00,33.8,23.3,29.79,NW,307,6.3,6.3,65,0.00,,---,0.00,VWS V14.01,2013-03-11 12:50:00,
2013-03-11 06:51:00,33.6,23.1,29.79,WSW,258,8.1,9.6,65,0.00,,---,0.00,VWS V14.01,2013-03-11 12:51:00,
2013-03-11 06:52:00,33.8,22.6,29.79,WSW,237,9.6,9.6,63,0.00,,---,0.00,VWS V14.01,2013-03-11 12:52:00,
2013-03-11 06:53:00,34.0,22.0,29.79,SSW,206,8.1,11.0,61,0.00,,---,0.00,VWS V14.01,2013-03-11 12:53:00,
2013-03-11 06:54:00,34.2,21.3,29.79,West,273,8.7,11.0,59,0.00,,---,0.00,VWS V14.01,2013-03-11 12:54:00,
2013-03-11 06:55:00,34.3,20.3,29.79,WNW,302,5.8,12.3,56,0.00,,---,0.00,VWS V14.01,2013-03-11 12:55:00,
2013-03-11 06:56:00,34.5,19.2,29.79,WSW,250,10.5,11.0,53,0.00,,---,0.00,VWS V14.01,2013-03-11 12:56:00,
2013-03-11 06:57:00,34.9,19.5,29.79,West,264,8.7,11.0,53,0.00,,---,0.00,VWS V14.01,2013-03-11 12:57:00,
2013-03-11 06:58:00,35.1,19.2,29.79,WNW,301,4.9,8.7,52,0.00,,---,0.00,VWS V14.01,2013-03-11 12:58:00,
2013-03-11 06:59:00,35.1,19.2,29.79,West,272,5.4,5.4,52,0.00,,---,0.00,VWS V14.01,2013-03-11 12:59:00,
2013-03-11 07:00:00,35.1,19.2,29.79,NW,306,5.8,7.6,52,0.00,,---,0.00,VWS V14.01,2013-03-11 13:00:00,
2013-03-11 07:01:00,35.2,18.9,29.79,WNW,297,3.1,5.8,51,0.00,,---,0.00,VWS V14.01,2013-03-11 13:01:00,
2013-03-11 07:02:00,35.2,18.9,29.79,West,275,8.3,10.1,51,0.00,,---,0.00,VWS V14.01,2013-03-11 13:02:00,
2013-03-11 07:03:00,35.4,18.6,29.79,West,267,5.8,8.3,50,0.00,,---,0.00,VWS V14.01,2013-03-11 13:03:00,
2013-03-11 07:04:00,35.4,18.6,29.79,SW,226,5.4,5.8,50,0.00,,---,0.00,VWS V14.01,2013-03-11 13:04:00,
2013-03-11 07:05:00,35.4,18.6,29.79,West,265,11.0,11.0,50,0.00,,---,0.00,VWS V14.01,2013-03-11 13:05:00,
2013-03-11 07:06:00,35.4,18.6,29.79,SW,234,5.8,11.0,50,0.00,,---,0.00,VWS V14.01,2013-03-11 13:06:00,
2013-03-11 07:07:00,35.4,18.2,29.79,WNW,286,7.2,11.0,49,0.00,,---,0.00,VWS V14.01,2013-03-11 13:07:00,
2013-03-11 07:08:00,35.4,18.2,29.79,West,281,15.4,15.4,49,0.00,,---,0.00,VWS V14.01,2013-03-11 13:08:00,
2013-03-11 07:09:00,35.6,17.9,29.79,NW,311,8.1,15.4,48,0.00,,---,0.00,VWS V14.01,2013-03-11 13:09:00,
2013-03-11 07:10:00,35.6,17.9,29.79,WNW,292,13.2,19.7,48,0.00,,---,0.00,VWS V14.01,2013-03-11 13:10:00,
2013-03-11 07:11:00,35.6,17.4,29.79,West,273,10.1,13.2,47,0.00,,---,0.00,VWS V14.01,2013-03-11 13:11:00,
2013-03-11 07:12:00,35.6,17.4,29.79,West,278,9.2,11.0,47,0.00,,---,0.00,VWS V14.01,2013-03-11 13:12:00,
2013-03-11 07:13:00,35.6,17.9,29.79,SW,214,8.3,11.0,48,0.00,,---,0.00,VWS V14.01,2013-03-11 13:13:00,
2013-03-11 07:14:00,35.6,17.4,29.79,WSW,241,8.3,9.6,47,0.00,,---,0.00,VWS V14.01,2013-03-11 13:14:00,
2013-03-11 07:15:00,35.6,17.4,29.79,SSW,213,6.3,14.5,47,0.00,,---,0.00,VWS V14.01,2013-03-11 13:15:00,
2013-03-11 07:16:00,35.6,17.4,29.79,NW,312,7.6,12.3,47,0.00,,---,0.00,VWS V14.01,2013-03-11 13:16:00,
2013-03-11 07:17:00,35.6,16.9,29.79,West,261,11.0,11.0,46,0.00,,---,0.00,VWS V14.01,2013-03-11 13:17:00,
2013-03-11 07:18:00,35.6,16.9,29.79,West,260,9.6,11.0,46,0.00,,---,0.00,VWS V14.01,2013-03-11 13:18:00,
2013-03-11 07:19:00,35.6,17.4,29.79,WSW,248,11.0,11.0,47,0.00,,---,0.00,VWS V14.01,2013-03-11 13:19:00,
2013-03-11 07:20:00,35.6,16.9,29.82,WNW,296,11.0,11.0,46,0.00,,---,0.00,VWS V14.01,2013-03-11 13:20:00,
2013-03-11 07:21:00,35.6,16.9,29.82,WNW,292,7.6,11.0,46,0.00,,---,0.00,VWS V14.01,2013-03-11 13:21:00,
2013-03-11 07:22:00,35.4,16.7,29.82,WSW,253,10.1,10.1,46,0.00,,---,0.00,VWS V14.01,2013-03-11 13:22:00,
2013-03-11 07:23:00,35.4,16.7,29.82,West,279,8.3,14.5,46,0.00,,---,0.00,VWS V14.01,2013-03-11 13:23:00,
2013-03-11 07:24:00,35.4,16.7,29.82,NW,324,10.1,10.1,46,0.00,,---,0.00,VWS V14.01,2013-03-11 13:24:00,
2013-03-11 07:25:00,35.4,16.7,29.82,WSW,258,8.3,11.0,46,0.00,,---,0.00,VWS V14.01,2013-03-11 13:25:00,
2013-03-11 07:26:00,35.4,16.7,29.82,West,264,8.7,11.0,46,0.00,,---,0.00,VWS V14.01,2013-03-11 13:26:00,
2013-03-11 07:27:00,35.4,17.2,29.82,WNW,282,8.1,8.7,47,0.00,,---,0.00,VWS V14.01,2013-03-11 13:27:00,
2013-03-11 07:28:00,35.4,17.2,29.82,WNW,292,4.0,8.1,47,0.00,,---,0.00,VWS V14.01,2013-03-11 13:28:00,
2013-03-11 07:29:00,35.2,17.0,29.82,WSW,251,5.8,6.3,47,0.00,,---,0.00,VWS V14.01,2013-03-11 13:29:00,
2013-03-11 07:30:00,35.2,17.0,29.82,West,268,12.8,12.8,47,0.00,,---,0.00,VWS V14.01,2013-03-11 13:30:00,
2013-03-11 07:31:00,35.2,17.0,29.82,West,260,8.1,12.8,47,0.00,,---,0.00,VWS V14.01,2013-03-11 13:31:00,
2013-03-11 07:32:00,35.2,17.0,29.82,NW,314,8.1,8.1,47,0.00,,---,0.00,VWS V14.01,2013-03-11 13:32:00,
2013-03-11 07:33:00,35.2,17.0,29.82,West,278,6.3,10.1,47,0.00,,---,0.00,VWS V14.01,2013-03-11 13:33:00,
2013-03-11 07:34:00,35.1,16.9,29.82,WNW,302,8.1,8.1,47,0.00,,---,0.00,VWS V14.01,2013-03-11 13:34:00,
2013-03-11 07:35:00,35.1,16.9,29.82,WSW,237,6.3,11.9,47,0.00,,---,0.00,VWS V14.01,2013-03-11 13:35:00,
2013-03-11 07:36:00,35.1,16.9,29.82,WNW,289,6.3,8.7,47,0.00,,---,0.00,VWS V14.01,2013-03-11 13:36:00,
2013-03-11 07:37:00,35.1,16.9,29.82,West,265,4.9,6.7,47,0.00,,---,0.00,VWS V14.01,2013-03-11 13:37:00,
2013-03-11 07:38:00,35.1,16.9,29.82,NW,308,4.0,7.6,47,0.00,,---,0.00,VWS V14.01,2013-03-11 13:38:00,
2013-03-11 07:39:00,35.1,16.9,29.82,WSW,252,6.7,8.1,47,0.00,,---,0.00,VWS V14.01,2013-03-11 13:39:00,
2013-03-11 07:40:00,35.1,16.9,29.82,NW,307,3.6,6.7,47,0.00,,---,0.00,VWS V14.01,2013-03-11 13:40:00,
2013-03-11 07:41:00,34.9,17.2,29.82,SW,236,4.0,4.0,48,0.00,,---,0.00,VWS V14.01,2013-03-11 13:41:00,
2013-03-11 07:42:00,34.9,17.2,29.82,WSW,254,5.8,6.3,48,0.00,,---,0.00,VWS V14.01,2013-03-11 13:42:00,
2013-03-11 07:43:00,34.9,17.2,29.82,West,265,5.8,8.3,48,0.00,,---,0.00,VWS V14.01,2013-03-11 13:43:00,
2013-03-11 07:44:00,34.9,17.2,29.82,WSW,249,9.2,9.2,48,0.00,,---,0.00,VWS V14.01,2013-03-11 13:44:00,
2013-03-11 07:45:00,34.9,16.7,29.82,WNW,300,8.1,10.5,47,0.00,,---,0.00,VWS V14.01,2013-03-11 13:45:00,
2013-03-11 07:46:00,34.9,16.7,29.82,West,269,13.2,13.2,47,0.00,,---,0.00,VWS V14.01,2013-03-11 13:46:00,
2013-03-11 07:47:00,34.9,16.7,29.82,NW,307,14.1,14.1,47,0.00,,---,0.00,VWS V14.01,2013-03-11 13:47:00,
2013-03-11 07:48:00,34.9,17.2,29.82,West,272,8.1,14.1,48,0.00,,---,0.00,VWS V14.01,2013-03-11 13:48:00,
2013-03-11 07:49:00,34.9,17.2,29.82,WNW,292,8.7,8.7,48,0.00,,---,0.00,VWS V14.01,2013-03-11 13:49:00,
2013-03-11 07:50:00,34.9,17.2,29.82,SW,225,8.7,12.3,48,0.00,,---,0.00,VWS V14.01,2013-03-11 13:50:00,
2013-03-11 07:51:00,34.9,17.2,29.82,West,263,8.1,11.0,48,0.00,,---,0.00,VWS V14.01,2013-03-11 13:51:00,
2013-03-11 07:52:00,34.9,17.2,29.82,West,270,5.4,8.7,48,0.00,,---,0.00,VWS V14.01,2013-03-11 13:52:00,
2013-03-11 07:53:00,34.7,16.5,29.82,West,275,9.6,9.6,47,0.00,,---,0.00,VWS V14.01,2013-03-11 13:53:00,
2013-03-11 07:54:00,34.7,16.5,29.82,WNW,288,5.4,9.6,47,0.00,,---,0.00,VWS V14.01,2013-03-11 13:54:00,
2013-03-11 07:55:00,34.7,16.5,29.82,West,280,10.5,13.6,47,0.00,,---,0.00,VWS V14.01,2013-03-11 13:55:00,
2013-03-11 07:56:00,34.7,16.5,29.82,WNW,282,5.8,10.5,47,0.00,,---,0.00,VWS V14.01,2013-03-11 13:56:00,
2013-03-11 07:57:00,34.7,16.5,29.82,West,269,5.4,6.3,47,0.00,,---,0.00,VWS V14.01,2013-03-11 13:57:00,
2013-03-11 07:58:00,34.7,16.0,29.82,WNW,298,8.7,8.7,46,0.00,,---,0.00,VWS V14.01,2013-03-11 13:58:00,
2013-03-11 07:59:00,34.5,15.9,29.82,SW,234,10.5,10.5,46,0.00,,---,0.00,VWS V14.01,2013-03-11 13:59:00,
2013-03-11 08:00:00,34.5,15.9,29.82,West,277,11.9,11.9,46,0.00,,---,0.00,VWS V14.01,2013-03-11 14:00:00,
2013-03-11 08:01:00,34.5,15.4,29.82,WSW,242,5.4,12.3,45,0.00,,---,0.00,VWS V14.01,2013-03-11 14:01:00,
2013-03-11 08:02:00,34.7,15.6,29.82,WSW,257,7.2,15.4,45,0.00,,---,0.00,VWS V14.01,2013-03-11 14:02:00,
2013-03-11 08:03:00,34.7,15.6,29.82,West,277,8.3,15.4,45,0.00,,---,0.00,VWS V14.01,2013-03-11 14:03:00,
2013-03-11 08:04:00,34.7,15.0,29.79,SW,233,15.9,15.9,44,0.00,,---,0.00,VWS V14.01,2013-03-11 14:04:00,
2013-03-11 08:05:00,34.7,15.0,29.79,West,260,7.6,15.9,44,0.00,,---,0.00,VWS V14.01,2013-03-11 14:05:00,
2013-03-11 08:06:00,34.9,15.2,29.79,West,261,17.4,17.4,44,0.00,,---,0.00,VWS V14.01,2013-03-11 14:06:00,
2013-03-11 08:07:00,34.9,15.2,29.79,WSW,250,14.5,17.4,44,0.00,,---,0.00,VWS V14.01,2013-03-11 14:07:00,
2013-03-11 08:08:00,34.9,15.2,29.79,WSW,257,11.0,15.4,44,0.00,,---,0.00,VWS V14.01,2013-03-11 14:08:00,
2013-03-11 08:09:00,34.9,15.2,29.79,WNW,295,10.1,13.2,44,0.00,,---,0.00,VWS V14.01,2013-03-11 14:09:00,
2013-03-11 08:10:00,34.9,15.2,29.79,WSW,245,11.0,12.8,44,0.00,,---,0.00,VWS V14.01,2013-03-11 14:10:00,
2013-03-11 08:11:00,34.9,15.2,29.79,West,275,5.8,13.2,44,0.00,,---,0.00,VWS V14.01,2013-03-11 14:11:00,
2013-03-11 08:12:00,34.9,15.2,29.79,West,266,12.8,12.8,44,0.00,,---,0.00,VWS V14.01,2013-03-11 14:12:00,
2013-03-11 08:13:00,34.9,15.2,29.79,WNW,283,12.3,15.4,44,0.00,,---,0.00,VWS V14.01,2013-03-11 14:13:00,
2013-03-11 08:14:00,34.9,15.2,29.79,WNW,286,11.4,12.3,44,0.00,,---,0.00,VWS V14.01,2013-03-11 14:14:00,
2013-03-11 08:15:00,34.9,15.2,29.79,SW,228,9.6,12.3,44,0.00,,---,0.00,VWS V14.01,2013-03-11 14:15:00,
2013-03-11 08:16:00,34.9,15.2,29.79,WSW,257,19.7,20.6,44,0.00,,---,0.00,VWS V14.01,2013-03-11 14:16:00,
2013-03-11 08:17:00,34.9,15.2,29.79,SW,230,11.0,19.7,44,0.00,,---,0.00,VWS V14.01,2013-03-11 14:17:00,
2013-03-11 08:18:00,34.9,15.2,29.79,WSW,249,14.1,14.1,44,0.00,,---,0.00,VWS V14.01,2013-03-11 14:18:00,
2013-03-11 08:19:00,34.9,15.2,29.79,West,277,12.3,14.1,44,0.00,,---,0.00,VWS V14.01,2013-03-11 14:19:00,
2013-03-11 08:20:00,34.9,15.2,29.82,WNW,292,7.2,12.3,44,0.00,,---,0.00,VWS V14.01,2013-03-11 14:20:00,
2013-03-11 08:21:00,34.9,15.2,29.82,West,275,10.1,10.1,44,0.00,,---,0.00,VWS V14.01,2013-03-11 14:21:00,
2013-03-11 08:22:00,34.9,15.7,29.82,WSW,248,8.7,10.1,45,0.00,,---,0.00,VWS V14.01,2013-03-11 14:22:00,
2013-03-11 08:23:00,34.7,15.6,29.82,WNW,300,10.5,10.5,45,0.00,,---,0.00,VWS V14.01,2013-03-11 14:23:00,
2013-03-11 08:24:00,34.7,15.6,29.82,WNW,286,8.7,11.0,45,0.00,,---,0.00,VWS V14.01,2013-03-11 14:24:00,
2013-03-11 08:25:00,34.7,15.6,29.82,West,260,6.3,10.1,45,0.00,,---,0.00,VWS V14.01,2013-03-11 14:25:00,
2013-03-11 08:26:00,34.7,15.6,29.82,WSW,239,6.3,11.4,45,0.00,,---,0.00,VWS V14.01,2013-03-11 14:26:00,
2013-03-11 08:27:00,34.7,15.6,29.82,West,267,10.5,10.5,45,0.00,,---,0.00,VWS V14.01,2013-03-11 14:27:00,
2013-03-11 08:28:00,34.7,15.6,29.82,WSW,247,9.6,10.5,45,0.00,,---,0.00,VWS V14.01,2013-03-11 14:28:00,
2013-03-11 08:29:00,34.7,15.6,29.82,West,263,15.0,15.4,45,0.00,,---,0.00,VWS V14.01,2013-03-11 14:29:00,
2013-03-11 08:30:00,34.7,15.6,29.82,WSW,252,11.0,15.0,45,0.00,,---,0.00,VWS V14.01,2013-03-11 14:30:00,
2013-03-11 08:31:00,34.7,15.6,29.82,WSW,251,11.0,11.0,45,0.00,,---,0.00,VWS V14.01,2013-03-11 14:31:00,
2013-03-11 08:32:00,34.7,15.0,29.82,WSW,238,15.0,15.0,44,0.00,,---,0.00,VWS V14.01,2013-03-11 14:32:00,
2013-03-11 08:33:00,34.9,15.2,29.82,West,268,15.0,15.0,44,0.00,,---,0.00,VWS V14.01,2013-03-11 14:33:00,
2013-03-11 08:34:00,34.7,15.0,29.82,West,264,18.8,18.8,44,0.00,,---,0.00,VWS V14.01,2013-03-11 14:34:00,
2013-03-11 08:35:00,34.9,15.2,29.82,SW,230,17.4,18.8,44,0.00,,---,0.00,VWS V14.01,2013-03-11 14:35:00,
2013-03-11 08:36:00,34.9,15.2,29.82,SW,233,13.6,17.4,44,0.00,,---,0.00,VWS V14.01,2013-03-11 14:36:00,
2013-03-11 08:37:00,34.9,15.2,29.82,SW,234,11.0,15.4,44,0.00,,---,0.00,VWS V14.01,2013-03-11 14:37:00,
2013-03-11 08:38:00,34.9,15.2,29.82,West,271,16.3,16.3,44,0.00,,---,0.00,VWS V14.01,2013-03-11 14:38:00,
2013-03-11 08:39:00,34.9,14.7,29.82,WNW,298,10.1,16.3,43,0.00,,---,0.00,VWS V14.01,2013-03-11 14:39:00,
2013-03-11 08:40:00,34.9,14.7,29.82,WSW,258,10.1,10.5,43,0.00,,---,0.00,VWS V14.01,2013-03-11 14:40:00,
2013-03-11 08:41:00,34.9,14.7,29.82,NW,314,4.0,10.1,43,0.00,,---,0.00,VWS V14.01,2013-03-11 14:41:00,
2013-03-11 08:42:00,34.7,14.5,29.82,WSW,257,9.2,10.5,43,0.00,,---,0.00,VWS V14.01,2013-03-11 14:42:00,
2013-03-11 08:43:00,34.7,14.5,29.82,West,273,12.8,13.2,43,0.00,,---,0.00,VWS V14.01,2013-03-11 14:43:00,
2013-03-11 08:44:00,34.7,14.5,29.82,West,261,15.0,15.0,43,0.00,,---,0.00,VWS V14.01,2013-03-11 14:44:00,
2013-03-11 08:45:00,34.7,14.0,29.82,WNW,290,6.3,15.0,42,0.00,,---,0.00,VWS V14.01,2013-03-11 14:45:00,
2013-03-11 08:46:00,34.7,14.0,29.82,West,264,9.2,13.2,42,0.00,,---,0.00,VWS V14.01,2013-03-11 14:46:00,
2013-03-11 08:47:00,34.7,14.0,29.82,West,276,13.2,15.0,42,0.00,,---,0.00,VWS V14.01,2013-03-11 14:47:00,
2013-03-11 08:48:00,34.7,14.0,29.82,West,281,12.8,18.3,42,0.00,,---,0.00,VWS V14.01,2013-03-11 14:48:00,
2013-03-11 08:49:00,34.7,14.0,29.82,WNW,302,8.3,12.8,42,0.00,,---,0.00,VWS V14.01,2013-03-11 14:49:00,
2013-03-11 08:50:00,34.7,14.0,29.82,SW,232,14.1,15.0,42,0.00,,---,0.00,VWS V14.01,2013-03-11 14:50:00,
2013-03-11 08:51:00,34.7,14.0,29.82,NW,305,7.6,14.1,42,0.00,,---,0.00,VWS V14.01,2013-03-11 14:51:00,
2013-03-11 08:52:00,34.7,14.0,29.82,WSW,241,5.4,10.1,42,0.00,,---,0.00,VWS V14.01,2013-03-11 14:52:00,
2013-03-11 08:53:00,34.7,14.0,29.82,West,271,8.7,10.5,42,0.00,,---,0.00,VWS V14.01,2013-03-11 14:53:00,
2013-03-11 08:54:00,34.7,14.0,29.82,WNW,294,10.5,11.4,42,0.00,,---,0.00,VWS V14.01,2013-03-11 14:54:00,
2013-03-11 08:55:00,34.7,14.0,29.82,NW,319,12.8,12.8,42,0.00,,---,0.00,VWS V14.01,2013-03-11 14:55:00,
2013-03-11 08:56:00,34.7,14.0,29.82,WSW,258,10.5,12.8,42,0.00,,---,0.00,VWS V14.01,2013-03-11 14:56:00,
2013-03-11 08:57:00,34.7,14.0,29.82,WNW,297,7.6,11.9,42,0.00,,---,0.00,VWS V14.01,2013-03-11 14:57:00,
2013-03-11 08:58:00,34.7,14.0,29.82,West,277,14.1,15.9,42,0.00,,---,0.00,VWS V14.01,2013-03-11 14:58:00,
2013-03-11 08:59:00,34.7,14.0,29.82,West,274,8.7,14.1,42,0.00,,---,0.00,VWS V14.01,2013-03-11 14:59:00,
2013-03-11 09:00:00,34.7,14.0,29.82,West,265,8.1,12.8,42,0.00,,---,0.00,VWS V14.01,2013-03-11 15:00:00,
2013-03-11 09:01:00,34.7,14.0,29.82,NW,310,10.5,12.8,42,0.00,,---,0.00,VWS V14.01,2013-03-11 15:01:00,
2013-03-11 09:02:00,34.7,14.0,29.82,WNW,283,12.8,13.2,42,0.00,,---,0.00,VWS V14.01,2013-03-11 15:02:00,
2013-03-11 09:03:00,34.7,14.0,29.82,WNW,290,10.1,12.8,42,0.00,,---,0.00,VWS V14.01,2013-03-11 15:03:00,
2013-03-11 09:04:00,34.7,14.0,29.82,WNW,283,10.1,10.1,42,0.00,,---,0.00,VWS V14.01,2013-03-11 15:04:00,
2013-03-11 09:05:00,34.7,14.0,29.82,West,268,5.4,10.1,42,0.00,,---,0.00,VWS V14.01,2013-03-11 15:05:00,
2013-03-11 09:06:00,34.7,14.0,29.82,WSW,258,5.8,13.2,42,0.00,,---,0.00,VWS V14.01,2013-03-11 15:06:00,
2013-03-11 09:07:00,34.7,14.0,29.82,WNW,298,5.8,7.6,42,0.00,,---,0.00,VWS V14.01,2013-03-11 15:07:00,
2013-03-11 09:08:00,34.7,14.0,29.82,NW,320,3.6,7.2,42,0.00,,---,0.00,VWS V14.01,2013-03-11 15:08:00,
2013-03-11 09:09:00,34.7,14.0,29.82,WNW,303,8.3,8.7,42,0.00,,---,0.00,VWS V14.01,2013-03-11 15:09:00,
2013-03-11 09:10:00,34.9,14.1,29.82,NW,306,7.6,8.3,42,0.00,,---,0.00,VWS V14.01,2013-03-11 15:10:00,
2013-03-11 09:11:00,34.9,14.1,29.82,WSW,257,8.3,10.1,42,0.00,,---,0.00,VWS V14.01,2013-03-11 15:11:00,
2013-03-11 09:12:00,34.7,14.0,29.82,WSW,253,10.1,10.5,42,0.00,,---,0.00,VWS V14.01,2013-03-11 15:12:00,
2013-03-11 09:13:00,34.7,14.0,29.82,West,271,8.3,10.1,42,0.00,,---,0.00,VWS V14.01,2013-03-11 15:13:00,
2013-03-11 09:14:00,34.9,13.6,29.82,NW,310,11.4,11.4,41,0.00,,---,0.00,VWS V14.01,2013-03-11 15:14:00,
2013-03-11 09:15:00,34.9,14.1,29.82,WSW,254,5.8,13.2,42,0.00,,---,0.00,VWS V14.01,2013-03-11 15:15:00,
2013-03-11 09:16:00,34.9,13.6,29.82,West,270,5.8,10.5,41,0.00,,---,0.00,VWS V14.01,2013-03-11 15:16:00,
2013-03-11 09:17:00,34.9,13.6,29.82,WSW,256,8.1,10.1,41,0.00,,---,0.00,VWS V14.01,2013-03-11 15:17:00,
2013-03-11 09:18:00,35.1,13.8,29.82,West,269,10.5,11.0,41,0.00,,---,0.00,VWS V14.01,2013-03-11 15:18:00,
2013-03-11 09:19:00,35.1,13.8,29.82,WSW,249,8.1,11.0,41,0.00,,---,0.00,VWS V14.01,2013-03-11 15:19:00,
2013-03-11 09:20:00,35.1,13.8,29.82,WSW,258,10.5,11.9,41,0.00,,---,0.00,VWS V14.01,2013-03-11 15:20:00,
2013-03-11 09:21:00,35.2,13.9,29.82,SW,235,15.0,15.0,41,0.00,,---,0.00,VWS V14.01,2013-03-11 15:21:00,
2013-03-11 09:22:00,35.2,13.9,29.82,WNW,294,11.0,15.0,41,0.00,,---,0.00,VWS V14.01,2013-03-11 15:22:00,
2013-03-11 09:23:00,35.4,14.1,29.82,West,277,8.7,14.5,41,0.00,,---,0.00,VWS V14.01,2013-03-11 15:23:00,
2013-03-11 09:24:00,35.4,14.1,29.82,WNW,284,7.2,8.7,41,0.00,,---,0.00,VWS V14.01,2013-03-11 15:24:00,
2013-03-11 09:25:00,35.4,14.1,29.82,WNW,286,8.1,15.0,41,0.00,,---,0.00,VWS V14.01,2013-03-11 15:25:00,
2013-03-11 09:26:00,35.4,14.1,29.82,NW,311,11.4,15.0,41,0.00,,---,0.00,VWS V14.01,2013-03-11 15:26:00,
2013-03-11 09:27:00,35.6,13.7,29.82,West,264,11.0,14.1,40,0.00,,---,0.00,VWS V14.01,2013-03-11 15:27:00,
2013-03-11 09:28:00,35.6,13.7,29.82,West,259,13.6,13.6,40,0.00,,---,0.00,VWS V14.01,2013-03-11 15:28:00,
2013-03-11 09:29:00,35.6,13.7,29.82,NW,306,12.3,15.0,40,0.00,,---,0.00,VWS V14.01,2013-03-11 15:29:00,
2013-03-11 09:30:00,35.6,13.7,29.82,NW,309,8.1,13.2,40,0.00,,---,0.00,VWS V14.01,2013-03-11 15:30:00,
2013-03-11 09:31:00,35.6,13.7,29.82,WNW,289,8.1,8.7,40,0.00,,---,0.00,VWS V14.01,2013-03-11 15:31:00,
2013-03-11 09:32:00,35.6,13.7,29.82,WSW,257,8.1,10.1,40,0.00,,---,0.00,VWS V14.01,2013-03-11 15:32:00,
2013-03-11 09:33:00,35.6,13.7,29.82,WNW,298,14.1,14.1,40,0.00,,---,0.00,VWS V14.01,2013-03-11 15:33:00,
2013-03-11 09:34:00,35.8,13.8,29.82,West,263,15.4,15.4,40,0.00,,---,0.00,VWS V14.01,2013-03-11 15:34:00,
2013-03-11 09:35:00,35.8,13.8,29.82,SW,234,8.3,15.4,40,0.00,,---,0.00,VWS V14.01,2013-03-11 15:35:00,
2013-03-11 09:36:00,35.8,13.8,29.82,West,276,11.0,16.3,40,0.00,,---,0.00,VWS V14.01,2013-03-11 15:36:00,
2013-03-11 09:37:00,35.8,13.8,29.82,West,279,10.5,12.8,40,0.00,,---,0.00,VWS V14.01,2013-03-11 15:37:00,
2013-03-11 09:38:00,36.0,14.0,29.82,West,273,9.6,15.4,40,0.00,,---,0.00,VWS V14.01,2013-03-11 15:38:00,
2013-03-11 09:39:00,36.0,14.0,29.82,WNW,298,13.2,16.8,40,0.00,,---,0.00,VWS V14.01,2013-03-11 15:39:00,
2013-03-11 09:40:00,36.1,14.2,29.82,NW,317,12.3,12.8,40,0.00,,---,0.00,VWS V14.01,2013-03-11 15:40:00,
2013-03-11 09:41:00,36.1,14.2,29.82,WNW,294,10.5,12.3,40,0.00,,---,0.00,VWS V14.01,2013-03-11 15:41:00,
2013-03-11 09:42:00,36.1,14.2,29.82,WNW,301,8.3,17.4,40,0.00,,---,0.00,VWS V14.01,2013-03-11 15:42:00,
2013-03-11 09:43:00,36.1,14.2,29.82,WNW,283,12.8,12.8,40,0.00,,---,0.00,VWS V14.01,2013-03-11 15:43:00,
2013-03-11 09:44:00,36.1,14.2,29.82,WSW,247,9.6,12.8,40,0.00,,---,0.00,VWS V14.01,2013-03-11 15:44:00,
2013-03-11 09:45:00,36.1,14.2,29.82,West,260,13.2,13.2,40,0.00,,---,0.00,VWS V14.01,2013-03-11 15:45:00,
2013-03-11 09:46:00,36.1,14.2,29.82,West,275,17.4,17.4,40,0.00,,---,0.00,VWS V14.01,2013-03-11 15:46:00,
2013-03-11 09:47:00,36.1,13.6,29.82,WNW,285,13.2,17.4,39,0.00,,---,0.00,VWS V14.01,2013-03-11 15:47:00,
2013-03-11 09:48:00,36.1,13.6,29.82,NW,316,12.8,16.8,39,0.00,,---,0.00,VWS V14.01,2013-03-11 15:48:00,
2013-03-11 09:49:00,36.3,13.8,29.82,WNW,301,15.0,15.0,39,0.00,,---,0.00,VWS V14.01,2013-03-11 15:49:00,
2013-03-11 09:50:00,36.3,13.8,29.82,WSW,254,17.4,17.4,39,0.00,,---,0.00,VWS V14.01,2013-03-11 15:50:00,
2013-03-11 09:51:00,36.3,13.8,29.82,NW,307,8.1,17.4,39,0.00,,---,0.00,VWS V14.01,2013-03-11 15:51:00,
2013-03-11 09:52:00,36.3,13.8,29.82,NW,312,5.8,9.6,39,0.00,,---,0.00,VWS V14.01,2013-03-11 15:52:00,
2013-03-11 09:53:00,36.3,14.3,29.82,West,274,5.8,10.1,40,0.00,,---,0.00,VWS V14.01,2013-03-11 15:53:00,
2013-03-11 09:54:00,36.3,14.3,29.82,South,176,8.3,9.6,40,0.00,,---,0.00,VWS V14.01,2013-03-11 15:54:00,
2013-03-11 09:55:00,36.3,14.3,29.82,SSW,203,11.0,11.0,40,0.00,,---,0.00,VWS V14.01,2013-03-11 15:55:00,
2013-03-11 09:56:00,36.5,13.9,29.82,West,266,11.0,15.0,39,0.00,,---,0.00,VWS V14.01,2013-03-11 15:56:00,
2013-03-11 09:57:00,36.7,14.1,29.82,West,279,14.1,14.5,39,0.00,,---,0.00,VWS V14.01,2013-03-11 15:57:00,
2013-03-11 09:58:00,36.7,14.1,29.82,West,269,5.8,14.1,39,0.00,,---,0.00,VWS V14.01,2013-03-11 15:58:00,
2013-03-11 09:59:00,36.7,14.1,29.82,NNW,332,8.3,8.7,39,0.00,,---,0.00,VWS V14.01,2013-03-11 15:59:00,
2013-03-11 10:00:00,36.7,14.1,29.82,WNW,282,8.1,8.3,39,0.00,,---,0.00,VWS V14.01,2013-03-11 16:00:00,
2013-03-11 10:01:00,36.7,14.1,29.82,West,265,5.4,8.3,39,0.00,,---,0.00,VWS V14.01,2013-03-11 16:01:00,
2013-03-11 10:02:00,36.9,14.2,29.82,WSW,242,4.0,6.3,39,0.00,,---,0.00,VWS V14.01,2013-03-11 16:02:00,
2013-03-11 10:03:00,36.9,14.2,29.82,WSW,256,12.8,12.8,39,0.00,,---,0.00,VWS V14.01,2013-03-11 16:03:00,
2013-03-11 10:04:00,36.9,14.2,29.82,West,273,7.6,7.6,39,0.00,,---,0.00,VWS V14.01,2013-03-11 16:04:00,
2013-03-11 10:05:00,36.9,14.2,29.82,NW,321,5.8,13.2,39,0.00,,---,0.00,VWS V14.01,2013-03-11 16:05:00,
2013-03-11 10:06:00,37.0,14.4,29.82,NW,319,12.3,15.0,39,0.00,,---,0.00,VWS V14.01,2013-03-11 16:06:00,
2013-03-11 10:07:00,37.0,14.4,29.82,WNW,295,10.5,12.3,39,0.00,,---,0.00,VWS V14.01,2013-03-11 16:07:00,
2013-03-11 10:08:00,37.0,14.4,29.82,NW,311,10.1,15.4,39,0.00,,---,0.00,VWS V14.01,2013-03-11 16:08:00,
2013-03-11 10:09:00,36.9,13.6,29.82,West,265,10.5,10.5,38,0.00,,---,0.00,VWS V14.01,2013-03-11 16:09:00,
2013-03-11 10:10:00,36.9,13.6,29.82,WNW,289,13.2,13.2,38,0.00,,---,0.00,VWS V14.01,2013-03-11 16:10:00,
2013-03-11 10:11:00,36.9,14.2,29.82,West,262,8.3,13.2,39,0.00,,---,0.00,VWS V14.01,2013-03-11 16:11:00,
2013-03-11 10:12:00,37.0,14.4,29.82,West,267,13.2,13.2,39,0.00,,---,0.00,VWS V14.01,2013-03-11 16:12:00,
2013-03-11 10:13:00,37.0,13.8,29.82,WNW,286,11.0,17.0,38,0.00,,---,0.00,VWS V14.01,2013-03-11 16:13:00,
2013-03-11 10:14:00,37.0,13.8,29.82,WNW,303,8.1,8.1,38,0.00,,---,0.00,VWS V14.01,2013-03-11 16:14:00,
2013-03-11 10:15:00,37.0,13.8,29.82,NW,312,10.5,10.5,38,0.00,,---,0.00,VWS V14.01,2013-03-11 16:15:00,
2013-03-11 10:16:00,37.2,14.0,29.82,WNW,300,12.8,12.8,38,0.00,,---,0.00,VWS V14.01,2013-03-11 16:16:00,
2013-03-11 10:17:00,37.2,14.0,29.82,West,276,9.2,12.8,38,0.00,,---,0.00,VWS V14.01,2013-03-11 16:17:00,
2013-03-11 10:18:00,37.2,13.4,29.82,NW,305,6.3,13.2,37,0.00,,---,0.00,VWS V14.01,2013-03-11 16:18:00,
2013-03-11 10:19:00,37.2,14.0,29.82,WNW,299,11.0,13.2,38,0.00,,---,0.00,VWS V14.01,2013-03-11 16:19:00,
2013-03-11 10:20:00,37.2,14.0,29.82,WSW,249,11.4,15.0,38,0.00,,---,0.00,VWS V14.01,2013-03-11 16:20:00,
2013-03-11 10:21:00,37.2,13.4,29.82,NW,321,12.8,14.1,37,0.00,,---,0.00,VWS V14.01,2013-03-11 16:21:00,
2013-03-11 10:22:00,37.2,13.4,29.82,WNW,297,12.8,13.2,37,0.00,,---,0.00,VWS V14.01,2013-03-11 16:22:00,
2013-03-11 10:23:00,37.2,13.4,29.82,West,261,15.9,19.7,37,0.00,,---,0.00,VWS V14.01,2013-03-11 16:23:00,
2013-03-11 10:24:00,37.2,13.4,29.82,WNW,301,11.4,11.4,37,0.00,,---,0.00,VWS V14.01,2013-03-11 16:24:00,
2013-03-11 10:25:00,37.2,13.4,29.82,NNW,340,12.8,15.4,37,0.00,,---,0.00,VWS V14.01,2013-03-11 16:25:00,
2013-03-11 10:26:00,37.2,13.4,29.82,West,272,10.5,14.1,37,0.00,,---,0.00,VWS V14.01,2013-03-11 16:26:00,
2013-03-11 10:27:00,37.2,13.4,29.82,WNW,292,5.4,10.5,37,0.00,,---,0.00,VWS V14.01,2013-03-11 16:27:00,
2013-03-11 10:28:00,37.2,13.4,29.82,WNW,293,13.2,13.2,37,0.00,,---,0.00,VWS V14.01,2013-03-11 16:28:00,
2013-03-11 10:29:00,37.4,13.5,29.82,West,281,15.0,17.4,37,0.00,,---,0.00,VWS V14.01,2013-03-11 16:29:00,
2013-03-11 10:30:00,37.4,12.9,29.82,West,268,14.5,15.4,36,0.00,,---,0.00,VWS V14.01,2013-03-11 16:30:00,
2013-03-11 10:31:00,37.4,12.9,29.82,NW,307,17.0,20.6,36,0.00,,---,0.00,VWS V14.01,2013-03-11 16:31:00,
2013-03-11 10:32:00,37.4,12.3,29.82,SW,214,10.1,19.7,35,0.00,,---,0.00,VWS V14.01,2013-03-11 16:32:00,
2013-03-11 10:33:00,37.4,12.3,29.82,NW,313,14.5,14.5,35,0.00,,---,0.00,VWS V14.01,2013-03-11 16:33:00,
2013-03-11 10:34:00,37.4,12.3,29.82,WNW,301,13.2,16.3,35,0.00,,---,0.00,VWS V14.01,2013-03-11 16:34:00,
2013-03-11 10:35:00,37.4,12.3,29.82,West,269,8.1,14.1,35,0.00,,---,0.00,VWS V14.01,2013-03-11 16:35:00,
2013-03-11 10:36:00,37.4,12.3,29.82,WNW,294,8.3,12.8,35,0.00,,---,0.00,VWS V14.01,2013-03-11 16:36:00,
2013-03-11 10:37:00,37.4,12.3,29.82,West,266,8.3,16.8,35,0.00,,---,0.00,VWS V14.01,2013-03-11 16:37:00,
2013-03-11 10:38:00,37.4,12.3,29.82,WNW,295,8.3,13.2,35,0.00,,---,0.00,VWS V14.01,2013-03-11 16:38:00,
2013-03-11 10:39:00,37.4,11.6,29.82,SW,234,14.5,18.8,34,0.00,,---,0.00,VWS V14.01,2013-03-11 16:39:00,
2013-03-11 10:40:00,37.6,11.8,29.82,West,275,13.2,14.5,34,0.00,,---,0.00,VWS V14.01,2013-03-11 16:40:00,
2013-03-11 10:41:00,37.6,11.8,29.82,WNW,300,12.3,18.8,34,0.00,,---,0.00,VWS V14.01,2013-03-11 16:41:00,
2013-03-11 10:42:00,37.6,11.1,29.82,WNW,290,11.0,17.0,33,0.00,,---,0.00,VWS V14.01,2013-03-11 16:42:00,
2013-03-11 10:43:00,37.6,11.1,29.82,NNW,328,11.0,11.0,33,0.00,,---,0.00,VWS V14.01,2013-03-11 16:43:00,
2013-03-11 10:44:00,37.6,11.1,29.82,West,270,9.6,23.3,33,0.00,,---,0.00,VWS V14.01,2013-03-11 16:44:00,
2013-03-11 10:45:00,37.6,11.8,29.82,NW,311,15.4,20.1,34,0.00,,---,0.00,VWS V14.01,2013-03-11 16:45:00,
2013-03-11 10:46:00,37.6,11.8,29.82,WSW,245,15.0,15.4,34,0.00,,---,0.00,VWS V14.01,2013-03-11 16:46:00,
2013-03-11 10:47:00,37.6,11.8,29.82,NW,315,15.4,19.7,34,0.00,,---,0.00,VWS V14.01,2013-03-11 16:47:00,
2013-03-11 10:48:00,37.6,11.1,29.82,SW,233,13.2,15.9,33,0.00,,---,0.00,VWS V14.01,2013-03-11 16:48:00,
2013-03-11 10:49:00,37.6,11.8,29.82,NW,311,5.8,5.8,34,0.00,,---,0.00,VWS V14.01,2013-03-11 16:49:00,
2013-03-11 10:50:00,37.8,11.9,29.82,WNW,299,10.5,10.5,34,0.00,,---,0.00,VWS V14.01,2013-03-11 16:50:00,
2013-03-11 10:51:00,37.9,12.1,29.82,NW,304,6.3,11.0,34,0.00,,---,0.00,VWS V14.01,2013-03-11 16:51:00,
2013-03-11 10:52:00,37.9,12.1,29.82,WNW,290,11.9,12.3,34,0.00,,---,0.00,VWS V14.01,2013-03-11 16:52:00,
2013-03-11 10:53:00,38.1,12.2,29.82,NW,319,15.9,18.8,34,0.00,,---,0.00,VWS V14.01,2013-03-11 16:53:00,
2013-03-11 10:54:00,38.1,12.2,29.82,WNW,299,11.9,15.9,34,0.00,,---,0.00,VWS V14.01,2013-03-11 16:54:00,
2013-03-11 10:55:00,38.3,12.4,29.82,WNW,285,8.3,12.8,34,0.00,,---,0.00,VWS V14.01,2013-03-11 16:55:00,
2013-03-11 10:56:00,38.3,11.7,29.82,WNW,287,8.7,12.8,33,0.00,,---,0.00,VWS V14.01,2013-03-11 16:56:00,
2013-03-11 10:57:00,38.3,11.7,29.82,NW,312,11.0,16.8,33,0.00,,---,0.00,VWS V14.01,2013-03-11 16:57:00,
2013-03-11 10:58:00,38.3,11.7,29.82,WNW,292,15.0,21.9,33,0.00,,---,0.00,VWS V14.01,2013-03-11 16:58:00,
2013-03-11 10:59:00,38.1,11.6,29.82,NW,306,16.3,16.3,33,0.00,,---,0.00,VWS V14.01,2013-03-11 16:59:00,
2013-03-11 11:00:00,38.1,11.6,29.82,West,278,19.7,19.7,33,0.00,,---,0.00,VWS V14.01,2013-03-11 17:00:00,
2013-03-11 11:01:00,37.9,11.4,29.82,South,184,12.8,19.7,33,0.00,,---,0.00,VWS V14.01,2013-03-11 17:01:00,
2013-03-11 11:02:00,37.9,11.4,29.82,West,262,11.0,12.8,33,0.00,,---,0.00,VWS V14.01,2013-03-11 17:02:00,
2013-03-11 11:03:00,37.9,11.4,29.82,West,267,9.2,17.4,33,0.00,,---,0.00,VWS V14.01,2013-03-11 17:03:00,
2013-03-11 11:04:00,37.9,11.4,29.82,WSW,254,11.0,13.2,33,0.00,,---,0.00,VWS V14.01,2013-03-11 17:04:00,
2013-03-11 11:05:00,37.9,11.4,29.82,WNW,299,6.3,15.4,33,0.00,,---,0.00,VWS V14.01,2013-03-11 17:05:00,
2013-03-11 11:06:00,37.9,11.4,29.82,NW,324,12.8,12.8,33,0.00,,---,0.00,VWS V14.01,2013-03-11 17:06:00,
2013-03-11 11:07:00,38.1,12.2,29.82,NW,310,8.7,18.8,34,0.00,,---,0.00,VWS V14.01,2013-03-11 17:07:00,
2013-03-11 11:08:00,38.1,12.2,29.82,West,279,7.6,15.4,34,0.00,,---,0.00,VWS V14.01,2013-03-11 17:08:00,
2013-03-11 11:09:00,38.1,12.2,29.82,NW,312,10.5,12.3,34,0.00,,---,0.00,VWS V14.01,2013-03-11 17:09:00,
2013-03-11 11:10:00,38.1,12.2,29.82,West,271,9.6,14.1,34,0.00,,---,0.00,VWS V14.01,2013-03-11 17:10:00,
2013-03-11 11:11:00,38.3,11.7,29.82,WSW,252,11.0,15.4,33,0.00,,---,0.00,VWS V14.01,2013-03-11 17:11:00,
2013-03-11 11:12:00,38.1,11.6,29.82,NW,309,11.0,15.4,33,0.00,,---,0.00,VWS V14.01,2013-03-11 17:12:00,
2013-03-11 11:13:00,38.1,11.6,29.82,WNW,288,11.0,12.8,33,0.00,,---,0.00,VWS V14.01,2013-03-11 17:13:00,
2013-03-11 11:14:00,38.1,11.6,29.82,West,280,8.3,12.3,33,0.00,,---,0.00,VWS V14.01,2013-03-11 17:14:00,
2013-03-11 11:15:00,38.1,11.6,29.82,WNW,289,8.1,12.3,33,0.00,,---,0.00,VWS V14.01,2013-03-11 17:15:00,
2013-03-11 11:16:00,38.3,11.7,29.82,West,273,10.5,16.8,33,0.00,,---,0.00,VWS V14.01,2013-03-11 17:16:00,
2013-03-11 11:17:00,38.3,11.7,29.82,West,274,8.7,10.5,33,0.00,,---,0.00,VWS V14.01,2013-03-11 17:17:00,
2013-03-11 11:18:00,38.3,11.7,29.82,WSW,256,10.1,15.0,33,0.00,,---,0.00,VWS V14.01,2013-03-11 17:18:00,
2013-03-11 11:19:00,38.5,11.9,29.82,West,278,7.6,12.3,33,0.00,,---,0.00,VWS V14.01,2013-03-11 17:19:00,
2013-03-11 11:20:00,38.5,11.9,29.82,WSW,246,13.2,13.2,33,0.00,,---,0.00,VWS V14.01,2013-03-11 17:20:00,
2013-03-11 11:21:00,38.5,11.9,29.82,West,260,10.5,13.2,33,0.00,,---,0.00,VWS V14.01,2013-03-11 17:21:00,
2013-03-11 11:22:00,38.5,11.9,29.82,West,266,8.7,15.0,33,0.00,,---,0.00,VWS V14.01,2013-03-11 17:22:00,
2013-03-11 11:23:00,38.5,11.9,29.82,WSW,256,11.9,11.9,33,0.00,,---,0.00,VWS V14.01,2013-03-11 17:23:00,
2013-03-11 11:24:00,38.7,12.1,29.82,West,260,6.3,7.2,33,0.00,,---,0.00,VWS V14.01,2013-03-11 17:24:00,
2013-03-11 11:25:00,38.7,12.1,29.82,WNW,287,11.0,11.0,33,0.00,,---,0.00,VWS V14.01,2013-03-11 17:25:00,
2013-03-11 11:26:00,38.8,12.2,29.82,WNW,291,8.3,11.0,33,0.00,,---,0.00,VWS V14.01,2013-03-11 17:26:00,
2013-03-11 11:27:00,38.8,12.2,29.82,West,265,11.0,11.0,33,0.00,,---,0.00,VWS V14.01,2013-03-11 17:27:00,
2013-03-11 11:28:00,38.8,12.2,29.82,West,275,7.6,12.8,33,0.00,,---,0.00,VWS V14.01,2013-03-11 17:28:00,
2013-03-11 11:29:00,38.8,12.2,29.82,NW,307,6.3,8.7,33,0.00,,---,0.00,VWS V14.01,2013-03-11 17:29:00,
2013-03-11 11:30:00,38.8,12.2,29.82,WNW,288,5.4,8.7,33,0.00,,---,0.00,VWS V14.01,2013-03-11 17:30:00,
2013-03-11 11:31:00,39.0,12.4,29.82,WNW,282,6.7,8.7,33,0.00,,---,0.00,VWS V14.01,2013-03-11 17:31:00,
2013-03-11 11:32:00,39.2,11.8,29.82,WNW,299,8.7,12.8,32,0.00,,---,0.00,VWS V14.01,2013-03-11 17:32:00,
2013-03-11 11:33:00,39.2,12.5,29.82,WSW,246,6.3,10.1,33,0.00,,---,0.00,VWS V14.01,2013-03-11 17:33:00,
2013-03-11 11:34:00,39.4,12.7,29.82,WSW,243,8.1,8.3,33,0.00,,---,0.00,VWS V14.01,2013-03-11 17:34:00,
2013-03-11 11:35:00,39.4,12.7,29.82,WNW,297,15.0,15.0,33,0.00,,---,0.00,VWS V14.01,2013-03-11 17:35:00,
2013-03-11 11:36:00,39.2,11.8,29.82,West,277,13.6,15.0,32,0.00,,---,0.00,VWS V14.01,2013-03-11 17:36:00,
2013-03-11 11:37:00,39.2,11.8,29.82,West,278,10.5,15.4,32,0.00,,---,0.00,VWS V14.01,2013-03-11 17:37:00,
2013-03-11 11:38:00,39.0,11.7,29.82,West,261,8.7,15.0,32,0.00,,---,0.00,VWS V14.01,2013-03-11 17:38:00,
2013-03-11 11:39:00,38.8,11.5,29.82,NNW,339,17.4,17.4,32,0.00,,---,0.00,VWS V14.01,2013-03-11 17:39:00,
2013-03-11 11:40:00,38.8,11.5,29.82,WNW,297,15.0,17.4,32,0.00,,---,0.00,VWS V14.01,2013-03-11 17:40:00,
2013-03-11 11:41:00,38.7,11.4,29.82,NW,310,8.7,15.0,32,0.00,,---,0.00,VWS V14.01,2013-03-11 17:41:00,
2013-03-11 11:42:00,38.7,12.1,29.82,NW,306,15.4,15.9,33,0.00,,---,0.00,VWS V14.01,2013-03-11 17:42:00,
2013-03-11 11:43:00,38.7,12.1,29.82,WSW,241,8.1,15.4,33,0.00,,---,0.00,VWS V14.01,2013-03-11 17:43:00,
2013-03-11 11:44:00,38.8,11.5,29.82,West,275,11.0,11.9,32,0.00,,---,0.00,VWS V14.01,2013-03-11 17:44:00,
2013-03-11 11:45:00,38.8,11.5,29.82,WSW,243,9.6,11.9,32,0.00,,---,0.00,VWS V14.01,2013-03-11 17:45:00,
2013-03-11 11:46:00,38.8,11.5,29.82,West,259,12.8,13.2,32,0.00,,---,0.00,VWS V14.01,2013-03-11 17:46:00,
2013-03-11 11:47:00,38.8,11.5,29.82,WSW,253,15.4,15.4,32,0.00,,---,0.00,VWS V14.01,2013-03-11 17:47:00,
2013-03-11 11:48:00,38.8,11.5,29.82,WSW,239,8.1,15.4,32,0.00,,---,0.00,VWS V14.01,2013-03-11 17:48:00,
2013-03-11 11:49:00,38.8,11.5,29.82,West,266,10.5,10.5,32,0.00,,---,0.00,VWS V14.01,2013-03-11 17:49:00,
2013-03-11 11:50:00,38.8,11.5,29.82,SW,234,11.4,17.0,32,0.00,,---,0.00,VWS V14.01,2013-03-11 17:50:00,
2013-03-11 11:51:00,39.0,11.7,29.82,West,280,8.7,12.3,32,0.00,,---,0.00,VWS V14.01,2013-03-11 17:51:00,
2013-03-11 11:52:00,39.0,11.7,29.82,WNW,301,11.0,11.0,32,0.00,,---,0.00,VWS V14.01,2013-03-11 17:52:00,
2013-03-11 11:53:00,39.0,11.7,29.82,NW,312,10.5,13.2,32,0.00,,---,0.00,VWS V14.01,2013-03-11 17:53:00,
2013-03-11 11:54:00,38.8,11.5,29.82,WNW,301,12.8,12.8,32,0.00,,---,0.00,VWS V14.01,2013-03-11 17:54:00,
2013-03-11 11:55:00,39.0,11.7,29.82,NW,308,9.6,12.8,32,0.00,,---,0.00,VWS V14.01,2013-03-11 17:55:00,
2013-03-11 11:56:00,39.0,11.7,29.82,West,261,8.3,9.6,32,0.00,,---,0.00,VWS V14.01,2013-03-11 17:56:00,
2013-03-11 11:57:00,39.4,12.0,29.82,West,280,10.5,11.4,32,0.00,,---,0.00,VWS V14.01,2013-03-11 17:57:00,
2013-03-11 11:58:00,39.4,12.0,29.82,West,279,8.7,10.5,32,0.00,,---,0.00,VWS V14.01,2013-03-11 17:58:00,
2013-03-11 11:59:00,39.6,12.1,29.82,WSW,238,19.2,19.2,32,0.00,,---,0.00,VWS V14.01,2013-03-11 17:59:00,
2013-03-11 12:00:00,39.4,11.3,29.82,WNW,293,11.0,19.2,31,0.00,,---,0.00,VWS V14.01,2013-03-11 18:00:00,
2013-03-11 12:01:00,39.4,11.3,29.82,West,271,22.4,22.4,31,0.00,,---,0.00,VWS V14.01,2013-03-11 18:01:00,
2013-03-11 12:02:00,39.0,11.0,29.82,West,273,15.0,22.4,31,0.00,,---,0.00,VWS V14.01,2013-03-11 18:02:00,
2013-03-11 12:03:00,39.0,11.0,29.82,West,267,12.8,17.0,31,0.00,,---,0.00,VWS V14.01,2013-03-11 18:03:00,
2013-03-11 12:04:00,38.8,10.8,29.82,WSW,257,11.0,11.0,31,0.00,,---,0.00,VWS V14.01,2013-03-11 18:04:00,
2013-03-11 12:05:00,38.8,10.8,29.82,NW,308,12.8,18.3,31,0.00,,---,0.00,VWS V14.01,2013-03-11 18:05:00,
2013-03-11 12:06:00,38.8,10.8,29.82,NW,319,9.6,15.4,31,0.00,,---,0.00,VWS V14.01,2013-03-11 18:06:00,
2013-03-11 12:07:00,38.7,10.6,29.82,WNW,301,15.0,19.7,31,0.00,,---,0.00,VWS V14.01,2013-03-11 18:07:00,
2013-03-11 12:08:00,38.7,10.6,29.82,WNW,296,11.0,15.0,31,0.00,,---,0.00,VWS V14.01,2013-03-11 18:08:00,
2013-03-11 12:09:00,38.7,10.6,29.82,West,278,12.8,12.8,31,0.00,,---,0.00,VWS V14.01,2013-03-11 18:09:00,
2013-03-11 12:10:00,38.7,10.6,29.82,SW,216,17.0,17.0,31,0.00,,---,0.00,VWS V14.01,2013-03-11 18:10:00,
2013-03-11 12:11:00,38.5,10.5,29.82,West,281,10.5,17.0,31,0.00,,---,0.00,VWS V14.01,2013-03-11 18:11:00,
2013-03-11 12:12:00,38.5,10.5,29.82,WNW,302,9.6,17.0,31,0.00,,---,0.00,VWS V14.01,2013-03-11 18:12:00,
2013-03-11 12:13:00,38.7,10.6,29.82,West,281,12.3,12.3,31,0.00,,---,0.00,VWS V14.01,2013-03-11 18:13:00,
2013-03-11 12:14:00,38.8,10.8,29.82,WNW,298,11.9,13.2,31,0.00,,---,0.00,VWS V14.01,2013-03-11 18:14:00,
2013-03-11 12:15:00,38.8,10.8,29.82,West,276,22.4,22.4,31,0.00,,---,0.00,VWS V14.01,2013-03-11 18:15:00,
2013-03-11 12:16:00,38.8,10.8,29.82,WNW,292,12.3,22.4,31,0.00,,---,0.00,VWS V14.01,2013-03-11 18:16:00,
2013-03-11 12:17:00,38.8,10.8,29.82,South,175,11.0,17.0,31,0.00,,---,0.00,VWS V14.01,2013-03-11 18:17:00,
2013-03-11 12:18:00,38.8,10.8,29.82,West,275,10.5,15.4,31,0.00,,---,0.00,VWS V14.01,2013-03-11 18:18:00,
2013-03-11 12:19:00,38.8,10.8,29.82,WSW,253,17.9,21.9,31,0.00,,---,0.00,VWS V14.01,2013-03-11 18:19:00,
2013-03-11 12:20:00,38.8,10.8,29.82,NW,308,13.2,21.9,31,0.00,,---,0.00,VWS V14.01,2013-03-11 18:20:00,
2013-03-11 12:21:00,38.8,10.8,29.82,WNW,285,15.4,17.4,31,0.00,,---,0.00,VWS V14.01,2013-03-11 18:21:00,
2013-03-11 12:22:00,38.8,10.8,29.82,NW,318,15.0,16.3,31,0.00,,---,0.00,VWS V14.01,2013-03-11 18:22:00,
2013-03-11 12:23:00,38.8,10.8,29.82,WNW,297,16.8,17.0,31,0.00,,---,0.00,VWS V14.01,2013-03-11 18:23:00,
2013-03-11 12:24:00,38.8,10.8,29.82,NW,315,9.6,10.5,31,0.00,,---,0.00,VWS V14.01,2013-03-11 18:24:00,
2013-03-11 12:25:00,39.0,11.0,29.82,West,264,8.7,10.5,31,0.00,,---,0.00,VWS V14.01,2013-03-11 18:25:00,
2013-03-11 12:26:00,39.0,11.0,29.82,NW,314,12.3,15.4,31,0.00,,---,0.00,VWS V14.01,2013-03-11 18:26:00,
2013-03-11 12:27:00,39.0,11.0,29.82,West,280,15.0,19.7,31,0.00,,---,0.00,VWS V14.01,2013-03-11 18:27:00,
2013-03-11 12:28:00,39.0,11.0,29.82,NW,321,10.1,15.0,31,0.00,,---,0.00,VWS V14.01,2013-03-11 18:28:00,
2013-03-11 12:29:00,39.2,10.4,29.82,NNW,327,15.0,15.0,30,0.00,,---,0.00,VWS V14.01,2013-03-11 18:29:00,
2013-03-11 12:30:00,39.2,10.4,29.82,West,281,13.2,21.9,30,0.00,,---,0.00,VWS V14.01,2013-03-11 18:30:00,
2013-03-11 12:31:00,39.2,10.4,29.82,WSW,248,11.0,15.4,30,0.00,,---,0.00,VWS V14.01,2013-03-11 18:31:00,
2013-03-11 12:32:00,39.2,10.4,29.82,NNW,327,8.3,15.4,30,0.00,,---,0.00,VWS V14.01,2013-03-11 18:32:00,
2013-03-11 12:33:00,39.2,10.4,29.82,NW,313,10.5,15.0,30,0.00,,---,0.00,VWS V14.01,2013-03-11 18:33:00,
2013-03-11 12:34:00,39.4,10.5,29.82,WNW,295,10.5,11.9,30,0.00,,---,0.00,VWS V14.01,2013-03-11 18:34:00,
2013-03-11 12:35:00,39.4,10.5,29.82,WSW,244,10.1,14.1,30,0.00,,---,0.00,VWS V14.01,2013-03-11 18:35:00,
2013-03-11 12:36:00,39.4,10.5,29.82,West,273,17.4,17.4,30,0.00,,---,0.00,VWS V14.01,2013-03-11 18:36:00,
2013-03-11 12:37:00,39.4,10.5,29.82,NW,310,15.4,17.4,30,0.00,,---,0.00,VWS V14.01,2013-03-11 18:37:00,
2013-03-11 12:38:00,39.4,10.5,29.82,NW,306,14.5,16.8,30,0.00,,---,0.00,VWS V14.01,2013-03-11 18:38:00,
2013-03-11 12:39:00,39.4,10.5,29.82,West,264,8.3,11.0,30,0.00,,---,0.00,VWS V14.01,2013-03-11 18:39:00,
2013-03-11 12:40:00,39.4,10.5,29.82,West,276,11.0,11.0,30,0.00,,---,0.00,VWS V14.01,2013-03-11 18:40:00,
2013-03-11 12:41:00,39.4,10.5,29.82,WNW,302,9.2,19.7,30,0.00,,---,0.00,VWS V14.01,2013-03-11 18:41:00,
2013-03-11 12:42:00,39.4,10.5,29.82,NW,318,15.0,15.4,30,0.00,,---,0.00,VWS V14.01,2013-03-11 18:42:00,
2013-03-11 12:43:00,39.4,10.5,29.82,West,279,18.8,18.8,30,0.00,,---,0.00,VWS V14.01,2013-03-11 18:43:00,
2013-03-11 12:44:00,39.2,10.4,29.82,West,267,12.3,17.0,30,0.00,,---,0.00,VWS V14.01,2013-03-11 18:44:00,
2013-03-11 12:45:00,39.2,10.4,29.82,NNW,336,19.7,19.7,30,0.00,,---,0.00,VWS V14.01,2013-03-11 18:45:00,
2013-03-11 12:46:00,39.2,10.4,29.82,SW,229,16.3,19.7,30,0.00,,---,0.00,VWS V14.01,2013-03-11 18:46:00,
2013-03-11 12:47:00,39.2,10.4,29.82,WSW,248,15.4,16.3,30,0.00,,---,0.00,VWS V14.01,2013-03-11 18:47:00,
2013-03-11 12:48:00,39.2,10.4,29.82,WNW,299,15.9,17.4,30,0.00,,---,0.00,VWS V14.01,2013-03-11 18:48:00,
2013-03-11 12:49:00,39.2,10.4,29.82,West,261,16.8,23.7,30,0.00,,---,0.00,VWS V14.01,2013-03-11 18:49:00,
2013-03-11 12:50:00,39.2,10.4,29.82,WSW,251,14.5,23.7,30,0.00,,---,0.00,VWS V14.01,2013-03-11 18:50:00,
2013-03-11 12:51:00,39.2,10.4,29.82,West,268,11.0,16.8,30,0.00,,---,0.00,VWS V14.01,2013-03-11 18:51:00,
2013-03-11 12:52:00,39.2,10.4,29.82,SW,224,8.1,11.0,30,0.00,,---,0.00,VWS V14.01,2013-03-11 18:52:00,
2013-03-11 12:53:00,39.2,10.4,29.82,West,272,19.2,19.2,30,0.00,,---,0.00,VWS V14.01,2013-03-11 18:53:00,
2013-03-11 12:54:00,39.2,10.4,29.82,WNW,299,12.8,13.2,30,0.00,,---,0.00,VWS V14.01,2013-03-11 18:54:00,
2013-03-11 12:55:00,39.2,10.4,29.82,West,273,18.3,20.1,30,0.00,,---,0.00,VWS V14.01,2013-03-11 18:55:00,
2013-03-11 12:56:00,39.2,9.6,29.82,SW,216,12.8,18.3,29,0.00,,---,0.00,VWS V14.01,2013-03-11 18:56:00,
2013-03-11 12:57:00,39.2,9.6,29.82,WNW,287,8.7,12.8,29,0.00,,---,0.00,VWS V14.01,2013-03-11 18:57:00,
2013-03-11 12:58:00,39.2,9.6,29.82,NW,316,16.3,16.3,29,0.00,,---,0.00,VWS V14.01,2013-03-11 18:58:00,
2013-03-11 12:59:00,39.4,9.8,29.82,WNW,290,15.0,15.0,29,0.00,,---,0.00,VWS V14.01,2013-03-11 18:59:00,
2013-03-11 13:00:00,39.4,9.8,29.82,WSW,251,16.3,16.3,29,0.00,,---,0.00,VWS V14.01,2013-03-11 19:00:00,
2013-03-11 13:01:00,39.4,10.5,29.82,West,261,12.8,21.9,30,0.00,,---,0.00,VWS V14.01,2013-03-11 19:01:00,
2013-03-11 13:02:00,39.4,10.5,29.82,NW,320,13.6,15.4,30,0.00,,---,0.00,VWS V14.01,2013-03-11 19:02:00,
2013-03-11 13:03:00,39.4,9.8,29.82,WNW,291,20.1,20.1,29,0.00,,---,0.00,VWS V14.01,2013-03-11 19:03:00,
2013-03-11 13:04:00,39.4,9.8,29.82,WNW,301,12.8,22.4,29,0.00,,---,0.00,VWS V14.01,2013-03-11 19:04:00,
2013-03-11 13:05:00,39.4,9.8,29.82,WNW,297,10.1,22.4,29,0.00,,---,0.00,VWS V14.01,2013-03-11 19:05:00,
2013-03-11 13:06:00,39.4,9.8,29.82,WNW,301,15.4,18.8,29,0.00,,---,0.00,VWS V14.01,2013-03-11 19:06:00,
2013-03-11 13:07:00,39.4,9.8,29.82,WNW,295,12.8,22.4,29,0.00,,---,0.00,VWS V14.01,2013-03-11 19:07:00,
2013-03-11 13:08:00,39.2,9.6,29.82,NW,309,13.2,16.8,29,0.00,,---,0.00,VWS V14.01,2013-03-11 19:08:00,
2013-03-11 13:09:00,39.2,9.6,29.82,West,281,19.7,19.7,29,0.00,,---,0.00,VWS V14.01,2013-03-11 19:09:00,
2013-03-11 13:10:00,39.2,9.6,29.82,NNW,335,17.4,19.7,29,0.00,,---,0.00,VWS V14.01,2013-03-11 19:10:00,
2013-03-11 13:11:00,39.2,9.6,29.82,SW,221,12.3,17.4,29,0.00,,---,0.00,VWS V14.01,2013-03-11 19:11:00,
2013-03-11 13:12:00,39.4,9.8,29.82,West,276,12.3,12.8,29,0.00,,---,0.00,VWS V14.01,2013-03-11 19:12:00,
2013-03-11 13:13:00,39.4,10.5,29.82,WSW,257,14.1,14.1,30,0.00,,---,0.00,VWS V14.01,2013-03-11 19:13:00,
2013-03-11 13:14:00,39.6,10.7,29.82,West,268,8.7,15.0,30,0.00,,---,0.00,VWS V14.01,2013-03-11 19:14:00,
2013-03-11 13:15:00,39.7,10.9,29.82,WNW,300,12.8,15.0,30,0.00,,---,0.00,VWS V14.01,2013-03-11 19:15:00,
2013-03-11 13:16:00,39.9,10.3,29.82,SW,226,17.0,17.9,29,0.00,,---,0.00,VWS V14.01,2013-03-11 19:16:00,
2013-03-11 13:17:00,39.9,10.3,29.82,WNW,293,15.9,17.0,29,0.00,,---,0.00,VWS V14.01,2013-03-11 19:17:00,
2013-03-11 13:18:00,39.9,10.3,29.82,West,270,18.8,20.1,29,0.00,,---,0.00,VWS V14.01,2013-03-11 19:18:00,
2013-03-11 13:19:00,39.7,10.1,29.82,WSW,243,16.3,16.3,29,0.00,,---,0.00,VWS V14.01,2013-03-11 19:19:00,
2013-03-11 13:20:00,39.7,10.1,29.82,WNW,283,10.5,16.3,29,0.00,,---,0.00,VWS V14.01,2013-03-11 19:20:00,
2013-03-11 13:21:00,39.7,10.1,29.82,West,272,7.6,12.8,29,0.00,,---,0.00,VWS V14.01,2013-03-11 19:21:00,
2013-03-11 13:22:00,39.7,10.1,29.82,NW,321,13.2,15.4,29,0.00,,---,0.00,VWS V14.01,2013-03-11 19:22:00,
2013-03-11 13:23:00,39.9,10.3,29.82,NW,318,14.5,22.8,29,0.00,,---,0.00,VWS V14.01,2013-03-11 19:23:00,
2013-03-11 13:24:00,39.7,10.1,29.82,NNW,334,17.0,19.7,29,0.00,,---,0.00,VWS V14.01,2013-03-11 19:24:00,
2013-03-11 13:25:00,39.7,10.1,29.82,WNW,290,15.9,21.5,29,0.00,,---,0.00,VWS V14.01,2013-03-11 19:25:00,
2013-03-11 13:26:00,39.7,10.1,29.82,NW,311,10.5,15.9,29,0.00,,---,0.00,VWS V14.01,2013-03-11 19:26:00,
2013-03-11 13:27:00,39.6,9.9,29.82,West,279,13.2,17.4,29,0.00,,---,0.00,VWS V14.01,2013-03-11 19:27:00,
2013-03-11 13:28:00,39.6,9.9,29.82,West,281,13.2,23.7,29,0.00,,---,0.00,VWS V14.01,2013-03-11 19:28:00,
2013-03-11 13:29:00,39.6,9.9,29.82,West,259,10.5,13.2,29,0.00,,---,0.00,VWS V14.01,2013-03-11 19:29:00,
2013-03-11 13:30:00,39.6,9.9,29.82,WSW,239,8.1,13.2,29,0.00,,---,0.00,VWS V14.01,2013-03-11 19:30:00,
2013-03-11 13:31:00,39.7,10.1,29.82,WSW,249,11.0,22.8,29,0.00,,---,0.00,VWS V14.01,2013-03-11 19:31:00,
2013-03-11 13:32:00,39.7,10.1,29.82,WNW,286,15.0,15.0,29,0.00,,---,0.00,VWS V14.01,2013-03-11 19:32:00,
2013-03-11 13:33:00,39.7,10.1,29.82,NW,311,8.1,15.0,29,0.00,,---,0.00,VWS V14.01,2013-03-11 19:33:00,
2013-03-11 13:34:00,39.7,10.1,29.82,WNW,283,13.2,13.2,29,0.00,,---,0.00,VWS V14.01,2013-03-11 19:34:00,
2013-03-11 13:35:00,39.7,10.1,29.82,WNW,296,21.9,21.9,29,0.00,,---,0.00,VWS V14.01,2013-03-11 19:35:00,
2013-03-11 13:36:00,39.7,10.1,29.82,WNW,297,19.7,27.1,29,0.00,,---,0.00,VWS V14.01,2013-03-11 19:36:00,
2013-03-11 13:37:00,39.7,10.1,29.82,WSW,252,11.0,19.7,29,0.00,,---,0.00,VWS V14.01,2013-03-11 19:37:00,
2013-03-11 13:38:00,39.7,10.1,29.82,West,279,12.3,14.5,29,0.00,,---,0.00,VWS V14.01,2013-03-11 19:38:00,
2013-03-11 13:39:00,39.9,10.2,29.82,WNW,289,8.1,8.1,29,0.00,,---,0.00,VWS V14.01,2013-03-11 19:39:00,
2013-03-11 13:40:00,39.9,10.3,29.82,SW,220,8.7,12.8,29,0.00,,---,0.00,VWS V14.01,2013-03-11 19:40:00,
2013-03-11 13:41:00,39.9,10.3,29.82,WSW,255,12.8,15.9,29,0.00,,---,0.00,VWS V14.01,2013-03-11 19:41:00,
2013-03-11 13:42:00,39.9,10.3,29.82,WNW,286,11.0,14.5,29,0.00,,---,0.00,VWS V14.01,2013-03-11 19:42:00,
2013-03-11 13:43:00,40.1,10.4,29.82,NW,310,8.3,11.0,29,0.00,,---,0.00,VWS V14.01,2013-03-11 19:43:00,
2013-03-11 13:44:00,40.1,10.4,29.82,NW,310,15.9,16.8,29,0.00,,---,0.00,VWS V14.01,2013-03-11 19:44:00,
2013-03-11 13:45:00,40.1,10.4,29.82,WNW,299,11.4,16.8,29,0.00,,---,0.00,VWS V14.01,2013-03-11 19:45:00,
2013-03-11 13:46:00,40.1,10.4,29.82,SW,234,12.8,19.2,29,0.00,,---,0.00,VWS V14.01,2013-03-11 19:46:00,
2013-03-11 13:47:00,40.1,10.4,29.82,NW,314,8.7,12.8,29,0.00,,---,0.00,VWS V14.01,2013-03-11 19:47:00,
2013-03-11 13:48:00,40.1,10.4,29.82,WSW,238,12.8,13.6,29,0.00,,---,0.00,VWS V14.01,2013-03-11 19:48:00,
2013-03-11 13:49:00,40.3,10.6,29.82,WNW,292,10.1,10.1,29,0.00,,---,0.00,VWS V14.01,2013-03-11 19:49:00,
2013-03-11 13:50:00,40.5,10.7,29.82,WNW,293,16.3,16.3,29,0.00,,---,0.00,VWS V14.01,2013-03-11 19:50:00,
2013-03-11 13:51:00,40.5,10.7,29.82,WNW,288,14.5,16.3,29,0.00,,---,0.00,VWS V14.01,2013-03-11 19:51:00,
2013-03-11 13:52:00,40.5,10.7,29.82,West,275,10.5,14.5,29,0.00,,---,0.00,VWS V14.01,2013-03-11 19:52:00,
2013-03-11 13:53:00,40.5,10.7,29.82,WSW,244,8.7,11.4,29,0.00,,---,0.00,VWS V14.01,2013-03-11 19:53:00,
2013-03-11 13:54:00,40.5,10.7,29.82,WSW,249,13.2,19.7,29,0.00,,---,0.00,VWS V14.01,2013-03-11 19:54:00,
2013-03-11 13:55:00,40.5,10.7,29.82,West,269,13.2,19.7,29,0.00,,---,0.00,VWS V14.01,2013-03-11 19:55:00,
2013-03-11 13:56:00,40.5,10.7,29.82,NNW,335,14.1,16.3,29,0.00,,---,0.00,VWS V14.01,2013-03-11 19:56:00,
2013-03-11 13:57:00,40.5,10.7,29.82,West,280,8.1,14.1,29,0.00,,---,0.00,VWS V14.01,2013-03-11 19:57:00,
2013-03-11 13:58:00,40.5,10.7,29.82,West,274,6.7,8.7,29,0.00,,---,0.00,VWS V14.01,2013-03-11 19:58:00,
2013-03-11 13:59:00,40.5,10.7,29.82,West,278,12.8,12.8,29,0.00,,---,0.00,VWS V14.01,2013-03-11 19:59:00,
2013-03-11 14:00:00,40.5,10.7,29.82,WSW,256,8.7,13.6,29,0.00,,---,0.00,VWS V14.01,2013-03-11 20:00:00,
2013-03-11 14:01:00,40.6,10.9,29.82,NW,313,15.9,17.0,29,0.00,,---,0.00,VWS V14.01,2013-03-11 20:01:00,
2013-03-11 14:02:00,40.6,10.9,29.82,West,275,8.3,15.9,29,0.00,,---,0.00,VWS V14.01,2013-03-11 20:02:00,
2013-03-11 14:03:00,40.5,10.7,29.82,WSW,251,14.5,17.0,29,0.00,,---,0.00,VWS V14.01,2013-03-11 20:03:00,
2013-03-11 14:04:00,40.3,10.6,29.82,WSW,245,14.1,14.1,29,0.00,,---,0.00,VWS V14.01,2013-03-11 20:04:00,
2013-03-11 14:05:00,40.3,10.6,29.82,West,270,11.4,14.1,29,0.00,,---,0.00,VWS V14.01,2013-03-11 20:05:00,
2013-03-11 14:06:00,40.3,10.6,29.82,West,277,11.0,12.8,29,0.00,,---,0.00,VWS V14.01,2013-03-11 20:06:00,
2013-03-11 14:07:00,40.3,10.6,29.82,NW,307,7.6,12.8,29,0.00,,---,0.00,VWS V14.01,2013-03-11 20:07:00,
2013-03-11 14:08:00,40.5,10.7,29.82,West,263,13.2,13.2,29,0.00,,---,0.00,VWS V14.01,2013-03-11 20:08:00,
2013-03-11 14:09:00,40.5,10.7,29.82,West,279,5.4,8.3,29,0.00,,---,0.00,VWS V14.01,2013-03-11 20:09:00,
2013-03-11 14:10:00,40.6,10.9,29.82,WNW,291,10.1,10.5,29,0.00,,---,0.00,VWS V14.01,2013-03-11 20:10:00,
2013-03-11 14:11:00,40.6,10.9,29.82,NNW,329,6.3,13.2,29,0.00,,---,0.00,VWS V14.01,2013-03-11 20:11:00,
2013-03-11 14:12:00,40.6,10.9,29.82,SW,226,8.7,13.2,29,0.00,,---,0.00,VWS V14.01,2013-03-11 20:12:00,
2013-03-11 14:13:00,40.8,11.0,29.82,NW,307,17.0,17.0,29,0.00,,---,0.00,VWS V14.01,2013-03-11 20:13:00,
2013-03-11 14:14:00,40.8,11.0,29.82,West,272,13.2,17.4,29,0.00,,---,0.00,VWS V14.01,2013-03-11 20:14:00,
2013-03-11 14:15:00,40.6,10.9,29.82,WNW,289,14.1,17.4,29,0.00,,---,0.00,VWS V14.01,2013-03-11 20:15:00,
2013-03-11 14:16:00,40.5,10.7,29.82,WNW,300,12.8,16.8,29,0.00,,---,0.00,VWS V14.01,2013-03-11 20:16:00,
2013-03-11 14:17:00,40.5,10.7,29.82,NW,307,13.2,13.2,29,0.00,,---,0.00,VWS V14.01,2013-03-11 20:17:00,
2013-03-11 14:18:00,40.5,10.7,29.82,WNW,300,15.4,17.4,29,0.00,,---,0.00,VWS V14.01,2013-03-11 20:18:00,
2013-03-11 14:19:00,40.5,10.7,29.82,WNW,288,16.8,16.8,29,0.00,,---,0.00,VWS V14.01,2013-03-11 20:19:00,
2013-03-11 14:20:00,40.5,10.7,29.82,WNW,285,8.7,16.8,29,0.00,,---,0.00,VWS V14.01,2013-03-11 20:20:00,
2013-03-11 14:21:00,40.5,10.7,29.82,West,281,8.3,15.9,29,0.00,,---,0.00,VWS V14.01,2013-03-11 20:21:00,
2013-03-11 14:22:00,40.5,10.7,29.82,West,265,17.4,17.4,29,0.00,,---,0.00,VWS V14.01,2013-03-11 20:22:00,
2013-03-11 14:23:00,40.5,10.7,29.82,West,267,8.7,17.4,29,0.00,,---,0.00,VWS V14.01,2013-03-11 20:23:00,
2013-03-11 14:24:00,40.3,10.6,29.82,NW,325,12.8,13.6,29,0.00,,---,0.00,VWS V14.01,2013-03-11 20:24:00,
2013-03-11 14:25:00,40.3,10.6,29.82,West,260,8.1,13.6,29,0.00,,---,0.00,VWS V14.01,2013-03-11 20:25:00,
2013-03-11 14:26:00,40.3,10.6,29.82,West,265,16.8,16.8,29,0.00,,---,0.00,VWS V14.01,2013-03-11 20:26:00,
2013-03-11 14:27:00,40.5,10.7,29.82,NW,306,12.3,16.8,29,0.00,,---,0.00,VWS V14.01,2013-03-11 20:27:00,
2013-03-11 14:28:00,40.3,10.6,29.82,NW,312,14.1,23.3,29,0.00,,---,0.00,VWS V14.01,2013-03-11 20:28:00,
2013-03-11 14:29:00,40.3,10.6,29.82,North,357,8.1,10.1,29,0.00,,---,0.00,VWS V14.01,2013-03-11 20:29:00,
2013-03-11 14:30:00,40.3,10.6,29.82,WSW,258,17.4,17.4,29,0.00,,---,0.00,VWS V14.01,2013-03-11 20:30:00,
2013-03-11 14:31:00,40.3,10.6,29.82,WSW,238,12.8,21.5,29,0.00,,---,0.00,VWS V14.01,2013-03-11 20:31:00,
2013-03-11 14:32:00,40.3,10.6,29.82,NNW,345,23.3,23.3,29,0.00,,---,0.00,VWS V14.01,2013-03-11 20:32:00,
2013-03-11 14:33:00,40.3,10.6,29.82,NW,320,11.4,23.3,29,0.00,,---,0.00,VWS V14.01,2013-03-11 20:33:00,
2013-03-11 14:34:00,40.1,10.4,29.79,West,281,10.5,10.5,29,0.00,,---,0.00,VWS V14.01,2013-03-11 20:34:00,
2013-03-11 14:35:00,40.1,10.4,29.79,WSW,253,15.0,15.0,29,0.00,,---,0.00,VWS V14.01,2013-03-11 20:35:00,
2013-03-11 14:36:00,40.1,10.4,29.79,West,281,13.2,15.0,29,0.00,,---,0.00,VWS V14.01,2013-03-11 20:36:00,
2013-03-11 14:37:00,40.1,10.4,29.79,NW,315,16.8,16.8,29,0.00,,---,0.00,VWS V14.01,2013-03-11 20:37:00,
2013-03-11 14:38:00,40.1,10.4,29.79,West,270,10.1,16.8,29,0.00,,---,0.00,VWS V14.01,2013-03-11 20:38:00,
2013-03-11 14:39:00,40.3,10.6,29.79,NW,314,11.4,11.4,29,0.00,,---,0.00,VWS V14.01,2013-03-11 20:39:00,
2013-03-11 14:40:00,40.3,10.6,29.79,WSW,254,17.0,17.0,29,0.00,,---,0.00,VWS V14.01,2013-03-11 20:40:00,
2013-03-11 14:41:00,40.3,10.6,29.79,West,274,17.4,20.1,29,0.00,,---,0.00,VWS V14.01,2013-03-11 20:41:00,
2013-03-11 14:42:00,40.3,10.6,29.79,WSW,240,15.0,17.4,29,0.00,,---,0.00,VWS V14.01,2013-03-11 20:42:00,
2013-03-11 14:43:00,40.1,10.4,29.79,West,275,17.0,17.4,29,0.00,,---,0.00,VWS V14.01,2013-03-11 20:43:00,
2013-03-11 14:44:00,39.9,10.2,29.79,West,273,15.4,15.4,29,0.00,,---,0.00,VWS V14.01,2013-03-11 20:44:00,
2013-03-11 14:45:00,39.9,10.3,29.79,WNW,294,13.2,17.0,29,0.00,,---,0.00,VWS V14.01,2013-03-11 20:45:00,
2013-03-11 14:46:00,40.1,10.4,29.79,NW,322,15.4,15.4,29,0.00,,---,0.00,VWS V14.01,2013-03-11 20:46:00,
2013-03-11 14:47:00,39.9,10.3,29.79,NW,317,11.0,15.4,29,0.00,,---,0.00,VWS V14.01,2013-03-11 20:47:00,
2013-03-11 14:48:00,39.9,10.3,29.79,WNW,296,11.0,13.2,29,0.00,,---,0.00,VWS V14.01,2013-03-11 20:48:00,
2013-03-11 14:49:00,39.9,10.2,29.79,WNW,299,15.0,15.0,29,0.00,,---,0.00,VWS V14.01,2013-03-11 20:49:00,
2013-03-11 14:50:00,40.1,10.4,29.79,NW,318,10.1,15.0,29,0.00,,---,0.00,VWS V14.01,2013-03-11 20:50:00,
2013-03-11 14:51:00,40.3,10.6,29.79,West,269,12.8,15.0,29,0.00,,---,0.00,VWS V14.01,2013-03-11 20:51:00,
2013-03-11 14:52:00,40.3,10.6,29.79,West,266,15.0,15.0,29,0.00,,---,0.00,VWS V14.01,2013-03-11 20:52:00,
2013-03-11 14:53:00,40.3,10.6,29.79,NW,307,10.5,17.4,29,0.00,,---,0.00,VWS V14.01,2013-03-11 20:53:00,
2013-03-11 14:54:00,40.3,10.6,29.79,West,280,15.0,15.0,29,0.00,,---,0.00,VWS V14.01,2013-03-11 20:54:00,
2013-03-11 14:55:00,40.3,10.6,29.79,SW,236,17.0,17.0,29,0.00,,---,0.00,VWS V14.01,2013-03-11 20:55:00,
2013-03-11 14:56:00,40.5,10.7,29.79,WNW,286,11.0,17.0,29,0.00,,---,0.00,VWS V14.01,2013-03-11 20:56:00,
2013-03-11 14:57:00,40.5,10.7,29.79,WNW,285,11.0,21.9,29,0.00,,---,0.00,VWS V14.01,2013-03-11 20:57:00,
2013-03-11 14:58:00,40.3,10.6,29.79,SW,232,8.7,17.4,29,0.00,,---,0.00,VWS V14.01,2013-03-11 20:58:00,
2013-03-11 14:59:00,40.3,10.6,29.79,WNW,289,21.0,21.0,29,0.00,,---,0.00,VWS V14.01,2013-03-11 20:59:00,
2013-03-11 15:00:00,40.1,10.4,29.79,WNW,295,17.4,21.0,29,0.00,,---,0.00,VWS V14.01,2013-03-11 21:00:00,
2013-03-11 15:01:00,39.9,10.3,29.79,WNW,301,11.0,17.4,29,0.00,,---,0.00,VWS V14.01,2013-03-11 21:01:00,
2013-03-11 15:02:00,39.9,10.3,29.79,NW,316,18.8,19.7,29,0.00,,---,0.00,VWS V14.01,2013-03-11 21:02:00,
2013-03-11 15:03:00,40.1,10.4,29.79,West,274,11.9,18.8,29,0.00,,---,0.00,VWS V14.01,2013-03-11 21:03:00,
2013-03-11 15:04:00,40.1,10.4,29.79,WNW,282,15.0,15.0,29,0.00,,---,0.00,VWS V14.01,2013-03-11 21:04:00,
2013-03-11 15:05:00,40.1,10.4,29.79,West,273,13.2,15.0,29,0.00,,---,0.00,VWS V14.01,2013-03-11 21:05:00,
2013-03-11 15:06:00,40.1,10.4,29.79,WNW,283,19.7,19.7,29,0.00,,---,0.00,VWS V14.01,2013-03-11 21:06:00,
2013-03-11 15:07:00,39.9,10.3,29.79,West,260,15.4,19.7,29,0.00,,---,0.00,VWS V14.01,2013-03-11 21:07:00,
2013-03-11 15:08:00,39.9,10.3,29.79,West,278,7.6,17.0,29,0.00,,---,0.00,VWS V14.01,2013-03-11 21:08:00,
2013-03-11 15:09:00,39.9,10.2,29.79,West,264,13.2,13.2,29,0.00,,---,0.00,VWS V14.01,2013-03-11 21:09:00,
2013-03-11 15:10:00,39.9,10.3,29.79,NNW,337,12.3,17.4,29,0.00,,---,0.00,VWS V14.01,2013-03-11 21:10:00,
2013-03-11 15:11:00,39.9,10.3,29.79,WNW,291,10.5,12.3,29,0.00,,---,0.00,VWS V14.01,2013-03-11 21:11:00,
2013-03-11 15:12:00,39.9,10.3,29.79,West,271,12.8,15.0,29,0.00,,---,0.00,VWS V14.01,2013-03-11 21:12:00,
2013-03-11 15:13:00,39.9,10.3,29.79,WSW,257,13.2,16.8,29,0.00,,---,0.00,VWS V14.01,2013-03-11 21:13:00,
2013-03-11 15:14:00,39.9,10.2,29.79,West,263,12.8,12.8,29,0.00,,---,0.00,VWS V14.01,2013-03-11 21:14:00,
2013-03-11 15:15:00,40.1,10.4,29.79,West,264,15.4,15.4,29,0.00,,---,0.00,VWS V14.01,2013-03-11 21:15:00,
2013-03-11 15:16:00,40.1,10.4,29.79,West,274,13.2,16.3,29,0.00,,---,0.00,VWS V14.01,2013-03-11 21:16:00,
2013-03-11 15:17:00,40.3,10.6,29.79,WSW,258,11.9,13.2,29,0.00,,---,0.00,VWS V14.01,2013-03-11 21:17:00,
2013-03-11 15:18:00,40.3,10.6,29.79,WNW,283,11.0,12.8,29,0.00,,---,0.00,VWS V14.01,2013-03-11 21:18:00,
2013-03-11 15:19:00,40.3,10.6,29.79,West,276,14.5,14.5,29,0.00,,---,0.00,VWS V14.01,2013-03-11 21:19:00,
2013-03-11 15:20:00,40.3,10.6,29.79,NNW,330,13.2,15.4,29,0.00,,---,0.00,VWS V14.01,2013-03-11 21:20:00,
2013-03-11 15:21:00,40.3,10.6,29.79,West,280,15.4,17.0,29,0.00,,---,0.00,VWS V14.01,2013-03-11 21:21:00,
2013-03-11 15:22:00,40.3,10.6,29.79,WNW,294,11.9,15.4,29,0.00,,---,0.00,VWS V14.01,2013-03-11 21:22:00,
2013-03-11 15:23:00,40.1,10.4,29.79,WSW,255,17.0,17.4,29,0.00,,---,0.00,VWS V14.01,2013-03-11 21:23:00,
2013-03-11 15:24:00,39.9,10.2,29.79,WNW,291,19.2,19.2,29,0.00,,---,0.00,VWS V14.01,2013-03-11 21:24:00,
2013-03-11 15:25:00,39.9,10.3,29.79,NW,319,19.7,19.7,29,0.00,,---,0.00,VWS V14.01,2013-03-11 21:25:00,
2013-03-11 15:26:00,39.7,10.1,29.79,West,265,11.0,19.7,29,0.00,,---,0.00,VWS V14.01,2013-03-11 21:26:00,
2013-03-11 15:27:00,39.7,10.1,29.79,WNW,297,11.9,15.4,29,0.00,,---,0.00,VWS V14.01,2013-03-11 21:27:00,
2013-03-11 15:28:00,39.9,10.3,29.79,NW,314,13.2,20.1,29,0.00,,---,0.00,VWS V14.01,2013-03-11 21:28:00,
2013-03-11 15:29:00,39.7,10.1,29.79,West,263,14.5,16.3,29,0.00,,---,0.00,VWS V14.01,2013-03-11 21:29:00,
2013-03-11 15:30:00,39.7,10.1,29.79,West,273,11.9,19.2,29,0.00,,---,0.00,VWS V14.01,2013-03-11 21:30:00,
2013-03-11 15:31:00,39.6,9.9,29.79,NW,312,11.9,21.9,29,0.00,,---,0.00,VWS V14.01,2013-03-11 21:31:00,
2013-03-11 15:32:00,39.6,9.9,29.79,West,268,15.0,17.4,29,0.00,,---,0.00,VWS V14.01,2013-03-11 21:32:00,
2013-03-11 15:33:00,39.6,9.9,29.79,WNW,300,15.4,15.4,29,0.00,,---,0.00,VWS V14.01,2013-03-11 21:33:00,
2013-03-11 15:34:00,39.6,9.9,29.79,NW,308,14.1,21.9,29,0.00,,---,0.00,VWS V14.01,2013-03-11 21:34:00,
2013-03-11 15:35:00,39.6,9.9,29.79,West,263,15.9,21.9,29,0.00,,---,0.00,VWS V14.01,2013-03-11 21:35:00,
2013-03-11 15:36:00,39.6,9.9,29.79,WSW,247,9.2,15.9,29,0.00,,---,0.00,VWS V14.01,2013-03-11 21:36:00,
2013-03-11 15:37:00,39.7,10.1,29.79,NW,307,12.8,21.0,29,0.00,,---,0.00,VWS V14.01,2013-03-11 21:37:00,
2013-03-11 15:38:00,39.7,10.1,29.79,WNW,282,8.7,12.8,29,0.00,,---,0.00,VWS V14.01,2013-03-11 21:38:00,
2013-03-11 15:39:00,39.7,9.3,29.79,WSW,248,14.1,14.1,28,0.00,,---,0.00,VWS V14.01,2013-03-11 21:39:00,
2013-03-11 15:40:00,39.7,9.3,29.79,WSW,248,17.4,17.4,28,0.00,,---,0.00,VWS V14.01,2013-03-11 21:40:00,
2013-03-11 15:41:00,39.7,9.3,29.79,West,275,11.0,17.4,28,0.00,,---,0.00,VWS V14.01,2013-03-11 21:41:00,
2013-03-11 15:42:00,39.7,9.3,29.79,NW,314,14.5,14.5,28,0.00,,---,0.00,VWS V14.01,2013-03-11 21:42:00,
2013-03-11 15:43:00,39.7,9.3,29.79,NW,304,9.2,22.8,28,0.00,,---,0.00,VWS V14.01,2013-03-11 21:43:00,
2013-03-11 15:44:00,39.7,9.3,29.79,WNW,297,10.5,11.0,28,0.00,,---,0.00,VWS V14.01,2013-03-11 21:44:00,
2013-03-11 15:45:00,39.7,9.3,29.79,West,278,12.8,19.2,28,0.00,,---,0.00,VWS V14.01,2013-03-11 21:45:00,
2013-03-11 15:46:00,39.7,9.3,29.79,West,260,23.7,23.7,28,0.00,,---,0.00,VWS V14.01,2013-03-11 21:46:00,
2013-03-11 15:47:00,39.7,9.3,29.79,West,262,13.2,23.7,28,0.00,,---,0.00,VWS V14.01,2013-03-11 21:47:00,
2013-03-11 15:48:00,39.7,9.3,29.79,WNW,292,16.8,16.8,28,0.00,,---,0.00,VWS V14.01,2013-03-11 21:48:00,
2013-03-11 15:49:00,39.7,9.3,29.82,WNW,302,10.1,13.2,28,0.00,,---,0.00,VWS V14.01,2013-03-11 21:49:00,
2013-03-11 15:50:00,39.7,9.3,29.82,WNW,303,12.3,13.2,28,0.00,,---,0.00,VWS V14.01,2013-03-11 21:50:00,
2013-03-11 15:51:00,39.7,9.3,29.82,WNW,292,17.9,17.9,28,0.00,,---,0.00,VWS V14.01,2013-03-11 21:51:00,
2013-03-11 15:52:00,39.6,7.5,29.82,WNW,284,13.2,17.9,26,0.00,,---,0.00,VWS V14.01,2013-03-11 21:52:00,
2013-03-11 15:53:00,39.6,7.5,29.82,WNW,296,15.0,15.0,26,0.00,,---,0.00,VWS V14.01,2013-03-11 21:53:00,
2013-03-11 15:54:00,39.6,9.2,29.82,WSW,257,8.3,8.3,28,0.00,,---,0.00,VWS V14.01,2013-03-11 21:54:00,
2013-03-11 15:55:00,39.7,9.3,29.82,SW,214,6.3,8.3,28,0.00,,---,0.00,VWS V14.01,2013-03-11 21:55:00,
2013-03-11 15:56:00,39.7,9.3,29.82,NW,313,8.3,10.5,28,0.00,,---,0.00,VWS V14.01,2013-03-11 21:56:00,
2013-03-11 15:57:00,39.7,9.3,29.82,WNW,282,10.1,10.1,28,0.00,,---,0.00,VWS V14.01,2013-03-11 21:57:00,
2013-03-11 15:58:00,39.7,9.3,29.82,WSW,258,13.6,14.5,28,0.00,,---,0.00,VWS V14.01,2013-03-11 21:58:00,
2013-03-11 15:59:00,39.9,7.8,29.82,West,266,19.2,19.2,26,0.00,,---,0.00,VWS V14.01,2013-03-11 21:59:00,
2013-03-11 16:00:00,39.7,7.7,29.82,West,268,15.4,19.2,26,0.00,,---,0.00,VWS V14.01,2013-03-11 22:00:00,
2013-03-11 16:01:00,39.7,7.7,29.82,NW,312,10.5,15.4,26,0.00,,---,0.00,VWS V14.01,2013-03-11 22:01:00,
2013-03-11 16:02:00,39.9,7.8,29.82,West,273,12.3,15.4,26,0.00,,---,0.00,VWS V14.01,2013-03-11 22:02:00,
2013-03-11 16:03:00,39.7,7.7,29.82,West,271,11.0,12.3,26,0.00,,---,0.00,VWS V14.01,2013-03-11 22:03:00,
2013-03-11 16:04:00,39.7,7.7,29.82,West,268,10.5,16.8,26,0.00,,---,0.00,VWS V14.01,2013-03-11 22:04:00,
2013-03-11 16:05:00,39.7,7.7,29.82,NNW,334,12.8,16.8,26,0.00,,---,0.00,VWS V14.01,2013-03-11 22:05:00,
2013-03-11 16:06:00,39.9,7.8,29.82,NNW,331,17.4,17.4,26,0.00,,---,0.00,VWS V14.01,2013-03-11 22:06:00,
2013-03-11 16:07:00,39.9,7.8,29.82,WNW,293,17.0,17.4,26,0.00,,---,0.00,VWS V14.01,2013-03-11 22:07:00,
2013-03-11 16:08:00,39.9,7.8,29.82,WSW,247,17.4,22.8,26,0.00,,---,0.00,VWS V14.01,2013-03-11 22:08:00,
2013-03-11 16:09:00,39.9,7.8,29.82,WNW,283,8.7,10.5,26,0.00,,---,0.00,VWS V14.01,2013-03-11 22:09:00,
2013-03-11 16:10:00,39.9,7.8,29.82,West,274,12.3,12.3,26,0.00,,---,0.00,VWS V14.01,2013-03-11 22:10:00,
2013-03-11 16:11:00,39.9,7.8,29.82,West,274,7.2,12.3,26,0.00,,---,0.00,VWS V14.01,2013-03-11 22:11:00,
2013-03-11 16:12:00,40.1,8.0,29.82,NW,304,7.6,17.0,26,0.00,,---,0.00,VWS V14.01,2013-03-11 22:12:00,
2013-03-11 16:13:00,40.1,8.0,29.82,NW,310,12.3,16.3,26,0.00,,---,0.00,VWS V14.01,2013-03-11 22:13:00,
2013-03-11 16:14:00,40.1,8.0,29.82,WNW,297,12.8,12.8,26,0.00,,---,0.00,VWS V14.01,2013-03-11 22:14:00,
2013-03-11 16:15:00,40.1,8.0,29.82,WSW,240,17.0,23.3,26,0.00,,---,0.00,VWS V14.01,2013-03-11 22:15:00,
2013-03-11 16:16:00,39.9,7.8,29.82,West,267,8.7,17.0,26,0.00,,---,0.00,VWS V14.01,2013-03-11 22:16:00,
2013-03-11 16:17:00,39.9,7.8,29.82,WNW,303,10.5,12.8,26,0.00,,---,0.00,VWS V14.01,2013-03-11 22:17:00,
2013-03-11 16:18:00,39.9,7.8,29.82,NW,311,11.0,12.8,26,0.00,,---,0.00,VWS V14.01,2013-03-11 22:18:00,
2013-03-11 16:19:00,39.9,7.8,29.82,WNW,287,6.3,6.3,26,0.00,,---,0.00,VWS V14.01,2013-03-11 22:19:00,
2013-03-11 16:20:00,39.9,7.8,29.82,NW,304,17.4,17.4,26,0.00,,---,0.00,VWS V14.01,2013-03-11 22:20:00,
2013-03-11 16:21:00,39.7,7.7,29.82,WNW,296,15.9,17.4,26,0.00,,---,0.00,VWS V14.01,2013-03-11 22:21:00,
2013-03-11 16:22:00,39.7,7.7,29.82,West,277,14.5,15.9,26,0.00,,---,0.00,VWS V14.01,2013-03-11 22:22:00,
2013-03-11 16:23:00,39.7,7.7,29.82,WNW,298,17.4,22.8,26,0.00,,---,0.00,VWS V14.01,2013-03-11 22:23:00,
2013-03-11 16:24:00,39.7,7.7,29.82,West,264,8.3,14.1,26,0.00,,---,0.00,VWS V14.01,2013-03-11 22:24:00,
2013-03-11 16:25:00,39.7,7.7,29.82,WNW,287,12.3,14.1,26,0.00,,---,0.00,VWS V14.01,2013-03-11 22:25:00,
2013-03-11 16:26:00,39.9,7.8,29.82,West,279,11.4,12.8,26,0.00,,---,0.00,VWS V14.01,2013-03-11 22:26:00,
2013-03-11 16:27:00,39.9,7.8,29.82,NNW,331,11.0,12.8,26,0.00,,---,0.00,VWS V14.01,2013-03-11 22:27:00,
2013-03-11 16:28:00,39.9,7.8,29.82,West,268,15.4,16.8,26,0.00,,---,0.00,VWS V14.01,2013-03-11 22:28:00,
2013-03-11 16:29:00,39.9,7.8,29.82,NW,307,15.4,15.4,26,0.00,,---,0.00,VWS V14.01,2013-03-11 22:29:00,
2013-03-11 16:30:00,39.9,7.8,29.82,WNW,298,15.4,15.4,26,0.00,,---,0.00,VWS V14.01,2013-03-11 22:30:00,
2013-03-11 16:31:00,39.7,7.7,29.82,WNW,299,11.0,15.4,26,0.00,,---,0.00,VWS V14.01,2013-03-11 22:31:00,
2013-03-11 16:32:00,39.7,7.7,29.82,WNW,300,12.8,12.8,26,0.00,,---,0.00,VWS V14.01,2013-03-11 22:32:00,
2013-03-11 16:33:00,39.7,7.7,29.82,WSW,250,11.4,12.8,26,0.00,,---,0.00,VWS V14.01,2013-03-11 22:33:00,
2013-03-11 16:34:00,39.7,7.7,29.82,WSW,248,8.1,12.8,26,0.00,,---,0.00,VWS V14.01,2013-03-11 22:34:00,
2013-03-11 16:35:00,39.7,7.7,29.82,WNW,282,10.1,13.6,26,0.00,,---,0.00,VWS V14.01,2013-03-11 22:35:00,
2013-03-11 16:36:00,39.9,7.8,29.82,WNW,293,11.9,11.9,26,0.00,,---,0.00,VWS V14.01,2013-03-11 22:36:00,
2013-03-11 16:37:00,39.9,7.8,29.82,WNW,292,19.2,19.2,26,0.00,,---,0.00,VWS V14.01,2013-03-11 22:37:00,
2013-03-11 16:38:00,39.9,7.8,29.82,WNW,294,13.2,19.2,26,0.00,,---,0.00,VWS V14.01,2013-03-11 22:38:00,
2013-03-11 16:39:00,39.9,7.8,29.82,WSW,243,11.0,11.0,26,0.00,,---,0.00,VWS V14.01,2013-03-11 22:39:00,
2013-03-11 16:40:00,39.9,7.8,29.82,West,262,11.0,17.4,26,0.00,,---,0.00,VWS V14.01,2013-03-11 22:40:00,
2013-03-11 16:41:00,39.9,7.8,29.82,SW,229,12.8,16.3,26,0.00,,---,0.00,VWS V14.01,2013-03-11 22:41:00,
2013-03-11 16:42:00,39.7,7.7,29.82,WNW,283,12.3,13.2,26,0.00,,---,0.00,VWS V14.01,2013-03-11 22:42:00,
2013-03-11 16:43:00,39.7,7.7,29.82,WNW,295,11.0,13.6,26,0.00,,---,0.00,VWS V14.01,2013-03-11 22:43:00,
2013-03-11 16:44:00,39.9,7.8,29.82,WNW,291,8.7,14.5,26,0.00,,---,0.00,VWS V14.01,2013-03-11 22:44:00,
2013-03-11 16:45:00,39.9,5.1,29.82,West,270,17.0,17.0,23,0.00,,---,0.00,VWS V14.01,2013-03-11 22:45:00,
2013-03-11 16:46:00,39.9,5.1,29.82,WNW,294,15.4,17.4,23,0.00,,---,0.00,VWS V14.01,2013-03-11 22:46:00,
2013-03-11 16:47:00,39.9,5.1,29.82,WNW,295,10.5,21.5,23,0.00,,---,0.00,VWS V14.01,2013-03-11 22:47:00,
2013-03-11 16:48:00,39.9,5.1,29.82,NW,311,14.5,17.4,23,0.00,,---,0.00,VWS V14.01,2013-03-11 22:48:00,
2013-03-11 16:49:00,39.9,5.1,29.82,WNW,285,10.1,10.1,23,0.00,,---,0.00,VWS V14.01,2013-03-11 22:49:00,
2013-03-11 16:50:00,39.9,5.1,29.82,WSW,252,15.9,15.9,23,0.00,,---,0.00,VWS V14.01,2013-03-11 22:50:00,
2013-03-11 16:51:00,39.9,5.1,29.82,WNW,301,17.4,17.9,23,0.00,,---,0.00,VWS V14.01,2013-03-11 22:51:00,
2013-03-11 16:52:00,39.9,5.1,29.82,NNW,343,10.5,20.6,23,0.00,,---,0.00,VWS V14.01,2013-03-11 22:52:00,
2013-03-11 16:53:00,39.9,5.1,29.82,WNW,292,9.2,14.5,23,0.00,,---,0.00,VWS V14.01,2013-03-11 22:53:00,
2013-03-11 16:54:00,39.9,5.1,29.82,NW,313,8.1,13.2,23,0.00,,---,0.00,VWS V14.01,2013-03-11 22:54:00,
2013-03-11 16:55:00,39.9,5.1,29.82,WNW,283,8.3,15.4,23,0.00,,---,0.00,VWS V14.01,2013-03-11 22:55:00,
2013-03-11 16:56:00,39.9,5.1,29.82,West,262,12.8,12.8,23,0.00,,---,0.00,VWS V14.01,2013-03-11 22:56:00,
2013-03-11 16:57:00,39.9,5.1,29.82,WSW,254,8.3,17.0,23,0.00,,---,0.00,VWS V14.01,2013-03-11 22:57:00,
2013-03-11 16:58:00,39.9,5.1,29.82,WNW,303,8.7,8.7,23,0.00,,---,0.00,VWS V14.01,2013-03-11 22:58:00,
2013-03-11 16:59:00,39.9,5.1,29.82,WNW,297,8.1,8.1,23,0.00,,---,0.00,VWS V14.01,2013-03-11 22:59:00,
2013-03-11 17:00:00,39.9,5.1,29.82,West,273,8.7,12.8,23,0.00,,---,0.00,VWS V14.01,2013-03-11 23:00:00,
2013-03-11 17:01:00,40.1,5.3,29.82,WNW,289,11.0,15.0,23,0.00,,---,0.00,VWS V14.01,2013-03-11 23:01:00,
2013-03-11 17:02:00,40.1,5.3,29.82,NW,311,8.7,15.0,23,0.00,,---,0.00,VWS V14.01,2013-03-11 23:02:00,
2013-03-11 17:03:00,40.1,5.3,29.82,West,266,10.1,12.3,23,0.00,,---,0.00,VWS V14.01,2013-03-11 23:03:00,
2013-03-11 17:04:00,40.1,5.3,29.79,West,268,6.3,8.1,23,0.00,,---,0.00,VWS V14.01,2013-03-11 23:04:00,
2013-03-11 17:05:00,40.1,5.3,29.79,WNW,284,8.3,8.3,23,0.00,,---,0.00,VWS V14.01,2013-03-11 23:05:00,
2013-03-11 17:06:00,40.3,5.4,29.79,WSW,255,12.8,14.1,23,0.00,,---,0.00,VWS V14.01,2013-03-11 23:06:00,
2013-03-11 17:07:00,40.3,5.4,29.79,West,272,10.1,12.8,23,0.00,,---,0.00,VWS V14.01,2013-03-11 23:07:00,
2013-03-11 17:08:00,40.3,5.4,29.79,WSW,243,5.8,10.5,23,0.00,,---,0.00,VWS V14.01,2013-03-11 23:08:00,
2013-03-11 17:09:00,40.3,5.4,29.79,NW,310,8.3,8.3,23,0.00,,---,0.00,VWS V14.01,2013-03-11 23:09:00,
2013-03-11 17:10:00,40.3,5.4,29.79,West,279,8.1,8.7,23,0.00,,---,0.00,VWS V14.01,2013-03-11 23:10:00,
2013-03-11 17:11:00,40.3,5.4,29.79,WNW,288,4.0,8.1,23,0.00,,---,0.00,VWS V14.01,2013-03-11 23:11:00,
2013-03-11 17:12:00,40.3,5.4,29.79,NW,318,5.8,10.1,23,0.00,,---,0.00,VWS V14.01,2013-03-11 23:12:00,
2013-03-11 17:13:00,40.3,5.4,29.79,WNW,284,12.3,13.2,23,0.00,,---,0.00,VWS V14.01,2013-03-11 23:13:00,
2013-03-11 17:14:00,40.3,5.4,29.79,WNW,288,13.2,13.2,23,0.00,,---,0.00,VWS V14.01,2013-03-11 23:14:00,
2013-03-11 17:15:00,40.3,5.4,29.79,West,279,13.2,13.2,23,0.00,,---,0.00,VWS V14.01,2013-03-11 23:15:00,
2013-03-11 17:16:00,40.3,5.4,29.79,WNW,297,14.5,14.5,23,0.00,,---,0.00,VWS V14.01,2013-03-11 23:16:00,
2013-03-11 17:17:00,40.1,5.3,29.79,WNW,288,12.3,14.5,23,0.00,,---,0.00,VWS V14.01,2013-03-11 23:17:00,
2013-03-11 17:18:00,40.1,5.3,29.79,NW,316,2.7,12.3,23,0.00,,---,0.00,VWS V14.01,2013-03-11 23:18:00,
2013-03-11 17:19:00,40.3,5.4,29.79,West,274,8.1,8.1,23,0.00,,---,0.00,VWS V14.01,2013-03-11 23:19:00,
2013-03-11 17:20:00,40.3,5.4,29.79,WSW,256,8.3,10.5,23,0.00,,---,0.00,VWS V14.01,2013-03-11 23:20:00,
2013-03-11 17:21:00,40.3,5.4,29.79,WNW,300,5.8,11.0,23,0.00,,---,0.00,VWS V14.01,2013-03-11 23:21:00,
2013-03-11 17:22:00,40.3,5.4,29.79,NW,326,8.1,10.1,23,0.00,,---,0.00,VWS V14.01,2013-03-11 23:22:00,
2013-03-11 17:23:00,40.3,5.4,29.79,West,278,5.4,8.7,23,0.00,,---,0.00,VWS V14.01,2013-03-11 23:23:00,
2013-03-11 17:24:00,40.3,8.1,29.79,NW,323,8.3,8.3,26,0.00,,---,0.00,VWS V14.01,2013-03-11 23:24:00,
2013-03-11 17:25:00,40.5,8.3,29.79,WNW,283,8.3,10.5,26,0.00,,---,0.00,VWS V14.01,2013-03-11 23:25:00,
2013-03-11 17:26:00,40.5,5.6,29.79,NW,305,8.7,14.1,23,0.00,,---,0.00,VWS V14.01,2013-03-11 23:26:00,
2013-03-11 17:27:00,40.5,5.6,29.79,WNW,289,5.4,11.0,23,0.00,,---,0.00,VWS V14.01,2013-03-11 23:27:00,
2013-03-11 17:28:00,40.3,8.1,29.79,WSW,238,5.4,8.7,26,0.00,,---,0.00,VWS V14.01,2013-03-11 23:28:00,
2013-03-11 17:29:00,40.3,8.1,29.79,NW,315,9.2,9.2,26,0.00,,---,0.00,VWS V14.01,2013-03-11 23:29:00,
2013-03-11 17:30:00,40.5,8.3,29.79,WNW,287,4.5,9.2,26,0.00,,---,0.00,VWS V14.01,2013-03-11 23:30:00,
2013-03-11 17:31:00,40.5,8.3,29.79,NW,308,8.3,8.3,26,0.00,,---,0.00,VWS V14.01,2013-03-11 23:31:00,
2013-03-11 17:32:00,40.5,8.3,29.79,WNW,290,7.6,9.2,26,0.00,,---,0.00,VWS V14.01,2013-03-11 23:32:00,
2013-03-11 17:33:00,40.5,5.6,29.79,WNW,289,10.1,10.1,23,0.00,,---,0.00,VWS V14.01,2013-03-11 23:33:00,
2013-03-11 17:34:00,40.5,5.6,29.82,NW,305,13.2,13.2,23,0.00,,---,0.00,VWS V14.01,2013-03-11 23:34:00,
2013-03-11 17:35:00,40.5,5.6,29.82,NW,312,7.6,13.2,23,0.00,,---,0.00,VWS V14.01,2013-03-11 23:35:00,
2013-03-11 17:36:00,40.3,5.4,29.82,West,281,8.7,11.0,23,0.00,,---,0.00,VWS V14.01,2013-03-11 23:36:00,
2013-03-11 17:37:00,40.3,5.4,29.82,WNW,291,8.3,10.1,23,0.00,,---,0.00,VWS V14.01,2013-03-11 23:37:00,
2013-03-11 17:38:00,40.3,8.1,29.82,WSW,250,5.8,8.3,26,0.00,,---,0.00,VWS V14.01,2013-03-11 23:38:00,
2013-03-11 17:39:00,40.3,8.1,29.82,NW,322,2.7,2.7,26,0.00,,---,0.00,VWS V14.01,2013-03-11 23:39:00,
2013-03-11 17:40:00,40.5,8.3,29.82,West,267,6.3,6.3,26,0.00,,---,0.00,VWS V14.01,2013-03-11 23:40:00,
2013-03-11 17:41:00,40.5,8.3,29.82,West,260,4.9,8.3,26,0.00,,---,0.00,VWS V14.01,2013-03-11 23:41:00,
2013-03-11 17:42:00,40.5,8.3,29.82,West,264,10.1,10.1,26,0.00,,---,0.00,VWS V14.01,2013-03-11 23:42:00,
2013-03-11 17:43:00,40.5,8.3,29.82,West,259,5.4,10.1,26,0.00,,---,0.00,VWS V14.01,2013-03-11 23:43:00,
2013-03-11 17:44:00,40.5,8.3,29.82,SW,235,8.1,8.1,26,0.00,,---,0.00,VWS V14.01,2013-03-11 23:44:00,
2013-03-11 17:45:00,40.3,8.1,29.82,WNW,299,7.6,8.7,26,0.00,,---,0.00,VWS V14.01,2013-03-11 23:45:00,
2013-03-11 17:46:00,40.3,8.1,29.82,West,273,8.7,8.7,26,0.00,,---,0.00,VWS V14.01,2013-03-11 23:46:00,
2013-03-11 17:47:00,40.3,8.1,29.82,WNW,289,5.8,10.1,26,0.00,,---,0.00,VWS V14.01,2013-03-11 23:47:00,
2013-03-11 17:48:00,40.1,8.0,29.82,West,281,3.6,10.5,26,0.00,,---,0.00,VWS V14.01,2013-03-11 23:48:00,
2013-03-11 17:49:00,40.1,8.0,29.82,WSW,252,7.6,8.3,26,0.00,,---,0.00,VWS V14.01,2013-03-11 23:49:00,
2013-03-11 17:50:00,40.1,8.0,29.82,SW,236,5.8,8.3,26,0.00,,---,0.00,VWS V14.01,2013-03-11 23:50:00,
2013-03-11 17:51:00,40.3,8.1,29.82,West,259,6.3,6.3,26,0.00,,---,0.00,VWS V14.01,2013-03-11 23:51:00,
2013-03-11 17:52:00,40.3,8.1,29.82,NW,322,5.4,11.0,26,0.00,,---,0.00,VWS V14.01,2013-03-11 23:52:00,
2013-03-11 17:53:00,40.3,8.1,29.82,WSW,243,6.3,8.1,26,0.00,,---,0.00,VWS V14.01,2013-03-11 23:53:00,
2013-03-11 17:54:00,40.3,8.1,29.82,NW,321,6.3,6.3,26,0.00,,---,0.00,VWS V14.01,2013-03-11 23:54:00,
2013-03-11 17:55:00,40.3,8.1,29.82,West,274,8.3,8.3,26,0.00,,---,0.00,VWS V14.01,2013-03-11 23:55:00,
2013-03-11 17:56:00,40.3,8.1,29.82,WNW,286,7.6,8.3,26,0.00,,---,0.00,VWS V14.01,2013-03-11 23:56:00,
2013-03-11 17:57:00,40.1,8.0,29.82,NW,309,7.2,7.6,26,0.00,,---,0.00,VWS V14.01,2013-03-11 23:57:00,
2013-03-11 17:58:00,40.1,8.0,29.82,WSW,247,4.0,7.2,26,0.00,,---,0.00,VWS V14.01,2013-03-11 23:58:00,
2013-03-11 17:59:00,40.1,8.0,29.82,West,274,3.1,5.4,26,0.00,,---,0.00,VWS V14.01,2013-03-11 23:59:00,
2013-03-11 18:00:00,40.1,8.0,29.82,NW,312,6.3,6.3,26,0.00,,---,0.00,VWS V14.01,2013-03-12 00:00:00,
2013-03-11 18:01:00,40.1,8.0,29.82,WNW,282,6.3,8.1,26,0.00,,---,0.00,VWS V14.01,2013-03-12 00:01:00,
2013-03-11 18:02:00,40.1,8.0,29.82,WNW,285,5.8,6.3,26,0.00,,---,0.00,VWS V14.01,2013-03-12 00:02:00,
2013-03-11 18:03:00,40.1,8.0,29.82,WNW,301,5.4,5.8,26,0.00,,---,0.00,VWS V14.01,2013-03-12 00:03:00,
2013-03-11 18:04:00,40.1,8.0,29.82,NW,312,3.6,4.9,26,0.00,,---,0.00,VWS V14.01,2013-03-12 00:04:00,
2013-03-11 18:05:00,40.1,8.0,29.82,WNW,299,4.0,6.3,26,0.00,,---,0.00,VWS V14.01,2013-03-12 00:05:00,
2013-03-11 18:06:00,40.1,8.0,29.82,NNW,327,3.1,4.9,26,0.00,,---,0.00,VWS V14.01,2013-03-12 00:06:00,
2013-03-11 18:07:00,40.1,8.0,29.82,NW,324,4.0,5.8,26,0.00,,---,0.00,VWS V14.01,2013-03-12 00:07:00,
2013-03-11 18:08:00,40.3,8.1,29.82,WNW,288,6.7,6.7,26,0.00,,---,0.00,VWS V14.01,2013-03-12 00:08:00,
2013-03-11 18:09:00,40.3,8.1,29.82,West,267,5.8,5.8,26,0.00,,---,0.00,VWS V14.01,2013-03-12 00:09:00,
2013-03-11 18:10:00,40.3,8.1,29.82,NW,322,5.8,5.8,26,0.00,,---,0.00,VWS V14.01,2013-03-12 00:10:00,
2013-03-11 18:11:00,40.3,8.1,29.82,WNW,298,8.7,10.1,26,0.00,,---,0.00,VWS V14.01,2013-03-12 00:11:00,
2013-03-11 18:12:00,40.3,8.1,29.82,WNW,303,5.4,8.7,26,0.00,,---,0.00,VWS V14.01,2013-03-12 00:12:00,
2013-03-11 18:13:00,40.1,8.0,29.82,WNW,303,2.2,5.8,26,0.00,,---,0.00,VWS V14.01,2013-03-12 00:13:00,
2013-03-11 18:14:00,40.1,8.0,29.82,North,353,3.6,7.6,26,0.00,,---,0.00,VWS V14.01,2013-03-12 00:14:00,
2013-03-11 18:15:00,39.9,7.8,29.82,NW,321,2.7,7.6,26,0.00,,---,0.00,VWS V14.01,2013-03-12 00:15:00,
2013-03-11 18:16:00,39.9,7.8,29.82,WNW,293,4.9,4.9,26,0.00,,---,0.00,VWS V14.01,2013-03-12 00:16:00,
2013-03-11 18:17:00,39.9,7.8,29.82,WNW,297,3.6,5.4,26,0.00,,---,0.00,VWS V14.01,2013-03-12 00:17:00,
2013-03-11 18:18:00,39.9,7.8,29.82,WNW,296,2.2,3.6,26,0.00,,---,0.00,VWS V14.01,2013-03-12 00:18:00,
2013-03-11 18:19:00,39.9,7.8,29.82,West,266,3.6,3.6,26,0.00,,---,0.00,VWS V14.01,2013-03-12 00:19:00,
2013-03-11 18:20:00,40.1,8.0,29.82,WNW,298,6.3,8.1,26,0.00,,---,0.00,VWS V14.01,2013-03-12 00:20:00,
2013-03-11 18:21:00,40.1,8.0,29.82,West,281,6.3,8.7,26,0.00,,---,0.00,VWS V14.01,2013-03-12 00:21:00,
2013-03-11 18:22:00,39.9,7.8,29.82,NW,317,8.7,8.7,26,0.00,,---,0.00,VWS V14.01,2013-03-12 00:22:00,
2013-03-11 18:23:00,39.9,7.8,29.82,NW,307,7.6,8.7,26,0.00,,---,0.00,VWS V14.01,2013-03-12 00:23:00,
2013-03-11 18:24:00,39.9,7.8,29.82,WNW,296,2.2,2.2,26,0.00,,---,0.00,VWS V14.01,2013-03-12 00:24:00,
2013-03-11 18:25:00,39.7,7.7,29.82,NW,309,5.8,5.8,26,0.00,,---,0.00,VWS V14.01,2013-03-12 00:25:00,
2013-03-11 18:26:00,39.7,7.7,29.82,WNW,298,10.5,11.9,26,0.00,,---,0.00,VWS V14.01,2013-03-12 00:26:00,
2013-03-11 18:27:00,39.7,7.7,29.82,NW,305,7.6,10.5,26,0.00,,---,0.00,VWS V14.01,2013-03-12 00:27:00,
2013-03-11 18:28:00,39.7,7.7,29.82,NW,305,4.0,7.6,26,0.00,,---,0.00,VWS V14.01,2013-03-12 00:28:00,
2013-03-11 18:29:00,39.7,7.7,29.82,NW,321,5.8,8.1,26,0.00,,---,0.00,VWS V14.01,2013-03-12 00:29:00,
2013-03-11 18:30:00,39.7,7.7,29.82,WNW,282,8.1,8.1,26,0.00,,---,0.00,VWS V14.01,2013-03-12 00:30:00,
2013-03-11 18:31:00,39.7,7.7,29.82,WNW,297,5.8,8.3,26,0.00,,---,0.00,VWS V14.01,2013-03-12 00:31:00,
2013-03-11 18:32:00,39.6,7.5,29.82,WSW,244,3.6,5.8,26,0.00,,---,0.00,VWS V14.01,2013-03-12 00:32:00,
2013-03-11 18:33:00,39.6,7.5,29.82,WNW,289,3.6,5.8,26,0.00,,---,0.00,VWS V14.01,2013-03-12 00:33:00,
2013-03-11 18:34:00,39.6,7.5,29.82,NNW,348,5.8,5.8,26,0.00,,---,0.00,VWS V14.01,2013-03-12 00:34:00,
2013-03-11 18:35:00,39.6,7.5,29.82,WNW,284,4.0,5.8,26,0.00,,---,0.00,VWS V14.01,2013-03-12 00:35:00,
2013-03-11 18:36:00,39.6,7.5,29.82,SW,226,4.0,4.0,26,0.00,,---,0.00,VWS V14.01,2013-03-12 00:36:00,
2013-03-11 18:37:00,39.6,7.5,29.82,NW,319,3.6,8.1,26,0.00,,---,0.00,VWS V14.01,2013-03-12 00:37:00,
2013-03-11 18:38:00,39.6,7.5,29.82,WSW,241,4.9,4.9,26,0.00,,---,0.00,VWS V14.01,2013-03-12 00:38:00,
2013-03-11 18:39:00,39.7,7.7,29.82,West,279,3.6,6.7,26,0.00,,---,0.00,VWS V14.01,2013-03-12 00:39:00,
2013-03-11 18:40:00,39.7,7.7,29.82,West,264,4.0,6.7,26,0.00,,---,0.00,VWS V14.01,2013-03-12 00:40:00,
2013-03-11 18:41:00,39.7,7.7,29.82,WNW,298,3.1,8.7,26,0.00,,---,0.00,VWS V14.01,2013-03-12 00:41:00,
2013-03-11 18:42:00,39.7,7.7,29.82,West,266,3.6,6.3,26,0.00,,---,0.00,VWS V14.01,2013-03-12 00:42:00,
2013-03-11 18:43:00,39.7,7.7,29.82,West,272,4.9,4.9,26,0.00,,---,0.00,VWS V14.01,2013-03-12 00:43:00,
2013-03-11 18:44:00,39.7,7.7,29.82,WSW,244,6.3,6.3,26,0.00,,---,0.00,VWS V14.01,2013-03-12 00:44:00,
2013-03-11 18:45:00,39.6,7.5,29.82,NW,305,3.1,7.6,26,0.00,,---,0.00,VWS V14.01,2013-03-12 00:45:00,
2013-03-11 18:46:00,39.6,7.5,29.82,WSW,257,4.0,7.6,26,0.00,,---,0.00,VWS V14.01,2013-03-12 00:46:00,
2013-03-11 18:47:00,39.6,7.5,29.82,WNW,300,4.0,5.8,26,0.00,,---,0.00,VWS V14.01,2013-03-12 00:47:00,
2013-03-11 18:48:00,39.4,7.4,29.82,WNW,303,8.3,8.3,26,0.00,,---,0.00,VWS V14.01,2013-03-12 00:48:00,
2013-03-11 18:49:00,39.4,7.4,29.82,NW,317,8.3,8.3,26,0.00,,---,0.00,VWS V14.01,2013-03-12 00:49:00,
2013-03-11 18:50:00,39.4,7.4,29.82,WNW,296,2.2,8.3,26,0.00,,---,0.00,VWS V14.01,2013-03-12 00:50:00,
2013-03-11 18:51:00,39.2,7.2,29.82,WNW,300,0.0,2.2,26,0.00,,---,0.00,VWS V14.01,2013-03-12 00:51:00,
2013-03-11 18:52:00,39.2,7.2,29.82,SW,235,2.7,2.7,26,0.00,,---,0.00,VWS V14.01,2013-03-12 00:52:00,
2013-03-11 18:53:00,39.2,7.2,29.82,SW,236,5.4,7.6,26,0.00,,---,0.00,VWS V14.01,2013-03-12 00:53:00,
2013-03-11 18:54:00,39.2,7.2,29.82,NW,317,4.0,5.8,26,0.00,,---,0.00,VWS V14.01,2013-03-12 00:54:00,
2013-03-11 18:55:00,39.2,7.2,29.82,WNW,284,4.0,6.3,26,0.00,,---,0.00,VWS V14.01,2013-03-12 00:55:00,
2013-03-11 18:56:00,39.0,7.1,29.82,WSW,254,4.0,5.8,26,0.00,,---,0.00,VWS V14.01,2013-03-12 00:56:00,
2013-03-11 18:57:00,38.8,6.9,29.82,West,260,3.6,8.1,26,0.00,,---,0.00,VWS V14.01,2013-03-12 00:57:00,
2013-03-11 18:58:00,38.8,6.9,29.82,NW,305,5.4,6.3,26,0.00,,---,0.00,VWS V14.01,2013-03-12 00:58:00,
2013-03-11 18:59:00,38.8,6.9,29.82,WNW,303,3.1,3.1,26,0.00,,---,0.00,VWS V14.01,2013-03-12 00:59:00,
2013-03-11 19:00:00,38.7,6.7,29.82,NW,320,2.7,7.6,26,0.00,,---,0.00,VWS V14.01,2013-03-12 01:00:00,
2013-03-11 19:01:00,38.7,6.7,29.82,NW,319,6.3,6.3,26,0.00,,---,0.00,VWS V14.01,2013-03-12 01:01:00,
2013-03-11 19:02:00,38.7,9.2,29.82,WNW,283,4.0,6.3,29,0.00,,---,0.00,VWS V14.01,2013-03-12 01:02:00,
2013-03-11 19:03:00,38.7,9.2,29.82,WNW,303,3.6,8.7,29,0.00,,---,0.00,VWS V14.01,2013-03-12 01:03:00,
2013-03-11 19:04:00,38.5,9.0,29.85,NW,315,6.3,6.3,29,0.00,,---,0.00,VWS V14.01,2013-03-12 01:04:00,
2013-03-11 19:05:00,38.5,9.0,29.85,WNW,294,4.9,6.7,29,0.00,,---,0.00,VWS V14.01,2013-03-12 01:05:00,
2013-03-11 19:06:00,38.5,9.0,29.85,West,274,6.3,7.6,29,0.00,,---,0.00,VWS V14.01,2013-03-12 01:06:00,
2013-03-11 19:07:00,38.3,8.8,29.85,WSW,244,8.1,8.1,29,0.00,,---,0.00,VWS V14.01,2013-03-12 01:07:00,
2013-03-11 19:08:00,38.1,8.7,29.85,SW,228,4.9,8.1,29,0.00,,---,0.00,VWS V14.01,2013-03-12 01:08:00,
2013-03-11 19:09:00,38.1,8.7,29.85,WSW,257,0.0,0.0,29,0.00,,---,0.00,VWS V14.01,2013-03-12 01:09:00,
2013-03-11 19:10:00,38.1,8.7,29.85,SSW,210,6.3,6.3,29,0.00,,---,0.00,VWS V14.01,2013-03-12 01:10:00,
2013-03-11 19:11:00,38.1,8.7,29.85,NW,304,3.1,7.6,29,0.00,,---,0.00,VWS V14.01,2013-03-12 01:11:00,
2013-03-11 19:12:00,37.9,8.5,29.85,West,261,6.3,6.3,29,0.00,,---,0.00,VWS V14.01,2013-03-12 01:12:00,
2013-03-11 19:13:00,37.9,8.5,29.85,West,262,3.1,7.6,29,0.00,,---,0.00,VWS V14.01,2013-03-12 01:13:00,
2013-03-11 19:14:00,37.9,6.1,29.85,West,265,6.3,6.3,26,0.00,,---,0.00,VWS V14.01,2013-03-12 01:14:00,
2013-03-11 19:15:00,37.9,6.1,29.85,WNW,287,4.0,6.3,26,0.00,,---,0.00,VWS V14.01,2013-03-12 01:15:00,
2013-03-11 19:16:00,37.9,8.5,29.85,NW,306,2.7,5.8,29,0.00,,---,0.00,VWS V14.01,2013-03-12 01:16:00,
2013-03-11 19:17:00,37.9,8.5,29.85,WNW,289,4.0,4.0,29,0.00,,---,0.00,VWS V14.01,2013-03-12 01:17:00,
2013-03-11 19:18:00,37.8,6.0,29.85,WSW,248,4.9,6.3,26,0.00,,---,0.00,VWS V14.01,2013-03-12 01:18:00,
2013-03-11 19:19:00,37.8,6.0,29.85,WNW,291,8.3,8.3,26,0.00,,---,0.00,VWS V14.01,2013-03-12 01:19:00,
2013-03-11 19:20:00,37.8,6.0,29.85,WNW,294,3.1,8.3,26,0.00,,---,0.00,VWS V14.01,2013-03-12 01:20:00,
2013-03-11 19:21:00,37.8,8.4,29.85,SW,218,2.7,3.6,29,0.00,,---,0.00,VWS V14.01,2013-03-12 01:21:00,
2013-03-11 19:22:00,37.6,8.2,29.85,WSW,241,5.4,5.4,29,0.00,,---,0.00,VWS V14.01,2013-03-12 01:22:00,
2013-03-11 19:23:00,37.6,8.2,29.85,WSW,252,5.4,7.6,29,0.00,,---,0.00,VWS V14.01,2013-03-12 01:23:00,
2013-03-11 19:24:00,37.6,8.2,29.85,West,275,0.0,0.0,29,0.00,,---,0.00,VWS V14.01,2013-03-12 01:24:00,
2013-03-11 19:25:00,37.6,8.2,29.85,West,276,3.1,6.3,29,0.00,,---,0.00,VWS V14.01,2013-03-12 01:25:00,
2013-03-11 19:26:00,37.4,8.1,29.85,SW,224,4.0,4.0,29,0.00,,---,0.00,VWS V14.01,2013-03-12 01:26:00,
2013-03-11 19:27:00,37.4,8.1,29.85,WSW,243,4.0,5.4,29,0.00,,---,0.00,VWS V14.01,2013-03-12 01:27:00,
2013-03-11 19:28:00,37.4,8.1,29.85,West,268,5.8,5.8,29,0.00,,---,0.00,VWS V14.01,2013-03-12 01:28:00,
2013-03-11 19:29:00,37.4,8.1,29.85,WSW,257,3.1,3.1,29,0.00,,---,0.00,VWS V14.01,2013-03-12 01:29:00,
2013-03-11 19:30:00,37.2,7.9,29.85,SSW,205,2.7,4.0,29,0.00,,---,0.00,VWS V14.01,2013-03-12 01:30:00,
2013-03-11 19:31:00,37.2,7.9,29.85,WSW,243,2.7,3.6,29,0.00,,---,0.00,VWS V14.01,2013-03-12 01:31:00,
2013-03-11 19:32:00,37.2,7.9,29.85,SW,234,5.4,5.4,29,0.00,,---,0.00,VWS V14.01,2013-03-12 01:32:00,
2013-03-11 19:33:00,37.2,7.9,29.85,NW,312,2.7,5.4,29,0.00,,---,0.00,VWS V14.01,2013-03-12 01:33:00,
2013-03-11 19:34:00,37.0,7.8,29.85,NW,312,0.0,0.0,29,0.00,,---,0.00,VWS V14.01,2013-03-12 01:34:00,
2013-03-11 19:35:00,37.0,7.8,29.85,WNW,303,0.0,0.0,29,0.00,,---,0.00,VWS V14.01,2013-03-12 01:35:00,
2013-03-11 19:36:00,37.0,7.8,29.85,NW,321,0.0,0.0,29,0.00,,---,0.00,VWS V14.01,2013-03-12 01:36:00,
2013-03-11 19:37:00,37.0,7.8,29.85,NW,321,0.0,0.0,29,0.00,,---,0.00,VWS V14.01,2013-03-12 01:37:00,
2013-03-11 19:38:00,37.0,7.8,29.85,NW,315,0.0,0.0,29,0.00,,---,0.00,VWS V14.01,2013-03-12 01:38:00,
2013-03-11 19:39:00,37.0,7.8,29.85,NW,312,0.0,0.0,29,0.00,,---,0.00,VWS V14.01,2013-03-12 01:39:00,
2013-03-11 19:40:00,36.9,7.6,29.85,NW,312,0.0,0.0,29,0.00,,---,0.00,VWS V14.01,2013-03-12 01:40:00,
2013-03-11 19:41:00,36.9,7.6,29.85,NW,311,0.0,0.0,29,0.00,,---,0.00,VWS V14.01,2013-03-12 01:41:00,
2013-03-11 19:42:00,36.9,7.6,29.85,SSW,203,0.0,0.0,29,0.00,,---,0.00,VWS V14.01,2013-03-12 01:42:00,
2013-03-11 19:43:00,36.9,7.6,29.85,WSW,238,3.6,3.6,29,0.00,,---,0.00,VWS V14.01,2013-03-12 01:43:00,
2013-03-11 19:44:00,36.7,7.4,29.85,WSW,256,3.1,5.4,29,0.00,,---,0.00,VWS V14.01,2013-03-12 01:44:00,
2013-03-11 19:45:00,36.7,7.4,29.85,WNW,297,2.2,4.0,29,0.00,,---,0.00,VWS V14.01,2013-03-12 01:45:00,
2013-03-11 19:46:00,36.7,7.4,29.85,NW,308,3.1,3.1,29,0.00,,---,0.00,VWS V14.01,2013-03-12 01:46:00,
2013-03-11 19:47:00,36.7,7.4,29.85,West,266,3.6,3.6,29,0.00,,---,0.00,VWS V14.01,2013-03-12 01:47:00,
2013-03-11 19:48:00,36.7,7.4,29.85,West,268,2.2,4.0,29,0.00,,---,0.00,VWS V14.01,2013-03-12 01:48:00,
2013-03-11 19:49:00,36.7,7.4,29.85,West,276,2.7,3.1,29,0.00,,---,0.00,VWS V14.01,2013-03-12 01:49:00,
2013-03-11 19:50:00,36.5,7.3,29.85,West,276,2.2,3.1,29,0.00,,---,0.00,VWS V14.01,2013-03-12 01:50:00,
2013-03-11 19:51:00,36.5,7.3,29.85,WSW,245,4.9,4.9,29,0.00,,---,0.00,VWS V14.01,2013-03-12 01:51:00,
2013-03-11 19:52:00,36.5,7.3,29.85,WSW,245,3.6,4.9,29,0.00,,---,0.00,VWS V14.01,2013-03-12 01:52:00,
2013-03-11 19:53:00,36.5,7.3,29.85,WNW,295,3.6,3.6,29,0.00,,---,0.00,VWS V14.01,2013-03-12 01:53:00,
2013-03-11 19:54:00,36.5,7.3,29.85,West,259,4.0,4.0,29,0.00,,---,0.00,VWS V14.01,2013-03-12 01:54:00,
2013-03-11 19:55:00,36.5,7.3,29.85,West,261,3.6,4.0,29,0.00,,---,0.00,VWS V14.01,2013-03-12 01:55:00,
2013-03-11 19:56:00,36.5,7.3,29.85,West,269,3.6,3.6,29,0.00,,---,0.00,VWS V14.01,2013-03-12 01:56:00,
2013-03-11 19:57:00,36.5,7.3,29.85,West,269,0.0,3.6,29,0.00,,---,0.00,VWS V14.01,2013-03-12 01:57:00,
2013-03-11 19:58:00,36.3,7.1,29.85,West,269,0.0,0.0,29,0.00,,---,0.00,VWS V14.01,2013-03-12 01:58:00,
2013-03-11 19:59:00,36.3,7.1,29.85,SW,218,0.0,0.0,29,0.00,,---,0.00,VWS V14.01,2013-03-12 01:59:00,
2013-03-11 20:00:00,36.3,7.1,29.85,WSW,243,0.0,0.0,29,0.00,,---,0.00,VWS V14.01,2013-03-12 02:00:00,
2013-03-11 20:01:00,36.3,7.1,29.85,WSW,239,2.7,3.6,29,0.00,,---,0.00,VWS V14.01,2013-03-12 02:01:00,
2013-03-11 20:02:00,36.1,7.0,29.85,WSW,238,4.0,4.0,29,0.00,,---,0.00,VWS V14.01,2013-03-12 02:02:00,
2013-03-11 20:03:00,36.1,7.0,29.85,West,276,3.1,4.0,29,0.00,,---,0.00,VWS V14.01,2013-03-12 02:03:00,
2013-03-11 20:04:00,36.1,7.0,29.85,SW,234,2.2,3.6,29,0.00,,---,0.00,VWS V14.01,2013-03-12 02:04:00,
2013-03-11 20:05:00,36.1,7.0,29.85,SW,222,3.6,4.5,29,0.00,,---,0.00,VWS V14.01,2013-03-12 02:05:00,
2013-03-11 20:06:00,36.1,7.0,29.85,West,277,3.1,5.8,29,0.00,,---,0.00,VWS V14.01,2013-03-12 02:06:00,
2013-03-11 20:07:00,36.1,7.7,29.85,West,264,3.6,5.4,30,0.00,,---,0.00,VWS V14.01,2013-03-12 02:07:00,
2013-03-11 20:08:00,36.1,7.7,29.85,West,274,2.7,4.0,30,0.00,,---,0.00,VWS V14.01,2013-03-12 02:08:00,
2013-03-11 20:09:00,36.1,7.7,29.85,WSW,241,4.0,4.0,30,0.00,,---,0.00,VWS V14.01,2013-03-12 02:09:00,
2013-03-11 20:10:00,36.0,7.6,29.85,WNW,288,2.7,4.0,30,0.00,,---,0.00,VWS V14.01,2013-03-12 02:10:00,
2013-03-11 20:11:00,36.0,7.6,29.85,WSW,246,6.7,6.7,30,0.00,,---,0.00,VWS V14.01,2013-03-12 02:11:00,
2013-03-11 20:12:00,36.0,7.6,29.85,West,273,5.4,6.7,30,0.00,,---,0.00,VWS V14.01,2013-03-12 02:12:00,
2013-03-11 20:13:00,36.0,7.6,29.85,West,276,2.7,5.4,30,0.00,,---,0.00,VWS V14.01,2013-03-12 02:13:00,
2013-03-11 20:14:00,36.0,7.6,29.85,SW,236,3.6,3.6,30,0.00,,---,0.00,VWS V14.01,2013-03-12 02:14:00,
2013-03-11 20:15:00,36.0,7.6,29.85,West,278,0.0,3.6,30,0.00,,---,0.00,VWS V14.01,2013-03-12 02:15:00,
2013-03-11 20:16:00,36.0,7.6,29.85,West,274,3.1,3.1,30,0.00,,---,0.00,VWS V14.01,2013-03-12 02:16:00,
2013-03-11 20:17:00,36.0,7.6,29.85,West,274,0.0,3.1,30,0.00,,---,0.00,VWS V14.01,2013-03-12 02:17:00,
2013-03-11 20:18:00,35.8,7.4,29.85,WSW,247,3.6,3.6,30,0.00,,---,0.00,VWS V14.01,2013-03-12 02:18:00,
2013-03-11 20:19:00,35.8,7.4,29.88,West,264,3.1,3.1,30,0.00,,---,0.00,VWS V14.01,2013-03-12 02:19:00,
2013-03-11 20:20:00,35.8,7.4,29.88,WSW,249,5.8,5.8,30,0.00,,---,0.00,VWS V14.01,2013-03-12 02:20:00,
2013-03-11 20:21:00,35.8,7.4,29.88,West,275,5.4,5.8,30,0.00,,---,0.00,VWS V14.01,2013-03-12 02:21:00,
2013-03-11 20:22:00,35.8,7.4,29.88,West,261,4.0,5.4,30,0.00,,---,0.00,VWS V14.01,2013-03-12 02:22:00,
2013-03-11 20:23:00,35.8,7.4,29.88,SW,230,4.5,6.3,30,0.00,,---,0.00,VWS V14.01,2013-03-12 02:23:00,
2013-03-11 20:24:00,35.6,7.2,29.88,West,268,3.1,4.9,30,0.00,,---,0.00,VWS V14.01,2013-03-12 02:24:00,
2013-03-11 20:25:00,35.6,7.2,29.88,West,264,3.6,4.9,30,0.00,,---,0.00,VWS V14.01,2013-03-12 02:25:00,
2013-03-11 20:26:00,35.6,7.2,29.88,WSW,255,3.6,4.9,30,0.00,,---,0.00,VWS V14.01,2013-03-12 02:26:00,
2013-03-11 20:27:00,35.6,7.2,29.88,West,268,5.4,6.3,30,0.00,,---,0.00,VWS V14.01,2013-03-12 02:27:00,
2013-03-11 20:28:00,35.6,7.2,29.88,West,281,6.3,6.3,30,0.00,,---,0.00,VWS V14.01,2013-03-12 02:28:00,
2013-03-11 20:29:00,35.6,7.2,29.88,WSW,245,12.8,12.8,30,0.00,,---,0.00,VWS V14.01,2013-03-12 02:29:00,
2013-03-11 20:30:00,35.6,7.2,29.88,West,275,6.7,12.8,30,0.00,,---,0.00,VWS V14.01,2013-03-12 02:30:00,
2013-03-11 20:31:00,35.6,7.2,29.88,WNW,283,4.0,6.7,30,0.00,,---,0.00,VWS V14.01,2013-03-12 02:31:00,
2013-03-11 20:32:00,35.6,7.2,29.88,West,269,8.7,8.7,30,0.00,,---,0.00,VWS V14.01,2013-03-12 02:32:00,
2013-03-11 20:33:00,35.6,7.2,29.88,West,270,8.3,8.7,30,0.00,,---,0.00,VWS V14.01,2013-03-12 02:33:00,
2013-03-11 20:34:00,35.6,7.2,29.85,West,265,6.3,8.3,30,0.00,,---,0.00,VWS V14.01,2013-03-12 02:34:00,
2013-03-11 20:35:00,35.6,7.2,29.85,WNW,291,3.1,8.3,30,0.00,,---,0.00,VWS V14.01,2013-03-12 02:35:00,
2013-03-11 20:36:00,35.6,7.2,29.85,NW,307,8.1,8.1,30,0.00,,---,0.00,VWS V14.01,2013-03-12 02:36:00,
2013-03-11 20:37:00,35.6,7.2,29.85,West,263,5.8,8.1,30,0.00,,---,0.00,VWS V14.01,2013-03-12 02:37:00,
2013-03-11 20:38:00,35.6,7.2,29.85,West,272,6.3,8.1,30,0.00,,---,0.00,VWS V14.01,2013-03-12 02:38:00,
2013-03-11 20:39:00,35.6,7.2,29.85,West,273,7.2,7.2,30,0.00,,---,0.00,VWS V14.01,2013-03-12 02:39:00,
2013-03-11 20:40:00,35.4,7.1,29.85,West,265,5.8,7.6,30,0.00,,---,0.00,VWS V14.01,2013-03-12 02:40:00,
2013-03-11 20:41:00,35.4,7.8,29.85,West,262,6.3,6.3,31,0.00,,---,0.00,VWS V14.01,2013-03-12 02:41:00,
2013-03-11 20:42:00,35.4,7.8,29.85,WSW,257,6.3,8.3,31,0.00,,---,0.00,VWS V14.01,2013-03-12 02:42:00,
2013-03-11 20:43:00,35.4,7.8,29.85,WSW,252,4.0,8.1,31,0.00,,---,0.00,VWS V14.01,2013-03-12 02:43:00,
2013-03-11 20:44:00,35.4,7.8,29.85,West,270,5.8,5.8,31,0.00,,---,0.00,VWS V14.01,2013-03-12 02:44:00,
2013-03-11 20:45:00,35.4,7.8,29.85,West,273,6.3,10.1,31,0.00,,---,0.00,VWS V14.01,2013-03-12 02:45:00,
2013-03-11 20:46:00,35.4,7.8,29.85,WNW,283,8.7,10.5,31,0.00,,---,0.00,VWS V14.01,2013-03-12 02:46:00,
2013-03-11 20:47:00,35.4,7.8,29.85,WSW,249,8.3,8.7,31,0.00,,---,0.00,VWS V14.01,2013-03-12 02:47:00,
2013-03-11 20:48:00,35.4,7.8,29.85,NW,310,8.3,8.7,31,0.00,,---,0.00,VWS V14.01,2013-03-12 02:48:00,
2013-03-11 20:49:00,35.4,7.8,29.85,WNW,291,5.4,8.3,31,0.00,,---,0.00,VWS V14.01,2013-03-12 02:49:00,
2013-03-11 20:50:00,35.4,7.8,29.85,West,271,4.0,6.3,31,0.00,,---,0.00,VWS V14.01,2013-03-12 02:50:00,
2013-03-11 20:51:00,35.4,7.8,29.85,SW,230,8.1,8.1,31,0.00,,---,0.00,VWS V14.01,2013-03-12 02:51:00,
2013-03-11 20:52:00,35.4,7.8,29.85,West,279,8.1,8.3,31,0.00,,---,0.00,VWS V14.01,2013-03-12 02:52:00,
2013-03-11 20:53:00,35.4,7.8,29.85,West,276,7.6,8.1,31,0.00,,---,0.00,VWS V14.01,2013-03-12 02:53:00,
2013-03-11 20:54:00,35.4,7.8,29.85,West,274,4.9,8.7,31,0.00,,---,0.00,VWS V14.01,2013-03-12 02:54:00,
2013-03-11 20:55:00,35.4,7.8,29.85,WSW,241,6.3,8.1,31,0.00,,---,0.00,VWS V14.01,2013-03-12 02:55:00,
2013-03-11 20:56:00,35.2,7.7,29.85,West,273,7.6,8.7,31,0.00,,---,0.00,VWS V14.01,2013-03-12 02:56:00,
2013-03-11 20:57:00,35.2,7.7,29.85,West,262,4.0,7.6,31,0.00,,---,0.00,VWS V14.01,2013-03-12 02:57:00,
2013-03-11 20:58:00,35.2,7.7,29.85,West,266,4.0,8.1,31,0.00,,---,0.00,VWS V14.01,2013-03-12 02:58:00,
2013-03-11 20:59:00,35.2,7.7,29.85,West,268,7.6,7.6,31,0.00,,---,0.00,VWS V14.01,2013-03-12 02:59:00,
2013-03-11 21:00:00,35.1,7.5,29.85,WNW,303,5.4,7.6,31,0.00,,---,0.00,VWS V14.01,2013-03-12 03:00:00,
2013-03-11 21:01:00,35.1,7.5,29.85,WNW,301,5.4,5.4,31,0.00,,---,0.00,VWS V14.01,2013-03-12 03:01:00,
2013-03-11 21:02:00,35.1,7.5,29.85,WNW,283,4.0,5.4,31,0.00,,---,0.00,VWS V14.01,2013-03-12 03:02:00,
2013-03-11 21:03:00,34.9,7.3,29.85,West,276,5.4,7.6,31,0.00,,---,0.00,VWS V14.01,2013-03-12 03:03:00,
2013-03-11 21:04:00,34.9,7.3,29.85,WSW,251,5.4,5.4,31,0.00,,---,0.00,VWS V14.01,2013-03-12 03:04:00,
2013-03-11 21:05:00,34.9,7.3,29.85,West,271,5.4,5.4,31,0.00,,---,0.00,VWS V14.01,2013-03-12 03:05:00,
2013-03-11 21:06:00,34.7,7.2,29.85,WSW,258,5.8,6.3,31,0.00,,---,0.00,VWS V14.01,2013-03-12 03:06:00,
2013-03-11 21:07:00,34.7,7.2,29.85,West,276,5.4,6.3,31,0.00,,---,0.00,VWS V14.01,2013-03-12 03:07:00,
2013-03-11 21:08:00,34.7,7.2,29.85,West,268,3.6,5.4,31,0.00,,---,0.00,VWS V14.01,2013-03-12 03:08:00,
2013-03-11 21:09:00,34.5,7.0,29.85,WNW,295,3.6,6.3,31,0.00,,---,0.00,VWS V14.01,2013-03-12 03:09:00,
2013-03-11 21:10:00,34.5,7.0,29.85,WNW,285,3.6,6.3,31,0.00,,---,0.00,VWS V14.01,2013-03-12 03:10:00,
2013-03-11 21:11:00,34.5,7.0,29.85,West,273,4.0,8.1,31,0.00,,---,0.00,VWS V14.01,2013-03-12 03:11:00,
2013-03-11 21:12:00,34.5,7.0,29.85,WSW,250,5.8,5.8,31,0.00,,---,0.00,VWS V14.01,2013-03-12 03:12:00,
2013-03-11 21:13:00,34.5,7.0,29.85,West,269,3.1,7.6,31,0.00,,---,0.00,VWS V14.01,2013-03-12 03:13:00,
2013-03-11 21:14:00,34.5,7.0,29.85,WNW,283,3.1,5.4,31,0.00,,---,0.00,VWS V14.01,2013-03-12 03:14:00,
2013-03-11 21:15:00,34.5,7.0,29.85,WSW,251,3.6,5.8,31,0.00,,---,0.00,VWS V14.01,2013-03-12 03:15:00,
2013-03-11 21:16:00,34.3,6.9,29.85,WNW,291,4.0,5.8,31,0.00,,---,0.00,VWS V14.01,2013-03-12 03:16:00,
2013-03-11 21:17:00,34.3,6.9,29.85,West,265,4.9,5.4,31,0.00,,---,0.00,VWS V14.01,2013-03-12 03:17:00,
2013-03-11 21:18:00,34.3,6.9,29.85,WNW,283,0.0,5.4,31,0.00,,---,0.00,VWS V14.01,2013-03-12 03:18:00,
2013-03-11 21:19:00,34.3,6.9,29.88,WNW,290,3.1,5.4,31,0.00,,---,0.00,VWS V14.01,2013-03-12 03:19:00,
2013-03-11 21:20:00,34.3,6.9,29.88,West,272,5.4,5.4,31,0.00,,---,0.00,VWS V14.01,2013-03-12 03:20:00,
2013-03-11 21:21:00,34.3,7.6,29.88,West,278,4.0,5.4,32,0.00,,---,0.00,VWS V14.01,2013-03-12 03:21:00,
2013-03-11 21:22:00,34.3,7.6,29.88,West,274,3.6,6.7,32,0.00,,---,0.00,VWS V14.01,2013-03-12 03:22:00,
2013-03-11 21:23:00,34.3,7.6,29.88,WSW,247,3.6,5.8,32,0.00,,---,0.00,VWS V14.01,2013-03-12 03:23:00,
2013-03-11 21:24:00,34.2,7.4,29.88,West,273,6.3,8.7,32,0.00,,---,0.00,VWS V14.01,2013-03-12 03:24:00,
2013-03-11 21:25:00,34.2,7.4,29.88,WNW,287,5.4,6.3,32,0.00,,---,0.00,VWS V14.01,2013-03-12 03:25:00,
2013-03-11 21:26:00,34.2,7.4,29.88,WSW,245,4.9,6.3,32,0.00,,---,0.00,VWS V14.01,2013-03-12 03:26:00,
2013-03-11 21:27:00,34.2,7.4,29.88,WNW,285,3.1,4.9,32,0.00,,---,0.00,VWS V14.01,2013-03-12 03:27:00,
2013-03-11 21:28:00,34.2,7.4,29.88,West,275,5.4,6.3,32,0.00,,---,0.00,VWS V14.01,2013-03-12 03:28:00,
2013-03-11 21:29:00,34.2,7.4,29.88,SW,220,5.4,5.8,32,0.00,,---,0.00,VWS V14.01,2013-03-12 03:29:00,
2013-03-11 21:30:00,34.2,7.4,29.88,West,279,2.7,6.3,32,0.00,,---,0.00,VWS V14.01,2013-03-12 03:30:00,
2013-03-11 21:31:00,34.2,7.4,29.88,West,267,6.3,6.3,32,0.00,,---,0.00,VWS V14.01,2013-03-12 03:31:00,
2013-03-11 21:32:00,34.2,7.4,29.88,WSW,254,5.4,6.3,32,0.00,,---,0.00,VWS V14.01,2013-03-12 03:32:00,
2013-03-11 21:33:00,34.2,7.4,29.88,West,268,4.0,5.4,32,0.00,,---,0.00,VWS V14.01,2013-03-12 03:33:00,
2013-03-11 21:34:00,34.2,7.4,29.88,WNW,300,2.7,4.9,32,0.00,,---,0.00,VWS V14.01,2013-03-12 03:34:00,
2013-03-11 21:35:00,34.2,7.4,29.88,WNW,303,3.6,3.6,32,0.00,,---,0.00,VWS V14.01,2013-03-12 03:35:00,
2013-03-11 21:36:00,34.2,7.4,29.88,WNW,294,3.1,3.6,32,0.00,,---,0.00,VWS V14.01,2013-03-12 03:36:00,
2013-03-11 21:37:00,34.2,7.4,29.88,NW,317,3.6,4.9,32,0.00,,---,0.00,VWS V14.01,2013-03-12 03:37:00,
2013-03-11 21:38:00,34.2,7.4,29.88,WNW,286,3.1,5.8,32,0.00,,---,0.00,VWS V14.01,2013-03-12 03:38:00,
2013-03-11 21:39:00,34.0,7.2,29.88,WNW,301,4.9,5.8,32,0.00,,---,0.00,VWS V14.01,2013-03-12 03:39:00,
2013-03-11 21:40:00,34.0,7.2,29.88,WNW,290,6.3,6.3,32,0.00,,---,0.00,VWS V14.01,2013-03-12 03:40:00,
2013-03-11 21:41:00,34.2,7.4,29.88,WNW,294,5.8,6.7,32,0.00,,---,0.00,VWS V14.01,2013-03-12 03:41:00,
2013-03-11 21:42:00,34.2,7.4,29.88,WSW,250,3.6,6.3,32,0.00,,---,0.00,VWS V14.01,2013-03-12 03:42:00,
2013-03-11 21:43:00,34.2,7.4,29.88,WNW,285,4.0,5.8,32,0.00,,---,0.00,VWS V14.01,2013-03-12 03:43:00,
2013-03-11 21:44:00,34.2,7.4,29.88,WNW,293,7.6,8.1,32,0.00,,---,0.00,VWS V14.01,2013-03-12 03:44:00,
2013-03-11 21:45:00,34.2,7.4,29.88,WNW,295,4.0,8.1,32,0.00,,---,0.00,VWS V14.01,2013-03-12 03:45:00,
2013-03-11 21:46:00,34.2,7.4,29.88,NW,308,5.8,6.7,32,0.00,,---,0.00,VWS V14.01,2013-03-12 03:46:00,
2013-03-11 21:47:00,34.3,7.6,29.88,WNW,303,7.6,7.6,32,0.00,,---,0.00,VWS V14.01,2013-03-12 03:47:00,
2013-03-11 21:48:00,34.2,7.4,29.88,NNW,338,4.0,7.6,32,0.00,,---,0.00,VWS V14.01,2013-03-12 03:48:00,
2013-03-11 21:49:00,34.2,7.4,29.88,NW,308,5.4,5.4,32,0.00,,---,0.00,VWS V14.01,2013-03-12 03:49:00,
2013-03-11 21:50:00,34.2,7.4,29.88,NW,307,3.6,7.6,32,0.00,,---,0.00,VWS V14.01,2013-03-12 03:50:00,
2013-03-11 21:51:00,34.0,7.2,29.88,WNW,288,4.9,6.3,32,0.00,,---,0.00,VWS V14.01,2013-03-12 03:51:00,
2013-03-11 21:52:00,34.0,7.2,29.88,WNW,294,3.1,4.9,32,0.00,,---,0.00,VWS V14.01,2013-03-12 03:52:00,
2013-03-11 21:54:00,33.8,7.1,29.88,WNW,297,3.1,3.1,32,0.00,,---,0.00,VWS V14.01,2013-03-12 03:54:00,
2013-03-11 21:55:00,33.8,7.1,29.88,WNW,287,6.3,6.3,32,0.00,,---,0.00,VWS V14.01,2013-03-12 03:55:00,
2013-03-11 21:56:00,33.8,7.1,29.88,NW,312,6.3,7.6,32,0.00,,---,0.00,VWS V14.01,2013-03-12 03:56:00,
2013-03-11 21:57:00,33.8,7.1,29.88,West,281,3.6,6.3,32,0.00,,---,0.00,VWS V14.01,2013-03-12 03:57:00,
2013-03-11 21:58:00,33.8,7.1,29.88,WNW,295,4.0,4.0,32,0.00,,---,0.00,VWS V14.01,2013-03-12 03:58:00,
2013-03-11 21:59:00,33.6,7.6,29.88,WNW,297,4.0,4.0,33,0.00,,---,0.00,VWS V14.01,2013-03-12 03:59:00,
2013-03-11 22:00:00,33.6,7.6,29.88,WNW,299,3.6,4.9,33,0.00,,---,0.00,VWS V14.01,2013-03-12 04:00:00,
2013-03-11 22:01:00,33.6,7.6,29.88,NW,304,6.3,6.3,33,0.00,,---,0.00,VWS V14.01,2013-03-12 04:01:00,
2013-03-11 22:02:00,33.6,7.6,29.88,WNW,295,3.1,6.3,33,0.00,,---,0.00,VWS V14.01,2013-03-12 04:02:00,
2013-03-11 22:03:00,33.4,7.4,29.88,NW,318,5.8,5.8,33,0.00,,---,0.00,VWS V14.01,2013-03-12 04:03:00,
2013-03-11 22:04:00,33.4,7.4,29.88,WNW,288,5.4,5.8,33,0.00,,---,0.00,VWS V14.01,2013-03-12 04:04:00,
2013-03-11 22:05:00,33.3,7.3,29.88,WNW,302,4.9,4.9,33,0.00,,---,0.00,VWS V14.01,2013-03-12 04:05:00,
2013-03-11 22:06:00,33.3,7.3,29.88,WNW,292,5.4,7.6,33,0.00,,---,0.00,VWS V14.01,2013-03-12 04:06:00,
2013-03-11 22:07:00,33.3,7.3,29.88,WNW,286,4.0,7.6,33,0.00,,---,0.00,VWS V14.01,2013-03-12 04:07:00,
2013-03-11 22:08:00,33.3,7.3,29.88,NW,305,4.5,7.6,33,0.00,,---,0.00,VWS V14.01,2013-03-12 04:08:00,
2013-03-11 22:09:00,33.3,7.3,29.88,West,265,4.0,4.5,33,0.00,,---,0.00,VWS V14.01,2013-03-12 04:09:00,
2013-03-11 22:10:00,33.1,7.1,29.88,West,275,4.0,5.8,33,0.00,,---,0.00,VWS V14.01,2013-03-12 04:10:00,
2013-03-11 22:11:00,33.1,7.1,29.88,SW,230,4.0,6.3,33,0.00,,---,0.00,VWS V14.01,2013-03-12 04:11:00,
2013-03-11 22:12:00,33.1,7.1,29.88,WSW,250,3.6,4.0,33,0.00,,---,0.00,VWS V14.01,2013-03-12 04:12:00,
2013-03-11 22:13:00,32.9,7.0,29.88,WNW,285,5.8,5.8,33,0.00,,---,0.00,VWS V14.01,2013-03-12 04:13:00,
2013-03-11 22:14:00,32.9,7.6,29.88,WSW,256,4.9,5.8,34,0.00,,---,0.00,VWS V14.01,2013-03-12 04:14:00,
2013-03-11 22:15:00,32.9,7.6,29.88,West,262,4.9,4.9,34,0.00,,---,0.00,VWS V14.01,2013-03-12 04:15:00,
2013-03-11 22:16:00,32.9,7.6,29.88,West,260,4.0,6.3,34,0.00,,---,0.00,VWS V14.01,2013-03-12 04:16:00,
2013-03-11 22:17:00,32.7,7.5,29.88,WNW,294,5.8,5.8,34,0.00,,---,0.00,VWS V14.01,2013-03-12 04:17:00,
2013-03-11 22:18:00,32.7,7.5,29.88,West,268,5.8,5.8,34,0.00,,---,0.00,VWS V14.01,2013-03-12 04:18:00,
2013-03-11 22:19:00,32.7,7.5,29.88,WSW,253,4.9,6.3,34,0.00,,---,0.00,VWS V14.01,2013-03-12 04:19:00,
2013-03-11 22:20:00,32.7,7.5,29.88,West,260,5.4,5.8,34,0.00,,---,0.00,VWS V14.01,2013-03-12 04:20:00,
2013-03-11 22:21:00,32.5,7.3,29.88,WNW,284,3.6,5.4,34,0.00,,---,0.00,VWS V14.01,2013-03-12 04:21:00,
2013-03-11 22:22:00,32.5,7.3,29.88,WNW,294,5.8,5.8,34,0.00,,---,0.00,VWS V14.01,2013-03-12 04:22:00,
2013-03-11 22:23:00,32.5,7.3,29.88,WNW,287,6.3,6.3,34,0.00,,---,0.00,VWS V14.01,2013-03-12 04:23:00,
2013-03-11 22:24:00,32.5,7.3,29.88,West,259,5.4,6.3,34,0.00,,---,0.00,VWS V14.01,2013-03-12 04:24:00,
2013-03-11 22:25:00,32.5,7.3,29.88,WNW,289,2.7,2.7,34,0.00,,---,0.00,VWS V14.01,2013-03-12 04:25:00,
2013-03-11 22:26:00,32.5,7.3,29.88,West,276,3.1,3.6,34,0.00,,---,0.00,VWS V14.01,2013-03-12 04:26:00,
2013-03-11 22:27:00,32.4,7.1,29.88,WNW,298,4.0,4.9,34,0.00,,---,0.00,VWS V14.01,2013-03-12 04:27:00,
2013-03-11 22:28:00,32.4,7.1,29.88,West,279,3.1,5.8,34,0.00,,---,0.00,VWS V14.01,2013-03-12 04:28:00,
2013-03-11 22:30:00,32.4,7.1,29.88,NW,322,3.6,3.6,34,0.00,,---,0.00,VWS V14.01,2013-03-12 04:30:00,
2013-03-11 22:31:00,32.5,7.3,29.88,NW,311,4.9,6.3,34,0.00,,---,0.00,VWS V14.01,2013-03-12 04:31:00,
2013-03-11 22:32:00,32.5,7.3,29.88,WNW,286,3.6,5.8,34,0.00,,---,0.00,VWS V14.01,2013-03-12 04:32:00,
2013-03-11 22:33:00,32.5,7.3,29.88,West,273,4.0,5.8,34,0.00,,---,0.00,VWS V14.01,2013-03-12 04:33:00,
2013-03-11 22:34:00,32.5,7.3,29.88,West,279,3.6,4.0,34,0.00,,---,0.00,VWS V14.01,2013-03-12 04:34:00,
2013-03-11 22:35:00,32.5,7.3,29.88,WNW,295,3.1,6.3,34,0.00,,---,0.00,VWS V14.01,2013-03-12 04:35:00,
2013-03-11 22:36:00,32.5,7.3,29.88,NW,304,5.4,6.3,34,0.00,,---,0.00,VWS V14.01,2013-03-12 04:36:00,
2013-03-11 22:37:00,32.5,7.3,29.88,WNW,293,4.0,6.3,34,0.00,,---,0.00,VWS V14.01,2013-03-12 04:37:00,
2013-03-11 22:38:00,32.5,7.3,29.88,NW,323,3.6,5.4,34,0.00,,---,0.00,VWS V14.01,2013-03-12 04:38:00,
2013-03-11 22:39:00,32.4,7.1,29.88,WNW,285,3.6,4.9,34,0.00,,---,0.00,VWS V14.01,2013-03-12 04:39:00,
2013-03-11 22:40:00,32.4,7.1,29.88,West,276,2.7,2.7,34,0.00,,---,0.00,VWS V14.01,2013-03-12 04:40:00,
2013-03-11 22:41:00,32.4,7.1,29.88,West,278,4.0,5.4,34,0.00,,---,0.00,VWS V14.01,2013-03-12 04:41:00,
2013-03-11 22:42:00,32.2,7.0,29.88,WNW,292,3.1,4.0,34,0.00,,---,0.00,VWS V14.01,2013-03-12 04:42:00,
2013-03-11 22:43:00,32.2,7.0,29.88,WNW,295,7.2,7.2,34,0.00,,---,0.00,VWS V14.01,2013-03-12 04:43:00,
2013-03-11 22:44:00,32.2,7.0,29.88,WNW,290,5.4,7.2,34,0.00,,---,0.00,VWS V14.01,2013-03-12 04:44:00,
2013-03-11 22:45:00,32.2,7.0,29.88,WNW,294,5.8,5.8,34,0.00,,---,0.00,VWS V14.01,2013-03-12 04:45:00,
2013-03-11 22:46:00,32.2,7.0,29.88,NW,313,3.1,5.8,34,0.00,,---,0.00,VWS V14.01,2013-03-12 04:46:00,
2013-03-11 22:47:00,32.2,7.0,29.88,WSW,243,4.0,5.4,34,0.00,,---,0.00,VWS V14.01,2013-03-12 04:47:00,
2013-03-11 22:48:00,32.2,7.0,29.88,West,280,5.8,7.6,34,0.00,,---,0.00,VWS V14.01,2013-03-12 04:48:00,
2013-03-11 22:49:00,32.2,7.0,29.85,West,276,5.4,6.7,34,0.00,,---,0.00,VWS V14.01,2013-03-12 04:49:00,
2013-03-11 22:50:00,32.2,7.0,29.85,West,265,4.5,5.4,34,0.00,,---,0.00,VWS V14.01,2013-03-12 04:50:00,
2013-03-11 22:51:00,32.2,7.6,29.85,West,268,3.6,5.4,35,0.00,,---,0.00,VWS V14.01,2013-03-12 04:51:00,
2013-03-11 22:52:00,32.2,7.6,29.85,WNW,294,2.7,4.0,35,0.00,,---,0.00,VWS V14.01,2013-03-12 04:52:00,
2013-03-11 22:53:00,32.0,7.5,29.85,WNW,292,7.6,7.6,35,0.00,,---,0.00,VWS V14.01,2013-03-12 04:53:00,
2013-03-11 22:54:00,32.0,7.5,29.85,WNW,295,2.7,7.6,35,0.00,,---,0.00,VWS V14.01,2013-03-12 04:54:00,
2013-03-11 22:55:00,32.0,7.5,29.85,West,270,4.9,4.9,35,0.00,,---,0.00,VWS V14.01,2013-03-12 04:55:00,
2013-03-11 22:56:00,31.8,7.3,29.85,WNW,287,2.7,4.9,35,0.00,,---,0.00,VWS V14.01,2013-03-12 04:56:00,
2013-03-11 22:57:00,31.8,7.3,29.85,WNW,302,2.2,5.4,35,0.00,,---,0.00,VWS V14.01,2013-03-12 04:57:00,
2013-03-11 22:58:00,31.8,7.3,29.85,WNW,287,3.1,3.1,35,0.00,,---,0.00,VWS V14.01,2013-03-12 04:58:00,
2013-03-11 22:59:00,31.6,7.1,29.85,WNW,302,3.6,4.0,35,0.00,,---,0.00,VWS V14.01,2013-03-12 04:59:00,
2013-03-11 23:00:00,31.6,7.1,29.85,WNW,290,4.0,5.4,35,0.00,,---,0.00,VWS V14.01,2013-03-12 05:00:00,
2013-03-11 23:01:00,31.6,7.1,29.85,NW,316,3.6,4.0,35,0.00,,---,0.00,VWS V14.01,2013-03-12 05:01:00,
2013-03-11 23:02:00,31.6,7.1,29.85,WNW,302,4.5,4.5,35,0.00,,---,0.00,VWS V14.01,2013-03-12 05:02:00,
2013-03-11 23:03:00,31.6,7.1,29.85,WNW,293,2.7,4.5,35,0.00,,---,0.00,VWS V14.01,2013-03-12 05:03:00,
2013-03-11 23:04:00,31.6,7.1,29.88,NW,314,5.4,5.4,35,0.00,,---,0.00,VWS V14.01,2013-03-12 05:04:00,
2013-03-11 23:05:00,31.6,7.1,29.88,WNW,290,4.9,5.4,35,0.00,,---,0.00,VWS V14.01,2013-03-12 05:05:00,
2013-03-11 23:06:00,31.6,7.1,29.88,WNW,290,2.7,4.9,35,0.00,,---,0.00,VWS V14.01,2013-03-12 05:06:00,
2013-03-11 23:07:00,31.6,7.1,29.88,WNW,302,2.7,4.0,35,0.00,,---,0.00,VWS V14.01,2013-03-12 05:07:00,
2013-03-11 23:08:00,31.6,7.1,29.88,WNW,303,0.0,4.0,35,0.00,,---,0.00,VWS V14.01,2013-03-12 05:08:00,
2013-03-11 23:09:00,31.6,7.1,29.88,WNW,303,3.1,3.6,35,0.00,,---,0.00,VWS V14.01,2013-03-12 05:09:00,
2013-03-11 23:10:00,31.6,7.1,29.88,WNW,298,3.6,4.5,35,0.00,,---,0.00,VWS V14.01,2013-03-12 05:10:00,
2013-03-11 23:11:00,31.6,7.1,29.88,NW,307,3.6,4.9,35,0.00,,---,0.00,VWS V14.01,2013-03-12 05:11:00,
2013-03-11 23:12:00,31.6,7.1,29.88,West,276,3.1,4.0,35,0.00,,---,0.00,VWS V14.01,2013-03-12 05:12:00,
2013-03-11 23:50:00,30.0,6.3,29.88,WNW,285,0.0,0.0,36,0.00,,---,0.00,VWS V14.01,2013-03-12 05:50:00,
2013-03-11 23:51:00,29.8,6.2,29.88,WNW,285,0.0,0.0,36,0.00,,---,0.00,VWS V14.01,2013-03-12 05:51:00,
2013-03-11 23:55:00,29.7,6.6,29.88,WNW,284,0.0,0.0,37,0.00,,---,0.00,VWS V14.01,2013-03-12 05:55:00,